<?xml version="1.0" encoding="UTF-8" standalone="no" ?>
<gpx xmlns="http://www.topografix.com/GPX/1/1" xmlns:xsi="http://www.w3.org/2001/XMLSchema-instance" xsi:schemaLocation="http://www.topografix.com/GPX/1/1 http://www.topografix.com/GPX/1/1/gpx.xsd" version="1.1" creator="VisuGPX - https://www.visugpx.com">
  <metadata>
    <name>Toutes traces 4x4 Côté Brindas</name>
  </metadata>
  <trk>
    <name><![CDATA[Yzeron]]></name>
    <extensions>
      <line xmlns="http://www.topografix.com/GPX/gpx_style/0/2">
        <color>00FFFF</color>
        <width>4</width>
      </line>
    </extensions>
    <trkseg>
      <trkpt lat="45.70421" lon="4.57616">
        <ele>788.827</ele>
        <time>2021-06-29T21:52:35Z</time>
      </trkpt>
      <trkpt lat="45.70421" lon="4.57616">
        <ele>788.827</ele>
        <time>2021-06-29T21:52:35Z</time>
      </trkpt>
      <trkpt lat="45.70418" lon="4.57612">
        <ele>789.068</ele>
        <time>2021-06-29T21:52:37Z</time>
      </trkpt>
      <trkpt lat="45.70413" lon="4.57605">
        <ele>789.714</ele>
        <time>2021-06-29T21:52:39Z</time>
      </trkpt>
      <trkpt lat="45.70408" lon="4.57597">
        <ele>790.708</ele>
        <time>2021-06-29T21:52:41Z</time>
      </trkpt>
      <trkpt lat="45.70403" lon="4.57589">
        <ele>791.629</ele>
        <time>2021-06-29T21:52:43Z</time>
      </trkpt>
      <trkpt lat="45.704" lon="4.57579">
        <ele>792.949</ele>
        <time>2021-06-29T21:52:45Z</time>
      </trkpt>
      <trkpt lat="45.70398" lon="4.57571">
        <ele>794.152</ele>
        <time>2021-06-29T21:52:47Z</time>
      </trkpt>
      <trkpt lat="45.70395" lon="4.57564">
        <ele>795.117</ele>
        <time>2021-06-29T21:52:49Z</time>
      </trkpt>
      <trkpt lat="45.70393" lon="4.57555">
        <ele>795.872</ele>
        <time>2021-06-29T21:52:51Z</time>
      </trkpt>
      <trkpt lat="45.70391" lon="4.57546">
        <ele>796.471</ele>
        <time>2021-06-29T21:52:53Z</time>
      </trkpt>
      <trkpt lat="45.70389" lon="4.57539">
        <ele>797.127</ele>
        <time>2021-06-29T21:52:55Z</time>
      </trkpt>
      <trkpt lat="45.70387" lon="4.57532">
        <ele>797.955</ele>
        <time>2021-06-29T21:52:57Z</time>
      </trkpt>
      <trkpt lat="45.70386" lon="4.57523">
        <ele>798.671</ele>
        <time>2021-06-29T21:52:59Z</time>
      </trkpt>
      <trkpt lat="45.70383" lon="4.57514">
        <ele>799.241</ele>
        <time>2021-06-29T21:53:01Z</time>
      </trkpt>
      <trkpt lat="45.70381" lon="4.57506">
        <ele>799.915</ele>
        <time>2021-06-29T21:53:03Z</time>
      </trkpt>
      <trkpt lat="45.70379" lon="4.57498">
        <ele>801.008</ele>
        <time>2021-06-29T21:53:06Z</time>
      </trkpt>
      <trkpt lat="45.70378" lon="4.57489">
        <ele>802.024</ele>
        <time>2021-06-29T21:53:09Z</time>
      </trkpt>
      <trkpt lat="45.70375" lon="4.57482">
        <ele>802.764</ele>
        <time>2021-06-29T21:53:11Z</time>
      </trkpt>
      <trkpt lat="45.70374" lon="4.57475">
        <ele>803.147</ele>
        <time>2021-06-29T21:53:12Z</time>
      </trkpt>
      <trkpt lat="45.70372" lon="4.57467">
        <ele>803.732</ele>
        <time>2021-06-29T21:53:14Z</time>
      </trkpt>
      <trkpt lat="45.7037" lon="4.57458">
        <ele>804.117</ele>
        <time>2021-06-29T21:53:16Z</time>
      </trkpt>
      <trkpt lat="45.70369" lon="4.57449">
        <ele>804.446</ele>
        <time>2021-06-29T21:53:18Z</time>
      </trkpt>
      <trkpt lat="45.70367" lon="4.5744">
        <ele>804.842</ele>
        <time>2021-06-29T21:53:20Z</time>
      </trkpt>
      <trkpt lat="45.70366" lon="4.57428">
        <ele>805.31</ele>
        <time>2021-06-29T21:53:22Z</time>
      </trkpt>
      <trkpt lat="45.70366" lon="4.57421">
        <ele>805.536</ele>
        <time>2021-06-29T21:53:23Z</time>
      </trkpt>
      <trkpt lat="45.70366" lon="4.57412">
        <ele>806.117</ele>
        <time>2021-06-29T21:53:25Z</time>
      </trkpt>
      <trkpt lat="45.70364" lon="4.574">
        <ele>807.018</ele>
        <time>2021-06-29T21:53:28Z</time>
      </trkpt>
      <trkpt lat="45.70364" lon="4.57387">
        <ele>807.508</ele>
        <time>2021-06-29T21:53:30Z</time>
      </trkpt>
      <trkpt lat="45.70364" lon="4.5738">
        <ele>807.76</ele>
        <time>2021-06-29T21:53:31Z</time>
      </trkpt>
      <trkpt lat="45.70364" lon="4.57372">
        <ele>807.93</ele>
        <time>2021-06-29T21:53:32Z</time>
      </trkpt>
      <trkpt lat="45.70364" lon="4.57364">
        <ele>808.393</ele>
        <time>2021-06-29T21:53:34Z</time>
      </trkpt>
      <trkpt lat="45.70365" lon="4.57354">
        <ele>809.068</ele>
        <time>2021-06-29T21:53:37Z</time>
      </trkpt>
      <trkpt lat="45.70366" lon="4.57346">
        <ele>809.543</ele>
        <time>2021-06-29T21:53:39Z</time>
      </trkpt>
      <trkpt lat="45.70367" lon="4.57334">
        <ele>810.162</ele>
        <time>2021-06-29T21:53:42Z</time>
      </trkpt>
      <trkpt lat="45.70367" lon="4.57321">
        <ele>810.648</ele>
        <time>2021-06-29T21:53:44Z</time>
      </trkpt>
      <trkpt lat="45.70367" lon="4.57313">
        <ele>810.946</ele>
        <time>2021-06-29T21:53:45Z</time>
      </trkpt>
      <trkpt lat="45.70367" lon="4.57305">
        <ele>811.368</ele>
        <time>2021-06-29T21:53:46Z</time>
      </trkpt>
      <trkpt lat="45.70367" lon="4.57297">
        <ele>811.742</ele>
        <time>2021-06-29T21:53:47Z</time>
      </trkpt>
      <trkpt lat="45.70367" lon="4.57287">
        <ele>812.126</ele>
        <time>2021-06-29T21:53:48Z</time>
      </trkpt>
      <trkpt lat="45.70367" lon="4.57278">
        <ele>812.508</ele>
        <time>2021-06-29T21:53:49Z</time>
      </trkpt>
      <trkpt lat="45.70367" lon="4.57269">
        <ele>813.043</ele>
        <time>2021-06-29T21:53:50Z</time>
      </trkpt>
      <trkpt lat="45.70368" lon="4.57261">
        <ele>813.433</ele>
        <time>2021-06-29T21:53:51Z</time>
      </trkpt>
      <trkpt lat="45.70367" lon="4.57253">
        <ele>813.876</ele>
        <time>2021-06-29T21:53:52Z</time>
      </trkpt>
      <trkpt lat="45.70368" lon="4.57244">
        <ele>814.251</ele>
        <time>2021-06-29T21:53:53Z</time>
      </trkpt>
      <trkpt lat="45.70368" lon="4.57236">
        <ele>814.686</ele>
        <time>2021-06-29T21:53:54Z</time>
      </trkpt>
      <trkpt lat="45.70369" lon="4.5723">
        <ele>815.055</ele>
        <time>2021-06-29T21:53:55Z</time>
      </trkpt>
      <trkpt lat="45.70369" lon="4.57223">
        <ele>815.451</ele>
        <time>2021-06-29T21:53:56Z</time>
      </trkpt>
      <trkpt lat="45.70371" lon="4.57212">
        <ele>816.389</ele>
        <time>2021-06-29T21:53:58Z</time>
      </trkpt>
      <trkpt lat="45.7037" lon="4.57203">
        <ele>817.248</ele>
        <time>2021-06-29T21:54:00Z</time>
      </trkpt>
      <trkpt lat="45.7037" lon="4.57193">
        <ele>818.061</ele>
        <time>2021-06-29T21:54:02Z</time>
      </trkpt>
      <trkpt lat="45.70371" lon="4.57183">
        <ele>818.817</ele>
        <time>2021-06-29T21:54:04Z</time>
      </trkpt>
      <trkpt lat="45.70371" lon="4.57173">
        <ele>819.708</ele>
        <time>2021-06-29T21:54:06Z</time>
      </trkpt>
      <trkpt lat="45.7037" lon="4.57163">
        <ele>820.791</ele>
        <time>2021-06-29T21:54:08Z</time>
      </trkpt>
      <trkpt lat="45.70369" lon="4.57154">
        <ele>821.591</ele>
        <time>2021-06-29T21:54:10Z</time>
      </trkpt>
      <trkpt lat="45.70368" lon="4.57142">
        <ele>822.174</ele>
        <time>2021-06-29T21:54:12Z</time>
      </trkpt>
      <trkpt lat="45.70366" lon="4.57131">
        <ele>822.719</ele>
        <time>2021-06-29T21:54:14Z</time>
      </trkpt>
      <trkpt lat="45.70364" lon="4.5712">
        <ele>823.494</ele>
        <time>2021-06-29T21:54:16Z</time>
      </trkpt>
      <trkpt lat="45.70364" lon="4.57114">
        <ele>823.813</ele>
        <time>2021-06-29T21:54:17Z</time>
      </trkpt>
      <trkpt lat="45.70362" lon="4.57102">
        <ele>824.669</ele>
        <time>2021-06-29T21:54:19Z</time>
      </trkpt>
      <trkpt lat="45.7036" lon="4.57091">
        <ele>825.437</ele>
        <time>2021-06-29T21:54:21Z</time>
      </trkpt>
      <trkpt lat="45.70358" lon="4.5708">
        <ele>826.211</ele>
        <time>2021-06-29T21:54:23Z</time>
      </trkpt>
      <trkpt lat="45.70357" lon="4.57069">
        <ele>827.021</ele>
        <time>2021-06-29T21:54:25Z</time>
      </trkpt>
      <trkpt lat="45.70356" lon="4.57058">
        <ele>827.703</ele>
        <time>2021-06-29T21:54:27Z</time>
      </trkpt>
      <trkpt lat="45.70354" lon="4.57047">
        <ele>828.308</ele>
        <time>2021-06-29T21:54:29Z</time>
      </trkpt>
      <trkpt lat="45.70352" lon="4.57041">
        <ele>828.818</ele>
        <time>2021-06-29T21:54:31Z</time>
      </trkpt>
      <trkpt lat="45.70351" lon="4.57034">
        <ele>829.768</ele>
        <time>2021-06-29T21:54:34Z</time>
      </trkpt>
      <trkpt lat="45.7035" lon="4.57027">
        <ele>830.221</ele>
        <time>2021-06-29T21:54:36Z</time>
      </trkpt>
      <trkpt lat="45.7035" lon="4.57019">
        <ele>830.626</ele>
        <time>2021-06-29T21:54:38Z</time>
      </trkpt>
      <trkpt lat="45.70349" lon="4.5701">
        <ele>831.041</ele>
        <time>2021-06-29T21:54:40Z</time>
      </trkpt>
      <trkpt lat="45.70348" lon="4.57002">
        <ele>831.69</ele>
        <time>2021-06-29T21:54:42Z</time>
      </trkpt>
      <trkpt lat="45.70347" lon="4.56993">
        <ele>832.386</ele>
        <time>2021-06-29T21:54:44Z</time>
      </trkpt>
      <trkpt lat="45.70346" lon="4.56985">
        <ele>833.124</ele>
        <time>2021-06-29T21:54:46Z</time>
      </trkpt>
      <trkpt lat="45.70343" lon="4.56975">
        <ele>833.869</ele>
        <time>2021-06-29T21:54:48Z</time>
      </trkpt>
      <trkpt lat="45.70343" lon="4.56966">
        <ele>834.604</ele>
        <time>2021-06-29T21:54:50Z</time>
      </trkpt>
      <trkpt lat="45.7034" lon="4.56956">
        <ele>835.324</ele>
        <time>2021-06-29T21:54:52Z</time>
      </trkpt>
      <trkpt lat="45.70339" lon="4.56947">
        <ele>836.008</ele>
        <time>2021-06-29T21:54:54Z</time>
      </trkpt>
      <trkpt lat="45.70338" lon="4.56938">
        <ele>836.893</ele>
        <time>2021-06-29T21:54:56Z</time>
      </trkpt>
      <trkpt lat="45.70336" lon="4.56927">
        <ele>837.793</ele>
        <time>2021-06-29T21:54:58Z</time>
      </trkpt>
      <trkpt lat="45.70333" lon="4.56918">
        <ele>838.666</ele>
        <time>2021-06-29T21:55:00Z</time>
      </trkpt>
      <trkpt lat="45.70331" lon="4.56907">
        <ele>839.361</ele>
        <time>2021-06-29T21:55:02Z</time>
      </trkpt>
      <trkpt lat="45.70329" lon="4.569">
        <ele>839.726</ele>
        <time>2021-06-29T21:55:03Z</time>
      </trkpt>
      <trkpt lat="45.70328" lon="4.56894">
        <ele>840.015</ele>
        <time>2021-06-29T21:55:04Z</time>
      </trkpt>
      <trkpt lat="45.70328" lon="4.56887">
        <ele>840.341</ele>
        <time>2021-06-29T21:55:05Z</time>
      </trkpt>
      <trkpt lat="45.70327" lon="4.5688">
        <ele>840.689</ele>
        <time>2021-06-29T21:55:06Z</time>
      </trkpt>
      <trkpt lat="45.70327" lon="4.56874">
        <ele>840.892</ele>
        <time>2021-06-29T21:55:07Z</time>
      </trkpt>
      <trkpt lat="45.70325" lon="4.56863">
        <ele>841.173</ele>
        <time>2021-06-29T21:55:09Z</time>
      </trkpt>
      <trkpt lat="45.70324" lon="4.56854">
        <ele>841.22</ele>
        <time>2021-06-29T21:55:11Z</time>
      </trkpt>
      <trkpt lat="45.70323" lon="4.56845">
        <ele>841.208</ele>
        <time>2021-06-29T21:55:13Z</time>
      </trkpt>
      <trkpt lat="45.70321" lon="4.56836">
        <ele>841.256</ele>
        <time>2021-06-29T21:55:15Z</time>
      </trkpt>
      <trkpt lat="45.7032" lon="4.56829">
        <ele>841.236</ele>
        <time>2021-06-29T21:55:16Z</time>
      </trkpt>
      <trkpt lat="45.70318" lon="4.56819">
        <ele>841.389</ele>
        <time>2021-06-29T21:55:18Z</time>
      </trkpt>
      <trkpt lat="45.70314" lon="4.56809">
        <ele>841.484</ele>
        <time>2021-06-29T21:55:20Z</time>
      </trkpt>
      <trkpt lat="45.7031" lon="4.56798">
        <ele>841.689</ele>
        <time>2021-06-29T21:55:22Z</time>
      </trkpt>
      <trkpt lat="45.70305" lon="4.56789">
        <ele>842.018</ele>
        <time>2021-06-29T21:55:24Z</time>
      </trkpt>
      <trkpt lat="45.70301" lon="4.56781">
        <ele>842.534</ele>
        <time>2021-06-29T21:55:26Z</time>
      </trkpt>
      <trkpt lat="45.70296" lon="4.56772">
        <ele>843.032</ele>
        <time>2021-06-29T21:55:28Z</time>
      </trkpt>
      <trkpt lat="45.70293" lon="4.56763">
        <ele>843.544</ele>
        <time>2021-06-29T21:55:30Z</time>
      </trkpt>
      <trkpt lat="45.7029" lon="4.56751">
        <ele>844.005</ele>
        <time>2021-06-29T21:55:32Z</time>
      </trkpt>
      <trkpt lat="45.70288" lon="4.56744">
        <ele>844.215</ele>
        <time>2021-06-29T21:55:33Z</time>
      </trkpt>
      <trkpt lat="45.70288" lon="4.56737">
        <ele>844.508</ele>
        <time>2021-06-29T21:55:34Z</time>
      </trkpt>
      <trkpt lat="45.70286" lon="4.56727">
        <ele>845.051</ele>
        <time>2021-06-29T21:55:36Z</time>
      </trkpt>
      <trkpt lat="45.70282" lon="4.56716">
        <ele>845.641</ele>
        <time>2021-06-29T21:55:38Z</time>
      </trkpt>
      <trkpt lat="45.70278" lon="4.56704">
        <ele>846.124</ele>
        <time>2021-06-29T21:55:40Z</time>
      </trkpt>
      <trkpt lat="45.70276" lon="4.56698">
        <ele>846.289</ele>
        <time>2021-06-29T21:55:41Z</time>
      </trkpt>
      <trkpt lat="45.70273" lon="4.56692">
        <ele>846.394</ele>
        <time>2021-06-29T21:55:42Z</time>
      </trkpt>
      <trkpt lat="45.70269" lon="4.56688">
        <ele>846.463</ele>
        <time>2021-06-29T21:55:43Z</time>
      </trkpt>
      <trkpt lat="45.70265" lon="4.56683">
        <ele>846.499</ele>
        <time>2021-06-29T21:55:44Z</time>
      </trkpt>
      <trkpt lat="45.70261" lon="4.56679">
        <ele>846.567</ele>
        <time>2021-06-29T21:55:45Z</time>
      </trkpt>
      <trkpt lat="45.70257" lon="4.56675">
        <ele>846.616</ele>
        <time>2021-06-29T21:55:46Z</time>
      </trkpt>
      <trkpt lat="45.70253" lon="4.56671">
        <ele>846.876</ele>
        <time>2021-06-29T21:55:47Z</time>
      </trkpt>
      <trkpt lat="45.70247" lon="4.56665">
        <ele>847.213</ele>
        <time>2021-06-29T21:55:49Z</time>
      </trkpt>
      <trkpt lat="45.70241" lon="4.56662">
        <ele>847.708</ele>
        <time>2021-06-29T21:55:51Z</time>
      </trkpt>
      <trkpt lat="45.70234" lon="4.56659">
        <ele>848.468</ele>
        <time>2021-06-29T21:55:53Z</time>
      </trkpt>
      <trkpt lat="45.70228" lon="4.56656">
        <ele>849.338</ele>
        <time>2021-06-29T21:55:55Z</time>
      </trkpt>
      <trkpt lat="45.70223" lon="4.56654">
        <ele>850.311</ele>
        <time>2021-06-29T21:55:57Z</time>
      </trkpt>
      <trkpt lat="45.70216" lon="4.5665">
        <ele>851.176</ele>
        <time>2021-06-29T21:55:59Z</time>
      </trkpt>
      <trkpt lat="45.70213" lon="4.56646">
        <ele>852.091</ele>
        <time>2021-06-29T21:56:01Z</time>
      </trkpt>
      <trkpt lat="45.70207" lon="4.56644">
        <ele>852.96</ele>
        <time>2021-06-29T21:56:03Z</time>
      </trkpt>
      <trkpt lat="45.70202" lon="4.56639">
        <ele>853.846</ele>
        <time>2021-06-29T21:56:04Z</time>
      </trkpt>
      <trkpt lat="45.70198" lon="4.56632">
        <ele>854.814</ele>
        <time>2021-06-29T21:56:06Z</time>
      </trkpt>
      <trkpt lat="45.70194" lon="4.56627">
        <ele>855.972</ele>
        <time>2021-06-29T21:56:08Z</time>
      </trkpt>
      <trkpt lat="45.7019" lon="4.56622">
        <ele>857.013</ele>
        <time>2021-06-29T21:56:10Z</time>
      </trkpt>
      <trkpt lat="45.70187" lon="4.56615">
        <ele>857.914</ele>
        <time>2021-06-29T21:56:12Z</time>
      </trkpt>
      <trkpt lat="45.70184" lon="4.56606">
        <ele>858.908</ele>
        <time>2021-06-29T21:56:15Z</time>
      </trkpt>
      <trkpt lat="45.7018" lon="4.56601">
        <ele>859.334</ele>
        <time>2021-06-29T21:56:17Z</time>
      </trkpt>
      <trkpt lat="45.70177" lon="4.56595">
        <ele>859.734</ele>
        <time>2021-06-29T21:56:19Z</time>
      </trkpt>
      <trkpt lat="45.70175" lon="4.56588">
        <ele>860.277</ele>
        <time>2021-06-29T21:56:21Z</time>
      </trkpt>
      <trkpt lat="45.70172" lon="4.56582">
        <ele>860.752</ele>
        <time>2021-06-29T21:56:23Z</time>
      </trkpt>
      <trkpt lat="45.7017" lon="4.56573">
        <ele>861.397</ele>
        <time>2021-06-29T21:56:25Z</time>
      </trkpt>
      <trkpt lat="45.70168" lon="4.56564">
        <ele>861.936</ele>
        <time>2021-06-29T21:56:27Z</time>
      </trkpt>
      <trkpt lat="45.70166" lon="4.56557">
        <ele>862.832</ele>
        <time>2021-06-29T21:56:29Z</time>
      </trkpt>
      <trkpt lat="45.70164" lon="4.5655">
        <ele>863.93</ele>
        <time>2021-06-29T21:56:31Z</time>
      </trkpt>
      <trkpt lat="45.7016" lon="4.56542">
        <ele>865.147</ele>
        <time>2021-06-29T21:56:33Z</time>
      </trkpt>
      <trkpt lat="45.70158" lon="4.56536">
        <ele>866.429</ele>
        <time>2021-06-29T21:56:35Z</time>
      </trkpt>
      <trkpt lat="45.70156" lon="4.56526">
        <ele>867.621</ele>
        <time>2021-06-29T21:56:37Z</time>
      </trkpt>
      <trkpt lat="45.70155" lon="4.56517">
        <ele>868.908</ele>
        <time>2021-06-29T21:56:39Z</time>
      </trkpt>
      <trkpt lat="45.70154" lon="4.56509">
        <ele>870.211</ele>
        <time>2021-06-29T21:56:41Z</time>
      </trkpt>
      <trkpt lat="45.70152" lon="4.56503">
        <ele>871.321</ele>
        <time>2021-06-29T21:56:43Z</time>
      </trkpt>
      <trkpt lat="45.70151" lon="4.56496">
        <ele>872.214</ele>
        <time>2021-06-29T21:56:45Z</time>
      </trkpt>
      <trkpt lat="45.70151" lon="4.56489">
        <ele>873.089</ele>
        <time>2021-06-29T21:56:47Z</time>
      </trkpt>
      <trkpt lat="45.7015" lon="4.56482">
        <ele>873.964</ele>
        <time>2021-06-29T21:56:50Z</time>
      </trkpt>
      <trkpt lat="45.70148" lon="4.56476">
        <ele>874.443</ele>
        <time>2021-06-29T21:56:53Z</time>
      </trkpt>
      <trkpt lat="45.70147" lon="4.56468">
        <ele>874.829</ele>
        <time>2021-06-29T21:56:57Z</time>
      </trkpt>
      <trkpt lat="45.70146" lon="4.56461">
        <ele>875.537</ele>
        <time>2021-06-29T21:57:39Z</time>
      </trkpt>
      <trkpt lat="45.70149" lon="4.56454">
        <ele>876.334</ele>
        <time>2021-06-29T21:57:49Z</time>
      </trkpt>
      <trkpt lat="45.70151" lon="4.56448">
        <ele>875.855</ele>
        <time>2021-06-29T21:58:29Z</time>
      </trkpt>
      <trkpt lat="45.70151" lon="4.56456">
        <ele>875.71</ele>
        <time>2021-06-29T21:58:37Z</time>
      </trkpt>
      <trkpt lat="45.70142" lon="4.56453">
        <ele>876.608</ele>
        <time>2021-06-29T21:58:48Z</time>
      </trkpt>
      <trkpt lat="45.70137" lon="4.56451">
        <ele>877.49</ele>
        <time>2021-06-29T21:58:53Z</time>
      </trkpt>
      <trkpt lat="45.70133" lon="4.56448">
        <ele>878.37</ele>
        <time>2021-06-29T21:58:57Z</time>
      </trkpt>
      <trkpt lat="45.70128" lon="4.56444">
        <ele>879.323</ele>
        <time>2021-06-29T21:59:02Z</time>
      </trkpt>
      <trkpt lat="45.70122" lon="4.56441">
        <ele>879.538</ele>
        <time>2021-06-29T21:59:06Z</time>
      </trkpt>
      <trkpt lat="45.70116" lon="4.56441">
        <ele>880.293</ele>
        <time>2021-06-29T21:59:10Z</time>
      </trkpt>
      <trkpt lat="45.70111" lon="4.56442">
        <ele>880.952</ele>
        <time>2021-06-29T21:59:14Z</time>
      </trkpt>
      <trkpt lat="45.70105" lon="4.56445">
        <ele>881.638</ele>
        <time>2021-06-29T21:59:18Z</time>
      </trkpt>
      <trkpt lat="45.70098" lon="4.56447">
        <ele>882.036</ele>
        <time>2021-06-29T21:59:21Z</time>
      </trkpt>
      <trkpt lat="45.70093" lon="4.5645">
        <ele>882.372</ele>
        <time>2021-06-29T21:59:24Z</time>
      </trkpt>
      <trkpt lat="45.70086" lon="4.56452">
        <ele>882.613</ele>
        <time>2021-06-29T21:59:27Z</time>
      </trkpt>
      <trkpt lat="45.70082" lon="4.56456">
        <ele>882.814</ele>
        <time>2021-06-29T21:59:29Z</time>
      </trkpt>
      <trkpt lat="45.70076" lon="4.5646">
        <ele>883.008</ele>
        <time>2021-06-29T21:59:31Z</time>
      </trkpt>
      <trkpt lat="45.7007" lon="4.56463">
        <ele>883.354</ele>
        <time>2021-06-29T21:59:34Z</time>
      </trkpt>
      <trkpt lat="45.70065" lon="4.56465">
        <ele>883.484</ele>
        <time>2021-06-29T21:59:36Z</time>
      </trkpt>
      <trkpt lat="45.70059" lon="4.56468">
        <ele>883.537</ele>
        <time>2021-06-29T21:59:38Z</time>
      </trkpt>
      <trkpt lat="45.70054" lon="4.56471">
        <ele>883.752</ele>
        <time>2021-06-29T21:59:40Z</time>
      </trkpt>
      <trkpt lat="45.70049" lon="4.56473">
        <ele>883.937</ele>
        <time>2021-06-29T21:59:42Z</time>
      </trkpt>
      <trkpt lat="45.70044" lon="4.56475">
        <ele>884.386</ele>
        <time>2021-06-29T21:59:45Z</time>
      </trkpt>
      <trkpt lat="45.70039" lon="4.56475">
        <ele>884.442</ele>
        <time>2021-06-29T21:59:50Z</time>
      </trkpt>
      <trkpt lat="45.70035" lon="4.56481">
        <ele>885.26</ele>
        <time>2021-06-29T22:00:01Z</time>
      </trkpt>
      <trkpt lat="45.70031" lon="4.56487">
        <ele>885.165</ele>
        <time>2021-06-29T22:00:04Z</time>
      </trkpt>
      <trkpt lat="45.70028" lon="4.56492">
        <ele>884.768</ele>
        <time>2021-06-29T22:00:06Z</time>
      </trkpt>
      <trkpt lat="45.70026" lon="4.56499">
        <ele>884.014</ele>
        <time>2021-06-29T22:00:08Z</time>
      </trkpt>
      <trkpt lat="45.70023" lon="4.56505">
        <ele>883.308</ele>
        <time>2021-06-29T22:00:10Z</time>
      </trkpt>
      <trkpt lat="45.7002" lon="4.56513">
        <ele>882.733</ele>
        <time>2021-06-29T22:00:12Z</time>
      </trkpt>
      <trkpt lat="45.70018" lon="4.56521">
        <ele>882.353</ele>
        <time>2021-06-29T22:00:14Z</time>
      </trkpt>
      <trkpt lat="45.70014" lon="4.56528">
        <ele>882.086</ele>
        <time>2021-06-29T22:00:16Z</time>
      </trkpt>
      <trkpt lat="45.70011" lon="4.56534">
        <ele>881.811</ele>
        <time>2021-06-29T22:00:18Z</time>
      </trkpt>
      <trkpt lat="45.70008" lon="4.56541">
        <ele>881.736</ele>
        <time>2021-06-29T22:00:20Z</time>
      </trkpt>
      <trkpt lat="45.70002" lon="4.5655">
        <ele>882.045</ele>
        <time>2021-06-29T22:00:22Z</time>
      </trkpt>
      <trkpt lat="45.69997" lon="4.56555">
        <ele>882.331</ele>
        <time>2021-06-29T22:00:23Z</time>
      </trkpt>
      <trkpt lat="45.69993" lon="4.56559">
        <ele>882.719</ele>
        <time>2021-06-29T22:00:24Z</time>
      </trkpt>
      <trkpt lat="45.69988" lon="4.56564">
        <ele>883.259</ele>
        <time>2021-06-29T22:00:25Z</time>
      </trkpt>
      <trkpt lat="45.69983" lon="4.56567">
        <ele>883.703</ele>
        <time>2021-06-29T22:00:26Z</time>
      </trkpt>
      <trkpt lat="45.69981" lon="4.56574">
        <ele>885.223</ele>
        <time>2021-06-29T22:00:29Z</time>
      </trkpt>
      <trkpt lat="45.69977" lon="4.56578">
        <ele>886.108</ele>
        <time>2021-06-29T22:00:33Z</time>
      </trkpt>
      <trkpt lat="45.69973" lon="4.56584">
        <ele>886.492</ele>
        <time>2021-06-29T22:00:35Z</time>
      </trkpt>
      <trkpt lat="45.6997" lon="4.56592">
        <ele>886.932</ele>
        <time>2021-06-29T22:00:37Z</time>
      </trkpt>
      <trkpt lat="45.69965" lon="4.56598">
        <ele>887.435</ele>
        <time>2021-06-29T22:00:39Z</time>
      </trkpt>
      <trkpt lat="45.6996" lon="4.56606">
        <ele>887.98</ele>
        <time>2021-06-29T22:00:41Z</time>
      </trkpt>
      <trkpt lat="45.69956" lon="4.56611">
        <ele>888.125</ele>
        <time>2021-06-29T22:00:42Z</time>
      </trkpt>
      <trkpt lat="45.69951" lon="4.5662">
        <ele>888.774</ele>
        <time>2021-06-29T22:00:44Z</time>
      </trkpt>
      <trkpt lat="45.69947" lon="4.56625">
        <ele>889.06</ele>
        <time>2021-06-29T22:00:45Z</time>
      </trkpt>
      <trkpt lat="45.6994" lon="4.56634">
        <ele>889.518</ele>
        <time>2021-06-29T22:00:47Z</time>
      </trkpt>
      <trkpt lat="45.69935" lon="4.56642">
        <ele>890.077</ele>
        <time>2021-06-29T22:00:49Z</time>
      </trkpt>
      <trkpt lat="45.69929" lon="4.56652">
        <ele>890.561</ele>
        <time>2021-06-29T22:00:51Z</time>
      </trkpt>
      <trkpt lat="45.69926" lon="4.56658">
        <ele>890.727</ele>
        <time>2021-06-29T22:00:52Z</time>
      </trkpt>
      <trkpt lat="45.69924" lon="4.56663">
        <ele>891.008</ele>
        <time>2021-06-29T22:00:53Z</time>
      </trkpt>
      <trkpt lat="45.69918" lon="4.56675">
        <ele>891.684</ele>
        <time>2021-06-29T22:00:55Z</time>
      </trkpt>
      <trkpt lat="45.69916" lon="4.5668">
        <ele>892.134</ele>
        <time>2021-06-29T22:00:56Z</time>
      </trkpt>
      <trkpt lat="45.69913" lon="4.56687">
        <ele>892.897</ele>
        <time>2021-06-29T22:00:57Z</time>
      </trkpt>
      <trkpt lat="45.69909" lon="4.56693">
        <ele>894.122</ele>
        <time>2021-06-29T22:00:59Z</time>
      </trkpt>
      <trkpt lat="45.69907" lon="4.56699">
        <ele>894.997</ele>
        <time>2021-06-29T22:01:01Z</time>
      </trkpt>
      <trkpt lat="45.69902" lon="4.56704">
        <ele>895.136</ele>
        <time>2021-06-29T22:01:03Z</time>
      </trkpt>
      <trkpt lat="45.69898" lon="4.5671">
        <ele>895.462</ele>
        <time>2021-06-29T22:01:05Z</time>
      </trkpt>
      <trkpt lat="45.69897" lon="4.56717">
        <ele>895.77</ele>
        <time>2021-06-29T22:01:07Z</time>
      </trkpt>
      <trkpt lat="45.69893" lon="4.56724">
        <ele>896.074</ele>
        <time>2021-06-29T22:01:09Z</time>
      </trkpt>
      <trkpt lat="45.69887" lon="4.56731">
        <ele>896.156</ele>
        <time>2021-06-29T22:01:11Z</time>
      </trkpt>
      <trkpt lat="45.69883" lon="4.56734">
        <ele>896.121</ele>
        <time>2021-06-29T22:01:13Z</time>
      </trkpt>
      <trkpt lat="45.69879" lon="4.56739">
        <ele>896.108</ele>
        <time>2021-06-29T22:01:15Z</time>
      </trkpt>
      <trkpt lat="45.69875" lon="4.56742">
        <ele>896.154</ele>
        <time>2021-06-29T22:01:17Z</time>
      </trkpt>
      <trkpt lat="45.69869" lon="4.56746">
        <ele>896.244</ele>
        <time>2021-06-29T22:01:19Z</time>
      </trkpt>
      <trkpt lat="45.69863" lon="4.56752">
        <ele>896.427</ele>
        <time>2021-06-29T22:01:21Z</time>
      </trkpt>
      <trkpt lat="45.69857" lon="4.56754">
        <ele>896.542</ele>
        <time>2021-06-29T22:01:23Z</time>
      </trkpt>
      <trkpt lat="45.69852" lon="4.56759">
        <ele>896.537</ele>
        <time>2021-06-29T22:01:25Z</time>
      </trkpt>
      <trkpt lat="45.69848" lon="4.56763">
        <ele>896.566</ele>
        <time>2021-06-29T22:01:27Z</time>
      </trkpt>
      <trkpt lat="45.69842" lon="4.56772">
        <ele>896.452</ele>
        <time>2021-06-29T22:01:34Z</time>
      </trkpt>
      <trkpt lat="45.69838" lon="4.56776">
        <ele>896.47</ele>
        <time>2021-06-29T22:01:36Z</time>
      </trkpt>
      <trkpt lat="45.69832" lon="4.56781">
        <ele>896.486</ele>
        <time>2021-06-29T22:01:38Z</time>
      </trkpt>
      <trkpt lat="45.69827" lon="4.56786">
        <ele>896.56</ele>
        <time>2021-06-29T22:01:40Z</time>
      </trkpt>
      <trkpt lat="45.69822" lon="4.56792">
        <ele>896.526</ele>
        <time>2021-06-29T22:01:42Z</time>
      </trkpt>
      <trkpt lat="45.69815" lon="4.56799">
        <ele>896.608</ele>
        <time>2021-06-29T22:01:44Z</time>
      </trkpt>
      <trkpt lat="45.6981" lon="4.56806">
        <ele>896.715</ele>
        <time>2021-06-29T22:01:46Z</time>
      </trkpt>
      <trkpt lat="45.69805" lon="4.56813">
        <ele>896.735</ele>
        <time>2021-06-29T22:01:48Z</time>
      </trkpt>
      <trkpt lat="45.69801" lon="4.56817">
        <ele>896.448</ele>
        <time>2021-06-29T22:01:50Z</time>
      </trkpt>
      <trkpt lat="45.69796" lon="4.56822">
        <ele>895.853</ele>
        <time>2021-06-29T22:01:52Z</time>
      </trkpt>
      <trkpt lat="45.69791" lon="4.56828">
        <ele>895.268</ele>
        <time>2021-06-29T22:01:54Z</time>
      </trkpt>
      <trkpt lat="45.69786" lon="4.56836">
        <ele>894.757</ele>
        <time>2021-06-29T22:01:56Z</time>
      </trkpt>
      <trkpt lat="45.69781" lon="4.56843">
        <ele>894.263</ele>
        <time>2021-06-29T22:01:58Z</time>
      </trkpt>
      <trkpt lat="45.69777" lon="4.56849">
        <ele>893.711</ele>
        <time>2021-06-29T22:02:00Z</time>
      </trkpt>
      <trkpt lat="45.69774" lon="4.56855">
        <ele>893.218</ele>
        <time>2021-06-29T22:02:02Z</time>
      </trkpt>
      <trkpt lat="45.6977" lon="4.56863">
        <ele>892.798</ele>
        <time>2021-06-29T22:02:04Z</time>
      </trkpt>
      <trkpt lat="45.69766" lon="4.56872">
        <ele>892.217</ele>
        <time>2021-06-29T22:02:06Z</time>
      </trkpt>
      <trkpt lat="45.69761" lon="4.56879">
        <ele>891.808</ele>
        <time>2021-06-29T22:02:08Z</time>
      </trkpt>
      <trkpt lat="45.69756" lon="4.56885">
        <ele>891.468</ele>
        <time>2021-06-29T22:02:10Z</time>
      </trkpt>
      <trkpt lat="45.69752" lon="4.56889">
        <ele>891.238</ele>
        <time>2021-06-29T22:02:11Z</time>
      </trkpt>
      <trkpt lat="45.69746" lon="4.56896">
        <ele>890.821</ele>
        <time>2021-06-29T22:02:13Z</time>
      </trkpt>
      <trkpt lat="45.69742" lon="4.56901">
        <ele>890.466</ele>
        <time>2021-06-29T22:02:15Z</time>
      </trkpt>
      <trkpt lat="45.69739" lon="4.56907">
        <ele>889.831</ele>
        <time>2021-06-29T22:02:17Z</time>
      </trkpt>
      <trkpt lat="45.69735" lon="4.56912">
        <ele>888.73</ele>
        <time>2021-06-29T22:02:21Z</time>
      </trkpt>
      <trkpt lat="45.69733" lon="4.56918">
        <ele>888.366</ele>
        <time>2021-06-29T22:02:24Z</time>
      </trkpt>
      <trkpt lat="45.6973" lon="4.56923">
        <ele>887.934</ele>
        <time>2021-06-29T22:02:27Z</time>
      </trkpt>
      <trkpt lat="45.69727" lon="4.56929">
        <ele>887.437</ele>
        <time>2021-06-29T22:02:30Z</time>
      </trkpt>
      <trkpt lat="45.69725" lon="4.56936">
        <ele>886.749</ele>
        <time>2021-06-29T22:02:33Z</time>
      </trkpt>
      <trkpt lat="45.69722" lon="4.56942">
        <ele>885.913</ele>
        <time>2021-06-29T22:02:36Z</time>
      </trkpt>
      <trkpt lat="45.69718" lon="4.56945">
        <ele>885.108</ele>
        <time>2021-06-29T22:02:40Z</time>
      </trkpt>
      <trkpt lat="45.69713" lon="4.56948">
        <ele>884.36</ele>
        <time>2021-06-29T22:02:43Z</time>
      </trkpt>
      <trkpt lat="45.6971" lon="4.56953">
        <ele>882.86</ele>
        <time>2021-06-29T22:02:55Z</time>
      </trkpt>
      <trkpt lat="45.69705" lon="4.56955">
        <ele>882.413</ele>
        <time>2021-06-29T22:03:00Z</time>
      </trkpt>
      <trkpt lat="45.69701" lon="4.56959">
        <ele>881.368</ele>
        <time>2021-06-29T22:03:04Z</time>
      </trkpt>
      <trkpt lat="45.69697" lon="4.56963">
        <ele>880.513</ele>
        <time>2021-06-29T22:03:07Z</time>
      </trkpt>
      <trkpt lat="45.69692" lon="4.56964">
        <ele>879.412</ele>
        <time>2021-06-29T22:03:11Z</time>
      </trkpt>
      <trkpt lat="45.69687" lon="4.56966">
        <ele>878.168</ele>
        <time>2021-06-29T22:03:16Z</time>
      </trkpt>
      <trkpt lat="45.69682" lon="4.56969">
        <ele>877.166</ele>
        <time>2021-06-29T22:03:20Z</time>
      </trkpt>
      <trkpt lat="45.69677" lon="4.56972">
        <ele>876.042</ele>
        <time>2021-06-29T22:03:25Z</time>
      </trkpt>
      <trkpt lat="45.69674" lon="4.56977">
        <ele>875.122</ele>
        <time>2021-06-29T22:03:30Z</time>
      </trkpt>
      <trkpt lat="45.69672" lon="4.56983">
        <ele>874.714</ele>
        <time>2021-06-29T22:03:34Z</time>
      </trkpt>
      <trkpt lat="45.6967" lon="4.5699">
        <ele>873.508</ele>
        <time>2021-06-29T22:03:39Z</time>
      </trkpt>
      <trkpt lat="45.69669" lon="4.56997">
        <ele>872.431</ele>
        <time>2021-06-29T22:03:43Z</time>
      </trkpt>
      <trkpt lat="45.69669" lon="4.57004">
        <ele>871.841</ele>
        <time>2021-06-29T22:03:46Z</time>
      </trkpt>
      <trkpt lat="45.69669" lon="4.5701">
        <ele>870.774</ele>
        <time>2021-06-29T22:03:50Z</time>
      </trkpt>
      <trkpt lat="45.69667" lon="4.57017">
        <ele>869.979</ele>
        <time>2021-06-29T22:03:54Z</time>
      </trkpt>
      <trkpt lat="45.69667" lon="4.57024">
        <ele>868.794</ele>
        <time>2021-06-29T22:03:59Z</time>
      </trkpt>
      <trkpt lat="45.69666" lon="4.57031">
        <ele>868.143</ele>
        <time>2021-06-29T22:04:02Z</time>
      </trkpt>
      <trkpt lat="45.69666" lon="4.57039">
        <ele>867.539</ele>
        <time>2021-06-29T22:04:05Z</time>
      </trkpt>
      <trkpt lat="45.69666" lon="4.57048">
        <ele>866.977</ele>
        <time>2021-06-29T22:04:08Z</time>
      </trkpt>
      <trkpt lat="45.69668" lon="4.57055">
        <ele>866.045</ele>
        <time>2021-06-29T22:04:12Z</time>
      </trkpt>
      <trkpt lat="45.69668" lon="4.57062">
        <ele>865.347</ele>
        <time>2021-06-29T22:04:16Z</time>
      </trkpt>
      <trkpt lat="45.6967" lon="4.5707">
        <ele>864.511</ele>
        <time>2021-06-29T22:04:20Z</time>
      </trkpt>
      <trkpt lat="45.69671" lon="4.57078">
        <ele>863.308</ele>
        <time>2021-06-29T22:04:25Z</time>
      </trkpt>
      <trkpt lat="45.69671" lon="4.57085">
        <ele>862.831</ele>
        <time>2021-06-29T22:04:28Z</time>
      </trkpt>
      <trkpt lat="45.69669" lon="4.57092">
        <ele>862.431</ele>
        <time>2021-06-29T22:04:33Z</time>
      </trkpt>
      <trkpt lat="45.69666" lon="4.57098">
        <ele>861.724</ele>
        <time>2021-06-29T22:04:36Z</time>
      </trkpt>
      <trkpt lat="45.69663" lon="4.57104">
        <ele>860.889</ele>
        <time>2021-06-29T22:04:39Z</time>
      </trkpt>
      <trkpt lat="45.6966" lon="4.57109">
        <ele>860.234</ele>
        <time>2021-06-29T22:04:41Z</time>
      </trkpt>
      <trkpt lat="45.69656" lon="4.57116">
        <ele>859.163</ele>
        <time>2021-06-29T22:04:45Z</time>
      </trkpt>
      <trkpt lat="45.69653" lon="4.57122">
        <ele>857.939</ele>
        <time>2021-06-29T22:04:49Z</time>
      </trkpt>
      <trkpt lat="45.69649" lon="4.57127">
        <ele>856.997</ele>
        <time>2021-06-29T22:04:52Z</time>
      </trkpt>
      <trkpt lat="45.69645" lon="4.57132">
        <ele>856.198</ele>
        <time>2021-06-29T22:04:55Z</time>
      </trkpt>
      <trkpt lat="45.69641" lon="4.57138">
        <ele>855.215</ele>
        <time>2021-06-29T22:04:58Z</time>
      </trkpt>
      <trkpt lat="45.69637" lon="4.57144">
        <ele>854.226</ele>
        <time>2021-06-29T22:05:01Z</time>
      </trkpt>
      <trkpt lat="45.69633" lon="4.57147">
        <ele>853.708</ele>
        <time>2021-06-29T22:05:03Z</time>
      </trkpt>
      <trkpt lat="45.69629" lon="4.5715">
        <ele>853.256</ele>
        <time>2021-06-29T22:05:05Z</time>
      </trkpt>
      <trkpt lat="45.69624" lon="4.57155">
        <ele>852.476</ele>
        <time>2021-06-29T22:05:08Z</time>
      </trkpt>
      <trkpt lat="45.69619" lon="4.57159">
        <ele>851.559</ele>
        <time>2021-06-29T22:05:11Z</time>
      </trkpt>
      <trkpt lat="45.69615" lon="4.57162">
        <ele>850.194</ele>
        <time>2021-06-29T22:05:16Z</time>
      </trkpt>
      <trkpt lat="45.69612" lon="4.57168">
        <ele>848.939</ele>
        <time>2021-06-29T22:05:21Z</time>
      </trkpt>
      <trkpt lat="45.69611" lon="4.57175">
        <ele>847.838</ele>
        <time>2021-06-29T22:05:25Z</time>
      </trkpt>
      <trkpt lat="45.69609" lon="4.57183">
        <ele>846.754</ele>
        <time>2021-06-29T22:05:29Z</time>
      </trkpt>
      <trkpt lat="45.69606" lon="4.57189">
        <ele>845.852</ele>
        <time>2021-06-29T22:05:32Z</time>
      </trkpt>
      <trkpt lat="45.69605" lon="4.57195">
        <ele>844.833</ele>
        <time>2021-06-29T22:05:35Z</time>
      </trkpt>
      <trkpt lat="45.69603" lon="4.57202">
        <ele>844.123</ele>
        <time>2021-06-29T22:05:37Z</time>
      </trkpt>
      <trkpt lat="45.69601" lon="4.5721">
        <ele>843.215</ele>
        <time>2021-06-29T22:05:40Z</time>
      </trkpt>
      <trkpt lat="45.69597" lon="4.57217">
        <ele>842.108</ele>
        <time>2021-06-29T22:05:43Z</time>
      </trkpt>
      <trkpt lat="45.69594" lon="4.57223">
        <ele>840.75</ele>
        <time>2021-06-29T22:05:47Z</time>
      </trkpt>
      <trkpt lat="45.69592" lon="4.57229">
        <ele>839.92</ele>
        <time>2021-06-29T22:05:50Z</time>
      </trkpt>
      <trkpt lat="45.6959" lon="4.57236">
        <ele>839.283</ele>
        <time>2021-06-29T22:05:53Z</time>
      </trkpt>
      <trkpt lat="45.69588" lon="4.57243">
        <ele>838.088</ele>
        <time>2021-06-29T22:05:58Z</time>
      </trkpt>
      <trkpt lat="45.69585" lon="4.57249">
        <ele>837.883</ele>
        <time>2021-06-29T22:05:59Z</time>
      </trkpt>
      <trkpt lat="45.69583" lon="4.57255">
        <ele>837.552</ele>
        <time>2021-06-29T22:06:00Z</time>
      </trkpt>
      <trkpt lat="45.69582" lon="4.57263">
        <ele>836.268</ele>
        <time>2021-06-29T22:06:02Z</time>
      </trkpt>
      <trkpt lat="45.69581" lon="4.57271">
        <ele>833.826</ele>
        <time>2021-06-29T22:06:05Z</time>
      </trkpt>
      <trkpt lat="45.69577" lon="4.57278">
        <ele>832.494</ele>
        <time>2021-06-29T22:06:08Z</time>
      </trkpt>
      <trkpt lat="45.69573" lon="4.57284">
        <ele>831.757</ele>
        <time>2021-06-29T22:06:10Z</time>
      </trkpt>
      <trkpt lat="45.6957" lon="4.5729">
        <ele>830.922</ele>
        <time>2021-06-29T22:06:12Z</time>
      </trkpt>
      <trkpt lat="45.69564" lon="4.57295">
        <ele>829.908</ele>
        <time>2021-06-29T22:06:14Z</time>
      </trkpt>
      <trkpt lat="45.6956" lon="4.573">
        <ele>828.766</ele>
        <time>2021-06-29T22:06:16Z</time>
      </trkpt>
      <trkpt lat="45.69554" lon="4.57304">
        <ele>826.836</ele>
        <time>2021-06-29T22:06:19Z</time>
      </trkpt>
      <trkpt lat="45.69549" lon="4.57307">
        <ele>825.899</ele>
        <time>2021-06-29T22:06:21Z</time>
      </trkpt>
      <trkpt lat="45.69544" lon="4.5731">
        <ele>824.984</ele>
        <time>2021-06-29T22:06:23Z</time>
      </trkpt>
      <trkpt lat="45.6954" lon="4.57313">
        <ele>823.969</ele>
        <time>2021-06-29T22:06:25Z</time>
      </trkpt>
      <trkpt lat="45.69536" lon="4.57318">
        <ele>822.138</ele>
        <time>2021-06-29T22:06:28Z</time>
      </trkpt>
      <trkpt lat="45.69532" lon="4.57322">
        <ele>820.414</ele>
        <time>2021-06-29T22:06:33Z</time>
      </trkpt>
      <trkpt lat="45.6953" lon="4.57329">
        <ele>820.012</ele>
        <time>2021-06-29T22:06:36Z</time>
      </trkpt>
      <trkpt lat="45.69528" lon="4.57337">
        <ele>819.331</ele>
        <time>2021-06-29T22:06:39Z</time>
      </trkpt>
      <trkpt lat="45.69527" lon="4.57346">
        <ele>818.461</ele>
        <time>2021-06-29T22:06:42Z</time>
      </trkpt>
      <trkpt lat="45.69524" lon="4.57354">
        <ele>817.207</ele>
        <time>2021-06-29T22:06:45Z</time>
      </trkpt>
      <trkpt lat="45.69522" lon="4.57364">
        <ele>815.908</ele>
        <time>2021-06-29T22:06:48Z</time>
      </trkpt>
      <trkpt lat="45.6952" lon="4.5737">
        <ele>815.03</ele>
        <time>2021-06-29T22:06:50Z</time>
      </trkpt>
      <trkpt lat="45.69517" lon="4.57379">
        <ele>814.08</ele>
        <time>2021-06-29T22:06:52Z</time>
      </trkpt>
      <trkpt lat="45.69514" lon="4.57387">
        <ele>812.853</ele>
        <time>2021-06-29T22:06:54Z</time>
      </trkpt>
      <trkpt lat="45.69511" lon="4.57395">
        <ele>810.688</ele>
        <time>2021-06-29T22:06:57Z</time>
      </trkpt>
      <trkpt lat="45.69509" lon="4.57401">
        <ele>808.813</ele>
        <time>2021-06-29T22:07:00Z</time>
      </trkpt>
      <trkpt lat="45.69506" lon="4.57411">
        <ele>807.652</ele>
        <time>2021-06-29T22:07:03Z</time>
      </trkpt>
      <trkpt lat="45.69502" lon="4.57421">
        <ele>806.778</ele>
        <time>2021-06-29T22:07:05Z</time>
      </trkpt>
      <trkpt lat="45.69499" lon="4.5743">
        <ele>805.376</ele>
        <time>2021-06-29T22:07:07Z</time>
      </trkpt>
      <trkpt lat="45.69497" lon="4.57438">
        <ele>803.525</ele>
        <time>2021-06-29T22:07:09Z</time>
      </trkpt>
      <trkpt lat="45.69496" lon="4.57446">
        <ele>801.126</ele>
        <time>2021-06-29T22:07:12Z</time>
      </trkpt>
      <trkpt lat="45.69494" lon="4.57453">
        <ele>799.608</ele>
        <time>2021-06-29T22:07:15Z</time>
      </trkpt>
      <trkpt lat="45.69494" lon="4.57463">
        <ele>798.308</ele>
        <time>2021-06-29T22:07:19Z</time>
      </trkpt>
      <trkpt lat="45.69493" lon="4.57471">
        <ele>797.529</ele>
        <time>2021-06-29T22:07:21Z</time>
      </trkpt>
      <trkpt lat="45.69492" lon="4.5748">
        <ele>795.469</ele>
        <time>2021-06-29T22:07:30Z</time>
      </trkpt>
      <trkpt lat="45.69492" lon="4.57489">
        <ele>795.332</ele>
        <time>2021-06-29T22:07:32Z</time>
      </trkpt>
      <trkpt lat="45.69491" lon="4.575">
        <ele>794.927</ele>
        <time>2021-06-29T22:07:34Z</time>
      </trkpt>
      <trkpt lat="45.6949" lon="4.57509">
        <ele>794.062</ele>
        <time>2021-06-29T22:07:36Z</time>
      </trkpt>
      <trkpt lat="45.6949" lon="4.57516">
        <ele>793.061</ele>
        <time>2021-06-29T22:07:38Z</time>
      </trkpt>
      <trkpt lat="45.6949" lon="4.57526">
        <ele>791.817</ele>
        <time>2021-06-29T22:07:41Z</time>
      </trkpt>
      <trkpt lat="45.69489" lon="4.57534">
        <ele>790.245</ele>
        <time>2021-06-29T22:07:49Z</time>
      </trkpt>
      <trkpt lat="45.69494" lon="4.57543">
        <ele>790.016</ele>
        <time>2021-06-29T22:07:51Z</time>
      </trkpt>
      <trkpt lat="45.695" lon="4.57545">
        <ele>789.976</ele>
        <time>2021-06-29T22:07:52Z</time>
      </trkpt>
      <trkpt lat="45.69507" lon="4.57545">
        <ele>789.913</ele>
        <time>2021-06-29T22:07:53Z</time>
      </trkpt>
      <trkpt lat="45.69515" lon="4.57544">
        <ele>789.908</ele>
        <time>2021-06-29T22:07:54Z</time>
      </trkpt>
      <trkpt lat="45.69524" lon="4.57542">
        <ele>789.988</ele>
        <time>2021-06-29T22:07:55Z</time>
      </trkpt>
    </trkseg>
  </trk>
  <trk>
    <name><![CDATA[Yzeron - Montromant]]></name>
    <extensions>
      <line xmlns="http://www.topografix.com/GPX/gpx_style/0/2">
        <color>FFFF00</color>
        <width>4</width>
      </line>
    </extensions>
    <trkseg>
      <trkpt lat="45.70468" lon="4.57697">
        <ele>779.041</ele>
        <time>2021-06-29T20:14:20Z</time>
      </trkpt>
      <trkpt lat="45.70468" lon="4.57697">
        <ele>779.041</ele>
        <time>2021-06-29T20:14:20Z</time>
      </trkpt>
      <trkpt lat="45.70463" lon="4.5769">
        <ele>779.181</ele>
        <time>2021-06-29T20:14:22Z</time>
      </trkpt>
      <trkpt lat="45.7046" lon="4.57684">
        <ele>779.209</ele>
        <time>2021-06-29T20:14:23Z</time>
      </trkpt>
      <trkpt lat="45.70456" lon="4.57678">
        <ele>779.708</ele>
        <time>2021-06-29T20:14:24Z</time>
      </trkpt>
      <trkpt lat="45.70453" lon="4.57673">
        <ele>780.241</ele>
        <time>2021-06-29T20:14:25Z</time>
      </trkpt>
      <trkpt lat="45.7045" lon="4.57666">
        <ele>780.831</ele>
        <time>2021-06-29T20:14:26Z</time>
      </trkpt>
      <trkpt lat="45.70447" lon="4.57659">
        <ele>781.464</ele>
        <time>2021-06-29T20:14:27Z</time>
      </trkpt>
      <trkpt lat="45.70444" lon="4.57653">
        <ele>781.758</ele>
        <time>2021-06-29T20:14:28Z</time>
      </trkpt>
      <trkpt lat="45.70442" lon="4.57646">
        <ele>782.535</ele>
        <time>2021-06-29T20:14:29Z</time>
      </trkpt>
      <trkpt lat="45.70439" lon="4.57639">
        <ele>783.328</ele>
        <time>2021-06-29T20:14:30Z</time>
      </trkpt>
      <trkpt lat="45.70436" lon="4.57633">
        <ele>784.185</ele>
        <time>2021-06-29T20:14:31Z</time>
      </trkpt>
      <trkpt lat="45.70432" lon="4.57628">
        <ele>784.92</ele>
        <time>2021-06-29T20:14:32Z</time>
      </trkpt>
      <trkpt lat="45.70428" lon="4.57623">
        <ele>785.741</ele>
        <time>2021-06-29T20:14:33Z</time>
      </trkpt>
      <trkpt lat="45.70424" lon="4.57618">
        <ele>786.481</ele>
        <time>2021-06-29T20:14:34Z</time>
      </trkpt>
      <trkpt lat="45.70417" lon="4.57611">
        <ele>787.809</ele>
        <time>2021-06-29T20:14:36Z</time>
      </trkpt>
      <trkpt lat="45.70414" lon="4.57607">
        <ele>788.608</ele>
        <time>2021-06-29T20:14:37Z</time>
      </trkpt>
      <trkpt lat="45.7041" lon="4.57602">
        <ele>789.471</ele>
        <time>2021-06-29T20:14:38Z</time>
      </trkpt>
      <trkpt lat="45.70407" lon="4.57597">
        <ele>790.271</ele>
        <time>2021-06-29T20:14:39Z</time>
      </trkpt>
      <trkpt lat="45.70404" lon="4.57592">
        <ele>791.044</ele>
        <time>2021-06-29T20:14:40Z</time>
      </trkpt>
      <trkpt lat="45.70402" lon="4.57586">
        <ele>791.898</ele>
        <time>2021-06-29T20:14:41Z</time>
      </trkpt>
      <trkpt lat="45.704" lon="4.5758">
        <ele>792.665</ele>
        <time>2021-06-29T20:14:42Z</time>
      </trkpt>
      <trkpt lat="45.70399" lon="4.57573">
        <ele>793.528</ele>
        <time>2021-06-29T20:14:43Z</time>
      </trkpt>
      <trkpt lat="45.70398" lon="4.57566">
        <ele>794.455</ele>
        <time>2021-06-29T20:14:44Z</time>
      </trkpt>
      <trkpt lat="45.70396" lon="4.57559">
        <ele>795.37</ele>
        <time>2021-06-29T20:14:45Z</time>
      </trkpt>
      <trkpt lat="45.70393" lon="4.57553">
        <ele>796.271</ele>
        <time>2021-06-29T20:14:46Z</time>
      </trkpt>
      <trkpt lat="45.70391" lon="4.57545">
        <ele>796.941</ele>
        <time>2021-06-29T20:14:47Z</time>
      </trkpt>
      <trkpt lat="45.70389" lon="4.57538">
        <ele>797.615</ele>
        <time>2021-06-29T20:14:48Z</time>
      </trkpt>
      <trkpt lat="45.70388" lon="4.57531">
        <ele>798.108</ele>
        <time>2021-06-29T20:14:49Z</time>
      </trkpt>
      <trkpt lat="45.70387" lon="4.57524">
        <ele>798.724</ele>
        <time>2021-06-29T20:14:50Z</time>
      </trkpt>
      <trkpt lat="45.70385" lon="4.57517">
        <ele>799.294</ele>
        <time>2021-06-29T20:14:51Z</time>
      </trkpt>
      <trkpt lat="45.70383" lon="4.5751">
        <ele>799.877</ele>
        <time>2021-06-29T20:14:52Z</time>
      </trkpt>
      <trkpt lat="45.7038" lon="4.57499">
        <ele>800.881</ele>
        <time>2021-06-29T20:14:53Z</time>
      </trkpt>
      <trkpt lat="45.70377" lon="4.5749">
        <ele>801.818</ele>
        <time>2021-06-29T20:14:55Z</time>
      </trkpt>
      <trkpt lat="45.70376" lon="4.5748">
        <ele>802.991</ele>
        <time>2021-06-29T20:14:57Z</time>
      </trkpt>
      <trkpt lat="45.70373" lon="4.57468">
        <ele>804.098</ele>
        <time>2021-06-29T20:14:59Z</time>
      </trkpt>
      <trkpt lat="45.7037" lon="4.57457">
        <ele>805.073</ele>
        <time>2021-06-29T20:15:01Z</time>
      </trkpt>
      <trkpt lat="45.70368" lon="4.57447">
        <ele>805.796</ele>
        <time>2021-06-29T20:15:03Z</time>
      </trkpt>
      <trkpt lat="45.70366" lon="4.57437">
        <ele>806.231</ele>
        <time>2021-06-29T20:15:05Z</time>
      </trkpt>
      <trkpt lat="45.70366" lon="4.57422">
        <ele>806.824</ele>
        <time>2021-06-29T20:15:07Z</time>
      </trkpt>
      <trkpt lat="45.70366" lon="4.57414">
        <ele>807.208</ele>
        <time>2021-06-29T20:15:08Z</time>
      </trkpt>
      <trkpt lat="45.70366" lon="4.57405">
        <ele>807.736</ele>
        <time>2021-06-29T20:15:09Z</time>
      </trkpt>
      <trkpt lat="45.70366" lon="4.57396">
        <ele>808.226</ele>
        <time>2021-06-29T20:15:10Z</time>
      </trkpt>
      <trkpt lat="45.70366" lon="4.57385">
        <ele>808.869</ele>
        <time>2021-06-29T20:15:11Z</time>
      </trkpt>
      <trkpt lat="45.70366" lon="4.57371">
        <ele>809.493</ele>
        <time>2021-06-29T20:15:12Z</time>
      </trkpt>
      <trkpt lat="45.70367" lon="4.57359">
        <ele>810.09</ele>
        <time>2021-06-29T20:15:13Z</time>
      </trkpt>
      <trkpt lat="45.70369" lon="4.57349">
        <ele>810.413</ele>
        <time>2021-06-29T20:15:14Z</time>
      </trkpt>
      <trkpt lat="45.7037" lon="4.57343">
        <ele>810.86</ele>
        <time>2021-06-29T20:15:15Z</time>
      </trkpt>
      <trkpt lat="45.7037" lon="4.57336">
        <ele>811.245</ele>
        <time>2021-06-29T20:15:16Z</time>
      </trkpt>
      <trkpt lat="45.70371" lon="4.57326">
        <ele>811.588</ele>
        <time>2021-06-29T20:15:17Z</time>
      </trkpt>
      <trkpt lat="45.70372" lon="4.57317">
        <ele>811.824</ele>
        <time>2021-06-29T20:15:18Z</time>
      </trkpt>
      <trkpt lat="45.70372" lon="4.57307">
        <ele>812.226</ele>
        <time>2021-06-29T20:15:19Z</time>
      </trkpt>
      <trkpt lat="45.70373" lon="4.57297">
        <ele>812.708</ele>
        <time>2021-06-29T20:15:20Z</time>
      </trkpt>
      <trkpt lat="45.70372" lon="4.57288">
        <ele>813.165</ele>
        <time>2021-06-29T20:15:21Z</time>
      </trkpt>
      <trkpt lat="45.70372" lon="4.57278">
        <ele>813.595</ele>
        <time>2021-06-29T20:15:22Z</time>
      </trkpt>
      <trkpt lat="45.70372" lon="4.57269">
        <ele>814.088</ele>
        <time>2021-06-29T20:15:23Z</time>
      </trkpt>
      <trkpt lat="45.70372" lon="4.57261">
        <ele>814.572</ele>
        <time>2021-06-29T20:15:24Z</time>
      </trkpt>
      <trkpt lat="45.70372" lon="4.57254">
        <ele>815.099</ele>
        <time>2021-06-29T20:15:25Z</time>
      </trkpt>
      <trkpt lat="45.70372" lon="4.57246">
        <ele>815.472</ele>
        <time>2021-06-29T20:15:26Z</time>
      </trkpt>
      <trkpt lat="45.70372" lon="4.57238">
        <ele>815.929</ele>
        <time>2021-06-29T20:15:27Z</time>
      </trkpt>
      <trkpt lat="45.70372" lon="4.5723">
        <ele>816.374</ele>
        <time>2021-06-29T20:15:28Z</time>
      </trkpt>
      <trkpt lat="45.70372" lon="4.57222">
        <ele>816.854</ele>
        <time>2021-06-29T20:15:29Z</time>
      </trkpt>
      <trkpt lat="45.70373" lon="4.57214">
        <ele>817.356</ele>
        <time>2021-06-29T20:15:30Z</time>
      </trkpt>
      <trkpt lat="45.70372" lon="4.57208">
        <ele>817.811</ele>
        <time>2021-06-29T20:15:31Z</time>
      </trkpt>
      <trkpt lat="45.70373" lon="4.57201">
        <ele>818.308</ele>
        <time>2021-06-29T20:15:32Z</time>
      </trkpt>
      <trkpt lat="45.70373" lon="4.57188">
        <ele>819.362</ele>
        <time>2021-06-29T20:15:34Z</time>
      </trkpt>
      <trkpt lat="45.70374" lon="4.57181">
        <ele>819.812</ele>
        <time>2021-06-29T20:15:35Z</time>
      </trkpt>
      <trkpt lat="45.70373" lon="4.57171">
        <ele>820.965</ele>
        <time>2021-06-29T20:15:37Z</time>
      </trkpt>
      <trkpt lat="45.70372" lon="4.57164">
        <ele>822.089</ele>
        <time>2021-06-29T20:15:39Z</time>
      </trkpt>
      <trkpt lat="45.7037" lon="4.57156">
        <ele>823.076</ele>
        <time>2021-06-29T20:15:42Z</time>
      </trkpt>
      <trkpt lat="45.70369" lon="4.57147">
        <ele>823.599</ele>
        <time>2021-06-29T20:15:44Z</time>
      </trkpt>
      <trkpt lat="45.70367" lon="4.57134">
        <ele>824.266</ele>
        <time>2021-06-29T20:15:46Z</time>
      </trkpt>
      <trkpt lat="45.70366" lon="4.57127">
        <ele>824.631</ele>
        <time>2021-06-29T20:15:47Z</time>
      </trkpt>
      <trkpt lat="45.70365" lon="4.57119">
        <ele>825.116</ele>
        <time>2021-06-29T20:15:48Z</time>
      </trkpt>
      <trkpt lat="45.70364" lon="4.57111">
        <ele>825.676</ele>
        <time>2021-06-29T20:15:49Z</time>
      </trkpt>
      <trkpt lat="45.70362" lon="4.57103">
        <ele>826.113</ele>
        <time>2021-06-29T20:15:50Z</time>
      </trkpt>
      <trkpt lat="45.70361" lon="4.57095">
        <ele>826.608</ele>
        <time>2021-06-29T20:15:51Z</time>
      </trkpt>
      <trkpt lat="45.70359" lon="4.57088">
        <ele>827.178</ele>
        <time>2021-06-29T20:15:52Z</time>
      </trkpt>
      <trkpt lat="45.70359" lon="4.5708">
        <ele>827.768</ele>
        <time>2021-06-29T20:15:53Z</time>
      </trkpt>
      <trkpt lat="45.70358" lon="4.57072">
        <ele>828.471</ele>
        <time>2021-06-29T20:15:54Z</time>
      </trkpt>
      <trkpt lat="45.70357" lon="4.57065">
        <ele>829.025</ele>
        <time>2021-06-29T20:15:55Z</time>
      </trkpt>
      <trkpt lat="45.70355" lon="4.57057">
        <ele>829.692</ele>
        <time>2021-06-29T20:15:56Z</time>
      </trkpt>
      <trkpt lat="45.70354" lon="4.5705">
        <ele>830.295</ele>
        <time>2021-06-29T20:15:57Z</time>
      </trkpt>
      <trkpt lat="45.70352" lon="4.57038">
        <ele>831.082</ele>
        <time>2021-06-29T20:15:59Z</time>
      </trkpt>
      <trkpt lat="45.70351" lon="4.57029">
        <ele>831.887</ele>
        <time>2021-06-29T20:16:01Z</time>
      </trkpt>
      <trkpt lat="45.70349" lon="4.57015">
        <ele>832.764</ele>
        <time>2021-06-29T20:16:03Z</time>
      </trkpt>
      <trkpt lat="45.70348" lon="4.57007">
        <ele>833.206</ele>
        <time>2021-06-29T20:16:04Z</time>
      </trkpt>
      <trkpt lat="45.70347" lon="4.57">
        <ele>833.616</ele>
        <time>2021-06-29T20:16:05Z</time>
      </trkpt>
      <trkpt lat="45.70345" lon="4.5699">
        <ele>834.708</ele>
        <time>2021-06-29T20:16:08Z</time>
      </trkpt>
      <trkpt lat="45.70344" lon="4.56978">
        <ele>835.563</ele>
        <time>2021-06-29T20:16:10Z</time>
      </trkpt>
      <trkpt lat="45.70343" lon="4.56966">
        <ele>836.433</ele>
        <time>2021-06-29T20:16:12Z</time>
      </trkpt>
      <trkpt lat="45.70341" lon="4.5696">
        <ele>836.856</ele>
        <time>2021-06-29T20:16:13Z</time>
      </trkpt>
      <trkpt lat="45.7034" lon="4.5695">
        <ele>837.63</ele>
        <time>2021-06-29T20:16:15Z</time>
      </trkpt>
      <trkpt lat="45.70338" lon="4.56942">
        <ele>838.117</ele>
        <time>2021-06-29T20:16:16Z</time>
      </trkpt>
      <trkpt lat="45.70335" lon="4.56926">
        <ele>839.48</ele>
        <time>2021-06-29T20:16:18Z</time>
      </trkpt>
      <trkpt lat="45.70333" lon="4.56918">
        <ele>840.137</ele>
        <time>2021-06-29T20:16:19Z</time>
      </trkpt>
      <trkpt lat="45.70332" lon="4.56909">
        <ele>840.982</ele>
        <time>2021-06-29T20:16:20Z</time>
      </trkpt>
      <trkpt lat="45.70331" lon="4.569">
        <ele>841.691</ele>
        <time>2021-06-29T20:16:21Z</time>
      </trkpt>
      <trkpt lat="45.7033" lon="4.56892">
        <ele>842.281</ele>
        <time>2021-06-29T20:16:22Z</time>
      </trkpt>
      <trkpt lat="45.70328" lon="4.56884">
        <ele>842.719</ele>
        <time>2021-06-29T20:16:23Z</time>
      </trkpt>
      <trkpt lat="45.70327" lon="4.56872">
        <ele>843.508</ele>
        <time>2021-06-29T20:16:25Z</time>
      </trkpt>
      <trkpt lat="45.70325" lon="4.56864">
        <ele>843.786</ele>
        <time>2021-06-29T20:16:26Z</time>
      </trkpt>
      <trkpt lat="45.70324" lon="4.56857">
        <ele>843.966</ele>
        <time>2021-06-29T20:16:27Z</time>
      </trkpt>
      <trkpt lat="45.70323" lon="4.56848">
        <ele>844.089</ele>
        <time>2021-06-29T20:16:29Z</time>
      </trkpt>
      <trkpt lat="45.7032" lon="4.56838">
        <ele>844.143</ele>
        <time>2021-06-29T20:16:31Z</time>
      </trkpt>
      <trkpt lat="45.70318" lon="4.5683">
        <ele>844.27</ele>
        <time>2021-06-29T20:16:33Z</time>
      </trkpt>
      <trkpt lat="45.70314" lon="4.56817">
        <ele>844.413</ele>
        <time>2021-06-29T20:18:10Z</time>
      </trkpt>
      <trkpt lat="45.70314" lon="4.56807">
        <ele>844.49</ele>
        <time>2021-06-29T20:18:13Z</time>
      </trkpt>
      <trkpt lat="45.7031" lon="4.56799">
        <ele>844.275</ele>
        <time>2021-06-29T20:18:15Z</time>
      </trkpt>
      <trkpt lat="45.70307" lon="4.56791">
        <ele>844.271</ele>
        <time>2021-06-29T20:18:17Z</time>
      </trkpt>
      <trkpt lat="45.70304" lon="4.56785">
        <ele>844.441</ele>
        <time>2021-06-29T20:18:19Z</time>
      </trkpt>
      <trkpt lat="45.70301" lon="4.56779">
        <ele>844.815</ele>
        <time>2021-06-29T20:18:21Z</time>
      </trkpt>
      <trkpt lat="45.70298" lon="4.56772">
        <ele>845.308</ele>
        <time>2021-06-29T20:18:23Z</time>
      </trkpt>
      <trkpt lat="45.70295" lon="4.56765">
        <ele>845.864</ele>
        <time>2021-06-29T20:18:25Z</time>
      </trkpt>
      <trkpt lat="45.70293" lon="4.56757">
        <ele>846.364</ele>
        <time>2021-06-29T20:18:27Z</time>
      </trkpt>
      <trkpt lat="45.70292" lon="4.56748">
        <ele>846.867</ele>
        <time>2021-06-29T20:18:29Z</time>
      </trkpt>
      <trkpt lat="45.7029" lon="4.56739">
        <ele>847.321</ele>
        <time>2021-06-29T20:18:31Z</time>
      </trkpt>
      <trkpt lat="45.70288" lon="4.56728">
        <ele>847.868</ele>
        <time>2021-06-29T20:18:33Z</time>
      </trkpt>
      <trkpt lat="45.70286" lon="4.5672">
        <ele>848.221</ele>
        <time>2021-06-29T20:18:34Z</time>
      </trkpt>
      <trkpt lat="45.70282" lon="4.56711">
        <ele>848.658</ele>
        <time>2021-06-29T20:18:35Z</time>
      </trkpt>
      <trkpt lat="45.70279" lon="4.56703">
        <ele>848.963</ele>
        <time>2021-06-29T20:18:36Z</time>
      </trkpt>
      <trkpt lat="45.70275" lon="4.56694">
        <ele>849.221</ele>
        <time>2021-06-29T20:18:37Z</time>
      </trkpt>
      <trkpt lat="45.70269" lon="4.56687">
        <ele>849.441</ele>
        <time>2021-06-29T20:18:38Z</time>
      </trkpt>
      <trkpt lat="45.70263" lon="4.5668">
        <ele>849.505</ele>
        <time>2021-06-29T20:18:39Z</time>
      </trkpt>
      <trkpt lat="45.70257" lon="4.56674">
        <ele>849.608</ele>
        <time>2021-06-29T20:18:40Z</time>
      </trkpt>
      <trkpt lat="45.7025" lon="4.56668">
        <ele>849.819</ele>
        <time>2021-06-29T20:18:41Z</time>
      </trkpt>
      <trkpt lat="45.70245" lon="4.56664">
        <ele>849.999</ele>
        <time>2021-06-29T20:18:42Z</time>
      </trkpt>
      <trkpt lat="45.70237" lon="4.56659">
        <ele>850.612</ele>
        <time>2021-06-29T20:18:44Z</time>
      </trkpt>
      <trkpt lat="45.70233" lon="4.56657">
        <ele>851.196</ele>
        <time>2021-06-29T20:18:45Z</time>
      </trkpt>
      <trkpt lat="45.70228" lon="4.56654">
        <ele>851.723</ele>
        <time>2021-06-29T20:18:46Z</time>
      </trkpt>
      <trkpt lat="45.70221" lon="4.56649">
        <ele>853.116</ele>
        <time>2021-06-29T20:18:48Z</time>
      </trkpt>
      <trkpt lat="45.70216" lon="4.56645">
        <ele>854.373</ele>
        <time>2021-06-29T20:18:50Z</time>
      </trkpt>
      <trkpt lat="45.70209" lon="4.56642">
        <ele>855.368</ele>
        <time>2021-06-29T20:18:52Z</time>
      </trkpt>
      <trkpt lat="45.70205" lon="4.56638">
        <ele>856.028</ele>
        <time>2021-06-29T20:18:53Z</time>
      </trkpt>
      <trkpt lat="45.702" lon="4.56631">
        <ele>856.889</ele>
        <time>2021-06-29T20:18:54Z</time>
      </trkpt>
      <trkpt lat="45.70195" lon="4.56626">
        <ele>857.617</ele>
        <time>2021-06-29T20:18:55Z</time>
      </trkpt>
      <trkpt lat="45.7019" lon="4.56618">
        <ele>859.508</ele>
        <time>2021-06-29T20:18:57Z</time>
      </trkpt>
      <trkpt lat="45.70188" lon="4.5661">
        <ele>861.069</ele>
        <time>2021-06-29T20:18:59Z</time>
      </trkpt>
      <trkpt lat="45.70184" lon="4.56602">
        <ele>861.959</ele>
        <time>2021-06-29T20:19:01Z</time>
      </trkpt>
      <trkpt lat="45.70179" lon="4.56598">
        <ele>862.562</ele>
        <time>2021-06-29T20:19:03Z</time>
      </trkpt>
      <trkpt lat="45.70176" lon="4.56591">
        <ele>862.976</ele>
        <time>2021-06-29T20:19:04Z</time>
      </trkpt>
      <trkpt lat="45.70173" lon="4.56583">
        <ele>863.413</ele>
        <time>2021-06-29T20:19:05Z</time>
      </trkpt>
      <trkpt lat="45.70169" lon="4.56574">
        <ele>864.066</ele>
        <time>2021-06-29T20:19:06Z</time>
      </trkpt>
      <trkpt lat="45.70167" lon="4.56562">
        <ele>864.753</ele>
        <time>2021-06-29T20:19:07Z</time>
      </trkpt>
      <trkpt lat="45.70163" lon="4.56553">
        <ele>865.598</ele>
        <time>2021-06-29T20:19:08Z</time>
      </trkpt>
      <trkpt lat="45.70163" lon="4.56545">
        <ele>866.513</ele>
        <time>2021-06-29T20:19:09Z</time>
      </trkpt>
      <trkpt lat="45.7016" lon="4.56538">
        <ele>867.643</ele>
        <time>2021-06-29T20:19:10Z</time>
      </trkpt>
      <trkpt lat="45.70158" lon="4.56528">
        <ele>869.907</ele>
        <time>2021-06-29T20:19:12Z</time>
      </trkpt>
      <trkpt lat="45.70157" lon="4.56517">
        <ele>872.008</ele>
        <time>2021-06-29T20:19:14Z</time>
      </trkpt>
      <trkpt lat="45.70157" lon="4.56507">
        <ele>873.548</ele>
        <time>2021-06-29T20:19:16Z</time>
      </trkpt>
      <trkpt lat="45.70156" lon="4.56496">
        <ele>874.748</ele>
        <time>2021-06-29T20:19:18Z</time>
      </trkpt>
      <trkpt lat="45.70154" lon="4.5649">
        <ele>875.321</ele>
        <time>2021-06-29T20:19:19Z</time>
      </trkpt>
      <trkpt lat="45.70153" lon="4.56483">
        <ele>875.885</ele>
        <time>2021-06-29T20:19:20Z</time>
      </trkpt>
      <trkpt lat="45.70153" lon="4.56473">
        <ele>876.782</ele>
        <time>2021-06-29T20:19:22Z</time>
      </trkpt>
      <trkpt lat="45.70152" lon="4.56463">
        <ele>877.425</ele>
        <time>2021-06-29T20:19:24Z</time>
      </trkpt>
      <trkpt lat="45.70152" lon="4.56455">
        <ele>878.172</ele>
        <time>2021-06-29T20:19:30Z</time>
      </trkpt>
      <trkpt lat="45.70149" lon="4.56448">
        <ele>878.337</ele>
        <time>2021-06-29T20:19:45Z</time>
      </trkpt>
      <trkpt lat="45.70151" lon="4.56439">
        <ele>878.397</ele>
        <time>2021-06-29T20:19:48Z</time>
      </trkpt>
      <trkpt lat="45.70153" lon="4.56431">
        <ele>878.223</ele>
        <time>2021-06-29T20:19:50Z</time>
      </trkpt>
      <trkpt lat="45.70159" lon="4.5642">
        <ele>877.625</ele>
        <time>2021-06-29T20:19:52Z</time>
      </trkpt>
      <trkpt lat="45.70164" lon="4.56409">
        <ele>876.708</ele>
        <time>2021-06-29T20:19:54Z</time>
      </trkpt>
      <trkpt lat="45.70167" lon="4.56404">
        <ele>876.246</ele>
        <time>2021-06-29T20:19:55Z</time>
      </trkpt>
      <trkpt lat="45.70174" lon="4.56397">
        <ele>875.336</ele>
        <time>2021-06-29T20:19:57Z</time>
      </trkpt>
      <trkpt lat="45.70179" lon="4.56394">
        <ele>874.959</ele>
        <time>2021-06-29T20:19:58Z</time>
      </trkpt>
      <trkpt lat="45.70184" lon="4.56391">
        <ele>874.523</ele>
        <time>2021-06-29T20:19:59Z</time>
      </trkpt>
      <trkpt lat="45.7019" lon="4.56387">
        <ele>873.63</ele>
        <time>2021-06-29T20:20:01Z</time>
      </trkpt>
      <trkpt lat="45.70193" lon="4.56382">
        <ele>873.213</ele>
        <time>2021-06-29T20:20:02Z</time>
      </trkpt>
      <trkpt lat="45.70199" lon="4.56377">
        <ele>872.19</ele>
        <time>2021-06-29T20:20:04Z</time>
      </trkpt>
      <trkpt lat="45.70204" lon="4.56373">
        <ele>871.165</ele>
        <time>2021-06-29T20:20:06Z</time>
      </trkpt>
      <trkpt lat="45.70208" lon="4.56368">
        <ele>870.382</ele>
        <time>2021-06-29T20:20:08Z</time>
      </trkpt>
      <trkpt lat="45.70211" lon="4.56363">
        <ele>869.243</ele>
        <time>2021-06-29T20:20:11Z</time>
      </trkpt>
      <trkpt lat="45.70213" lon="4.56356">
        <ele>868.617</ele>
        <time>2021-06-29T20:20:41Z</time>
      </trkpt>
      <trkpt lat="45.7021" lon="4.56361">
        <ele>869.908</ele>
        <time>2021-06-29T20:21:07Z</time>
      </trkpt>
      <trkpt lat="45.70216" lon="4.56362">
        <ele>870.585</ele>
        <time>2021-06-29T20:21:23Z</time>
      </trkpt>
      <trkpt lat="45.70223" lon="4.5636">
        <ele>870.615</ele>
        <time>2021-06-29T20:21:29Z</time>
      </trkpt>
      <trkpt lat="45.70231" lon="4.5636">
        <ele>870.878</ele>
        <time>2021-06-29T20:21:32Z</time>
      </trkpt>
      <trkpt lat="45.70237" lon="4.56359">
        <ele>870.922</ele>
        <time>2021-06-29T20:21:34Z</time>
      </trkpt>
      <trkpt lat="45.70244" lon="4.56358">
        <ele>871.239</ele>
        <time>2021-06-29T20:21:36Z</time>
      </trkpt>
      <trkpt lat="45.70252" lon="4.5636">
        <ele>871.612</ele>
        <time>2021-06-29T20:21:38Z</time>
      </trkpt>
      <trkpt lat="45.7026" lon="4.5636">
        <ele>871.819</ele>
        <time>2021-06-29T20:21:40Z</time>
      </trkpt>
      <trkpt lat="45.70267" lon="4.56359">
        <ele>871.794</ele>
        <time>2021-06-29T20:21:42Z</time>
      </trkpt>
      <trkpt lat="45.70273" lon="4.56358">
        <ele>871.315</ele>
        <time>2021-06-29T20:21:44Z</time>
      </trkpt>
      <trkpt lat="45.70277" lon="4.56358">
        <ele>870.865</ele>
        <time>2021-06-29T20:21:46Z</time>
      </trkpt>
      <trkpt lat="45.70283" lon="4.56356">
        <ele>870.711</ele>
        <time>2021-06-29T20:21:48Z</time>
      </trkpt>
      <trkpt lat="45.70288" lon="4.56354">
        <ele>870.808</ele>
        <time>2021-06-29T20:21:49Z</time>
      </trkpt>
      <trkpt lat="45.70296" lon="4.5635">
        <ele>871.378</ele>
        <time>2021-06-29T20:21:51Z</time>
      </trkpt>
      <trkpt lat="45.70302" lon="4.56347">
        <ele>871.578</ele>
        <time>2021-06-29T20:21:53Z</time>
      </trkpt>
      <trkpt lat="45.70306" lon="4.56345">
        <ele>871.691</ele>
        <time>2021-06-29T20:21:54Z</time>
      </trkpt>
      <trkpt lat="45.70311" lon="4.56342">
        <ele>871.785</ele>
        <time>2021-06-29T20:21:55Z</time>
      </trkpt>
      <trkpt lat="45.70316" lon="4.5634">
        <ele>871.922</ele>
        <time>2021-06-29T20:21:56Z</time>
      </trkpt>
      <trkpt lat="45.70324" lon="4.56335">
        <ele>872.465</ele>
        <time>2021-06-29T20:21:58Z</time>
      </trkpt>
      <trkpt lat="45.70331" lon="4.56331">
        <ele>872.862</ele>
        <time>2021-06-29T20:22:00Z</time>
      </trkpt>
      <trkpt lat="45.70338" lon="4.56327">
        <ele>872.877</ele>
        <time>2021-06-29T20:22:02Z</time>
      </trkpt>
      <trkpt lat="45.70343" lon="4.56322">
        <ele>872.698</ele>
        <time>2021-06-29T20:22:04Z</time>
      </trkpt>
      <trkpt lat="45.70348" lon="4.56318">
        <ele>872.415</ele>
        <time>2021-06-29T20:22:06Z</time>
      </trkpt>
      <trkpt lat="45.70353" lon="4.56314">
        <ele>872.226</ele>
        <time>2021-06-29T20:22:08Z</time>
      </trkpt>
      <trkpt lat="45.70358" lon="4.56311">
        <ele>871.808</ele>
        <time>2021-06-29T20:22:10Z</time>
      </trkpt>
      <trkpt lat="45.70364" lon="4.56306">
        <ele>871.496</ele>
        <time>2021-06-29T20:22:12Z</time>
      </trkpt>
      <trkpt lat="45.70371" lon="4.56298">
        <ele>871.456</ele>
        <time>2021-06-29T20:22:14Z</time>
      </trkpt>
      <trkpt lat="45.70376" lon="4.56291">
        <ele>871.599</ele>
        <time>2021-06-29T20:22:15Z</time>
      </trkpt>
      <trkpt lat="45.70383" lon="4.56286">
        <ele>871.683</ele>
        <time>2021-06-29T20:22:16Z</time>
      </trkpt>
      <trkpt lat="45.70388" lon="4.56281">
        <ele>871.75</ele>
        <time>2021-06-29T20:22:17Z</time>
      </trkpt>
      <trkpt lat="45.70392" lon="4.56278">
        <ele>871.793</ele>
        <time>2021-06-29T20:22:18Z</time>
      </trkpt>
      <trkpt lat="45.70397" lon="4.56274">
        <ele>871.79</ele>
        <time>2021-06-29T20:22:20Z</time>
      </trkpt>
      <trkpt lat="45.70402" lon="4.56272">
        <ele>871.885</ele>
        <time>2021-06-29T20:22:22Z</time>
      </trkpt>
      <trkpt lat="45.70407" lon="4.5627">
        <ele>872.515</ele>
        <time>2021-06-29T20:22:26Z</time>
      </trkpt>
      <trkpt lat="45.70412" lon="4.56265">
        <ele>872.865</ele>
        <time>2021-06-29T20:22:29Z</time>
      </trkpt>
      <trkpt lat="45.70419" lon="4.56261">
        <ele>873.011</ele>
        <time>2021-06-29T20:22:32Z</time>
      </trkpt>
      <trkpt lat="45.70426" lon="4.56259">
        <ele>873.408</ele>
        <time>2021-06-29T20:22:34Z</time>
      </trkpt>
      <trkpt lat="45.7043" lon="4.56256">
        <ele>873.738</ele>
        <time>2021-06-29T20:22:35Z</time>
      </trkpt>
      <trkpt lat="45.70435" lon="4.56252">
        <ele>874.198</ele>
        <time>2021-06-29T20:22:36Z</time>
      </trkpt>
      <trkpt lat="45.70442" lon="4.56247">
        <ele>874.551</ele>
        <time>2021-06-29T20:22:37Z</time>
      </trkpt>
      <trkpt lat="45.7045" lon="4.56241">
        <ele>875.045</ele>
        <time>2021-06-29T20:22:38Z</time>
      </trkpt>
      <trkpt lat="45.70457" lon="4.56235">
        <ele>875.432</ele>
        <time>2021-06-29T20:22:39Z</time>
      </trkpt>
      <trkpt lat="45.70462" lon="4.5623">
        <ele>875.825</ele>
        <time>2021-06-29T20:22:40Z</time>
      </trkpt>
      <trkpt lat="45.70467" lon="4.56225">
        <ele>876.152</ele>
        <time>2021-06-29T20:22:41Z</time>
      </trkpt>
      <trkpt lat="45.7047" lon="4.5622">
        <ele>876.377</ele>
        <time>2021-06-29T20:22:42Z</time>
      </trkpt>
      <trkpt lat="45.70477" lon="4.5621">
        <ele>876.774</ele>
        <time>2021-06-29T20:22:44Z</time>
      </trkpt>
      <trkpt lat="45.70481" lon="4.56204">
        <ele>876.956</ele>
        <time>2021-06-29T20:22:45Z</time>
      </trkpt>
      <trkpt lat="45.70486" lon="4.56197">
        <ele>877.021</ele>
        <time>2021-06-29T20:22:46Z</time>
      </trkpt>
      <trkpt lat="45.70491" lon="4.56189">
        <ele>877.108</ele>
        <time>2021-06-29T20:22:47Z</time>
      </trkpt>
      <trkpt lat="45.70496" lon="4.56178">
        <ele>877.294</ele>
        <time>2021-06-29T20:22:48Z</time>
      </trkpt>
      <trkpt lat="45.70502" lon="4.56167">
        <ele>877.354</ele>
        <time>2021-06-29T20:22:49Z</time>
      </trkpt>
      <trkpt lat="45.70507" lon="4.56154">
        <ele>877.597</ele>
        <time>2021-06-29T20:22:50Z</time>
      </trkpt>
      <trkpt lat="45.70511" lon="4.56143">
        <ele>877.861</ele>
        <time>2021-06-29T20:22:51Z</time>
      </trkpt>
      <trkpt lat="45.70515" lon="4.56135">
        <ele>878.118</ele>
        <time>2021-06-29T20:22:52Z</time>
      </trkpt>
      <trkpt lat="45.70518" lon="4.5613">
        <ele>878.491</ele>
        <time>2021-06-29T20:22:53Z</time>
      </trkpt>
      <trkpt lat="45.70522" lon="4.5612">
        <ele>878.998</ele>
        <time>2021-06-29T20:22:55Z</time>
      </trkpt>
      <trkpt lat="45.70528" lon="4.56114">
        <ele>879.863</ele>
        <time>2021-06-29T20:22:57Z</time>
      </trkpt>
      <trkpt lat="45.70535" lon="4.56107">
        <ele>881.359</ele>
        <time>2021-06-29T20:22:59Z</time>
      </trkpt>
      <trkpt lat="45.70539" lon="4.56102">
        <ele>882.003</ele>
        <time>2021-06-29T20:23:00Z</time>
      </trkpt>
      <trkpt lat="45.70544" lon="4.56096">
        <ele>882.623</ele>
        <time>2021-06-29T20:23:01Z</time>
      </trkpt>
      <trkpt lat="45.70547" lon="4.56092">
        <ele>883.108</ele>
        <time>2021-06-29T20:23:02Z</time>
      </trkpt>
      <trkpt lat="45.7055" lon="4.56086">
        <ele>883.532</ele>
        <time>2021-06-29T20:23:03Z</time>
      </trkpt>
      <trkpt lat="45.70554" lon="4.5608">
        <ele>883.832</ele>
        <time>2021-06-29T20:23:04Z</time>
      </trkpt>
      <trkpt lat="45.70558" lon="4.56074">
        <ele>884.195</ele>
        <time>2021-06-29T20:23:05Z</time>
      </trkpt>
      <trkpt lat="45.70563" lon="4.56067">
        <ele>884.549</ele>
        <time>2021-06-29T20:23:06Z</time>
      </trkpt>
      <trkpt lat="45.70567" lon="4.56061">
        <ele>885.096</ele>
        <time>2021-06-29T20:23:07Z</time>
      </trkpt>
      <trkpt lat="45.70571" lon="4.56055">
        <ele>885.579</ele>
        <time>2021-06-29T20:23:08Z</time>
      </trkpt>
      <trkpt lat="45.70575" lon="4.56049">
        <ele>886.126</ele>
        <time>2021-06-29T20:23:09Z</time>
      </trkpt>
      <trkpt lat="45.70579" lon="4.56044">
        <ele>886.861</ele>
        <time>2021-06-29T20:23:10Z</time>
      </trkpt>
      <trkpt lat="45.70583" lon="4.56038">
        <ele>887.623</ele>
        <time>2021-06-29T20:23:11Z</time>
      </trkpt>
      <trkpt lat="45.70586" lon="4.56032">
        <ele>888.483</ele>
        <time>2021-06-29T20:23:12Z</time>
      </trkpt>
      <trkpt lat="45.7059" lon="4.56027">
        <ele>889.211</ele>
        <time>2021-06-29T20:23:13Z</time>
      </trkpt>
      <trkpt lat="45.70594" lon="4.56022">
        <ele>890.008</ele>
        <time>2021-06-29T20:23:14Z</time>
      </trkpt>
      <trkpt lat="45.70598" lon="4.56015">
        <ele>890.749</ele>
        <time>2021-06-29T20:23:15Z</time>
      </trkpt>
      <trkpt lat="45.70603" lon="4.56008">
        <ele>891.469</ele>
        <time>2021-06-29T20:23:16Z</time>
      </trkpt>
      <trkpt lat="45.70608" lon="4.56001">
        <ele>892.132</ele>
        <time>2021-06-29T20:23:17Z</time>
      </trkpt>
      <trkpt lat="45.70612" lon="4.55996">
        <ele>892.886</ele>
        <time>2021-06-29T20:23:18Z</time>
      </trkpt>
      <trkpt lat="45.70616" lon="4.55991">
        <ele>893.543</ele>
        <time>2021-06-29T20:23:19Z</time>
      </trkpt>
      <trkpt lat="45.70624" lon="4.55983">
        <ele>895.056</ele>
        <time>2021-06-29T20:23:21Z</time>
      </trkpt>
      <trkpt lat="45.70627" lon="4.55978">
        <ele>895.743</ele>
        <time>2021-06-29T20:23:22Z</time>
      </trkpt>
      <trkpt lat="45.70631" lon="4.55972">
        <ele>896.318</ele>
        <time>2021-06-29T20:23:23Z</time>
      </trkpt>
      <trkpt lat="45.70635" lon="4.55966">
        <ele>896.912</ele>
        <time>2021-06-29T20:23:24Z</time>
      </trkpt>
      <trkpt lat="45.70638" lon="4.55961">
        <ele>897.532</ele>
        <time>2021-06-29T20:23:25Z</time>
      </trkpt>
      <trkpt lat="45.70642" lon="4.55955">
        <ele>898.005</ele>
        <time>2021-06-29T20:23:26Z</time>
      </trkpt>
      <trkpt lat="45.70646" lon="4.55948">
        <ele>898.508</ele>
        <time>2021-06-29T20:23:27Z</time>
      </trkpt>
      <trkpt lat="45.7065" lon="4.55941">
        <ele>899.048</ele>
        <time>2021-06-29T20:23:28Z</time>
      </trkpt>
      <trkpt lat="45.70653" lon="4.55933">
        <ele>899.448</ele>
        <time>2021-06-29T20:23:29Z</time>
      </trkpt>
      <trkpt lat="45.70657" lon="4.55925">
        <ele>899.881</ele>
        <time>2021-06-29T20:23:30Z</time>
      </trkpt>
      <trkpt lat="45.70661" lon="4.55917">
        <ele>900.115</ele>
        <time>2021-06-29T20:23:31Z</time>
      </trkpt>
      <trkpt lat="45.70665" lon="4.5591">
        <ele>900.452</ele>
        <time>2021-06-29T20:23:32Z</time>
      </trkpt>
      <trkpt lat="45.70669" lon="4.55903">
        <ele>900.655</ele>
        <time>2021-06-29T20:23:33Z</time>
      </trkpt>
      <trkpt lat="45.70673" lon="4.55894">
        <ele>900.882</ele>
        <time>2021-06-29T20:23:34Z</time>
      </trkpt>
      <trkpt lat="45.70677" lon="4.55887">
        <ele>901.027</ele>
        <time>2021-06-29T20:23:35Z</time>
      </trkpt>
      <trkpt lat="45.70681" lon="4.55879">
        <ele>901.236</ele>
        <time>2021-06-29T20:23:36Z</time>
      </trkpt>
      <trkpt lat="45.70685" lon="4.55872">
        <ele>901.417</ele>
        <time>2021-06-29T20:23:37Z</time>
      </trkpt>
      <trkpt lat="45.70689" lon="4.55865">
        <ele>901.618</ele>
        <time>2021-06-29T20:23:38Z</time>
      </trkpt>
      <trkpt lat="45.70692" lon="4.55859">
        <ele>901.708</ele>
        <time>2021-06-29T20:23:39Z</time>
      </trkpt>
      <trkpt lat="45.70697" lon="4.55852">
        <ele>902.02</ele>
        <time>2021-06-29T20:23:41Z</time>
      </trkpt>
      <trkpt lat="45.707" lon="4.55845">
        <ele>902.41</ele>
        <time>2021-06-29T20:23:43Z</time>
      </trkpt>
      <trkpt lat="45.70705" lon="4.55838">
        <ele>902.663</ele>
        <time>2021-06-29T20:23:45Z</time>
      </trkpt>
      <trkpt lat="45.70707" lon="4.55831">
        <ele>902.657</ele>
        <time>2021-06-29T20:23:47Z</time>
      </trkpt>
      <trkpt lat="45.70712" lon="4.55823">
        <ele>902.484</ele>
        <time>2021-06-29T20:23:50Z</time>
      </trkpt>
      <trkpt lat="45.70716" lon="4.55813">
        <ele>902.587</ele>
        <time>2021-06-29T20:23:52Z</time>
      </trkpt>
      <trkpt lat="45.70719" lon="4.55808">
        <ele>902.584</ele>
        <time>2021-06-29T20:23:53Z</time>
      </trkpt>
      <trkpt lat="45.70724" lon="4.55797">
        <ele>902.499</ele>
        <time>2021-06-29T20:23:55Z</time>
      </trkpt>
      <trkpt lat="45.70728" lon="4.5579">
        <ele>902.229</ele>
        <time>2021-06-29T20:23:56Z</time>
      </trkpt>
      <trkpt lat="45.70732" lon="4.55781">
        <ele>902</ele>
        <time>2021-06-29T20:23:58Z</time>
      </trkpt>
      <trkpt lat="45.70735" lon="4.55776">
        <ele>901.92</ele>
        <time>2021-06-29T20:23:59Z</time>
      </trkpt>
      <trkpt lat="45.70738" lon="4.55769">
        <ele>901.908</ele>
        <time>2021-06-29T20:24:00Z</time>
      </trkpt>
      <trkpt lat="45.70741" lon="4.55763">
        <ele>901.839</ele>
        <time>2021-06-29T20:24:01Z</time>
      </trkpt>
      <trkpt lat="45.70744" lon="4.55757">
        <ele>901.859</ele>
        <time>2021-06-29T20:24:02Z</time>
      </trkpt>
      <trkpt lat="45.70747" lon="4.55752">
        <ele>901.892</ele>
        <time>2021-06-29T20:24:03Z</time>
      </trkpt>
      <trkpt lat="45.70749" lon="4.55746">
        <ele>901.246</ele>
        <time>2021-06-29T20:24:06Z</time>
      </trkpt>
      <trkpt lat="45.70754" lon="4.55738">
        <ele>900.553</ele>
        <time>2021-06-29T20:24:09Z</time>
      </trkpt>
      <trkpt lat="45.70757" lon="4.55732">
        <ele>900.366</ele>
        <time>2021-06-29T20:24:11Z</time>
      </trkpt>
      <trkpt lat="45.7076" lon="4.55725">
        <ele>900.133</ele>
        <time>2021-06-29T20:24:13Z</time>
      </trkpt>
      <trkpt lat="45.70764" lon="4.55719">
        <ele>899.738</ele>
        <time>2021-06-29T20:24:16Z</time>
      </trkpt>
      <trkpt lat="45.70766" lon="4.55713">
        <ele>900.197</ele>
        <time>2021-06-29T20:24:22Z</time>
      </trkpt>
      <trkpt lat="45.70769" lon="4.55707">
        <ele>900.523</ele>
        <time>2021-06-29T20:24:25Z</time>
      </trkpt>
      <trkpt lat="45.70773" lon="4.55699">
        <ele>900.425</ele>
        <time>2021-06-29T20:24:28Z</time>
      </trkpt>
      <trkpt lat="45.70778" lon="4.5569">
        <ele>900.408</ele>
        <time>2021-06-29T20:24:30Z</time>
      </trkpt>
      <trkpt lat="45.70782" lon="4.55682">
        <ele>900.316</ele>
        <time>2021-06-29T20:24:32Z</time>
      </trkpt>
      <trkpt lat="45.70785" lon="4.55676">
        <ele>899.946</ele>
        <time>2021-06-29T20:24:34Z</time>
      </trkpt>
      <trkpt lat="45.70789" lon="4.55669">
        <ele>899.489</ele>
        <time>2021-06-29T20:24:36Z</time>
      </trkpt>
      <trkpt lat="45.70795" lon="4.55661">
        <ele>898.993</ele>
        <time>2021-06-29T20:24:38Z</time>
      </trkpt>
      <trkpt lat="45.70801" lon="4.55655">
        <ele>898.34</ele>
        <time>2021-06-29T20:24:40Z</time>
      </trkpt>
      <trkpt lat="45.70806" lon="4.55648">
        <ele>897.573</ele>
        <time>2021-06-29T20:24:42Z</time>
      </trkpt>
      <trkpt lat="45.70811" lon="4.55643">
        <ele>896.79</ele>
        <time>2021-06-29T20:24:44Z</time>
      </trkpt>
      <trkpt lat="45.70816" lon="4.55639">
        <ele>895.865</ele>
        <time>2021-06-29T20:24:46Z</time>
      </trkpt>
      <trkpt lat="45.70821" lon="4.55636">
        <ele>895.172</ele>
        <time>2021-06-29T20:24:48Z</time>
      </trkpt>
      <trkpt lat="45.70826" lon="4.55633">
        <ele>894.613</ele>
        <time>2021-06-29T20:24:50Z</time>
      </trkpt>
      <trkpt lat="45.70831" lon="4.5563">
        <ele>894.214</ele>
        <time>2021-06-29T20:24:52Z</time>
      </trkpt>
      <trkpt lat="45.70836" lon="4.55627">
        <ele>893.908</ele>
        <time>2021-06-29T20:24:54Z</time>
      </trkpt>
      <trkpt lat="45.70842" lon="4.55625">
        <ele>893.654</ele>
        <time>2021-06-29T20:24:56Z</time>
      </trkpt>
      <trkpt lat="45.70848" lon="4.55623">
        <ele>893.364</ele>
        <time>2021-06-29T20:24:58Z</time>
      </trkpt>
      <trkpt lat="45.70853" lon="4.5562">
        <ele>892.957</ele>
        <time>2021-06-29T20:25:00Z</time>
      </trkpt>
      <trkpt lat="45.70858" lon="4.55618">
        <ele>892.611</ele>
        <time>2021-06-29T20:25:02Z</time>
      </trkpt>
      <trkpt lat="45.70864" lon="4.55616">
        <ele>892.448</ele>
        <time>2021-06-29T20:25:04Z</time>
      </trkpt>
      <trkpt lat="45.70869" lon="4.55614">
        <ele>892.181</ele>
        <time>2021-06-29T20:25:06Z</time>
      </trkpt>
      <trkpt lat="45.70874" lon="4.55611">
        <ele>891.768</ele>
        <time>2021-06-29T20:25:08Z</time>
      </trkpt>
      <trkpt lat="45.7088" lon="4.55609">
        <ele>891.263</ele>
        <time>2021-06-29T20:25:10Z</time>
      </trkpt>
      <trkpt lat="45.70885" lon="4.55605">
        <ele>890.847</ele>
        <time>2021-06-29T20:25:12Z</time>
      </trkpt>
      <trkpt lat="45.7089" lon="4.55603">
        <ele>890.129</ele>
        <time>2021-06-29T20:25:15Z</time>
      </trkpt>
      <trkpt lat="45.70896" lon="4.556">
        <ele>889.821</ele>
        <time>2021-06-29T20:25:18Z</time>
      </trkpt>
      <trkpt lat="45.709" lon="4.55597">
        <ele>889.608</ele>
        <time>2021-06-29T20:25:20Z</time>
      </trkpt>
      <trkpt lat="45.70904" lon="4.55595">
        <ele>889.021</ele>
        <time>2021-06-29T20:25:22Z</time>
      </trkpt>
      <trkpt lat="45.70909" lon="4.55591">
        <ele>887.981</ele>
        <time>2021-06-29T20:25:26Z</time>
      </trkpt>
      <trkpt lat="45.70913" lon="4.55587">
        <ele>887.414</ele>
        <time>2021-06-29T20:25:30Z</time>
      </trkpt>
      <trkpt lat="45.70919" lon="4.55583">
        <ele>887.248</ele>
        <time>2021-06-29T20:25:32Z</time>
      </trkpt>
      <trkpt lat="45.70925" lon="4.55578">
        <ele>886.735</ele>
        <time>2021-06-29T20:25:34Z</time>
      </trkpt>
      <trkpt lat="45.70928" lon="4.55572">
        <ele>885.938</ele>
        <time>2021-06-29T20:25:36Z</time>
      </trkpt>
      <trkpt lat="45.70934" lon="4.5557">
        <ele>884.865</ele>
        <time>2021-06-29T20:25:39Z</time>
      </trkpt>
      <trkpt lat="45.70939" lon="4.55569">
        <ele>884.37</ele>
        <time>2021-06-29T20:25:42Z</time>
      </trkpt>
      <trkpt lat="45.70945" lon="4.55565">
        <ele>883.845</ele>
        <time>2021-06-29T20:25:45Z</time>
      </trkpt>
      <trkpt lat="45.70949" lon="4.55562">
        <ele>883.047</ele>
        <time>2021-06-29T20:25:47Z</time>
      </trkpt>
      <trkpt lat="45.70956" lon="4.55558">
        <ele>882.011</ele>
        <time>2021-06-29T20:25:50Z</time>
      </trkpt>
      <trkpt lat="45.70961" lon="4.55557">
        <ele>881.608</ele>
        <time>2021-06-29T20:25:52Z</time>
      </trkpt>
      <trkpt lat="45.70965" lon="4.55556">
        <ele>881.221</ele>
        <time>2021-06-29T20:25:54Z</time>
      </trkpt>
      <trkpt lat="45.70971" lon="4.55553">
        <ele>880.431</ele>
        <time>2021-06-29T20:25:58Z</time>
      </trkpt>
      <trkpt lat="45.70977" lon="4.5555">
        <ele>880.034</ele>
        <time>2021-06-29T20:26:01Z</time>
      </trkpt>
      <trkpt lat="45.70981" lon="4.55545">
        <ele>879.658</ele>
        <time>2021-06-29T20:26:03Z</time>
      </trkpt>
      <trkpt lat="45.70985" lon="4.55539">
        <ele>879.045</ele>
        <time>2021-06-29T20:26:05Z</time>
      </trkpt>
      <trkpt lat="45.7099" lon="4.55533">
        <ele>878.458</ele>
        <time>2021-06-29T20:26:07Z</time>
      </trkpt>
      <trkpt lat="45.70996" lon="4.55526">
        <ele>877.835</ele>
        <time>2021-06-29T20:26:09Z</time>
      </trkpt>
      <trkpt lat="45.71003" lon="4.5552">
        <ele>877.11</ele>
        <time>2021-06-29T20:26:11Z</time>
      </trkpt>
      <trkpt lat="45.71007" lon="4.55517">
        <ele>876.625</ele>
        <time>2021-06-29T20:26:12Z</time>
      </trkpt>
      <trkpt lat="45.71014" lon="4.55512">
        <ele>875.526</ele>
        <time>2021-06-29T20:26:14Z</time>
      </trkpt>
      <trkpt lat="45.71021" lon="4.55506">
        <ele>874.508</ele>
        <time>2021-06-29T20:26:16Z</time>
      </trkpt>
      <trkpt lat="45.71027" lon="4.55501">
        <ele>873.708</ele>
        <time>2021-06-29T20:26:18Z</time>
      </trkpt>
      <trkpt lat="45.71034" lon="4.55495">
        <ele>873.219</ele>
        <time>2021-06-29T20:26:20Z</time>
      </trkpt>
      <trkpt lat="45.7104" lon="4.5549">
        <ele>872.799</ele>
        <time>2021-06-29T20:26:22Z</time>
      </trkpt>
      <trkpt lat="45.71047" lon="4.55484">
        <ele>872.182</ele>
        <time>2021-06-29T20:26:24Z</time>
      </trkpt>
      <trkpt lat="45.71054" lon="4.55478">
        <ele>871.576</ele>
        <time>2021-06-29T20:26:26Z</time>
      </trkpt>
      <trkpt lat="45.71061" lon="4.55473">
        <ele>871.093</ele>
        <time>2021-06-29T20:26:28Z</time>
      </trkpt>
      <trkpt lat="45.71068" lon="4.55468">
        <ele>870.536</ele>
        <time>2021-06-29T20:26:30Z</time>
      </trkpt>
      <trkpt lat="45.71074" lon="4.55463">
        <ele>869.523</ele>
        <time>2021-06-29T20:26:33Z</time>
      </trkpt>
      <trkpt lat="45.71077" lon="4.55457">
        <ele>868.568</ele>
        <time>2021-06-29T20:26:40Z</time>
      </trkpt>
    </trkseg>
  </trk>
  <trk>
    <name><![CDATA[Yzeron - Châteauvieux]]></name>
    <extensions>
      <line xmlns="http://www.topografix.com/GPX/gpx_style/0/2">
        <color>FF00FF</color>
        <width>4</width>
      </line>
    </extensions>
    <trkseg>
      <trkpt lat="45.69945" lon="4.60126">
        <ele>704.887</ele>
        <time>2021-07-04T19:31:03Z</time>
      </trkpt>
      <trkpt lat="45.69945" lon="4.60126">
        <ele>704.887</ele>
        <time>2021-07-04T19:31:03Z</time>
      </trkpt>
      <trkpt lat="45.69942" lon="4.60133">
        <ele>704.842</ele>
        <time>2021-07-04T19:31:06Z</time>
      </trkpt>
      <trkpt lat="45.69938" lon="4.60137">
        <ele>704.826</ele>
        <time>2021-07-04T19:31:08Z</time>
      </trkpt>
      <trkpt lat="45.69933" lon="4.60143">
        <ele>704.908</ele>
        <time>2021-07-04T19:31:10Z</time>
      </trkpt>
      <trkpt lat="45.69931" lon="4.60149">
        <ele>704.995</ele>
        <time>2021-07-04T19:31:11Z</time>
      </trkpt>
      <trkpt lat="45.69923" lon="4.60158">
        <ele>705.015</ele>
        <time>2021-07-04T19:31:12Z</time>
      </trkpt>
      <trkpt lat="45.69917" lon="4.60164">
        <ele>705.122</ele>
        <time>2021-07-04T19:31:13Z</time>
      </trkpt>
      <trkpt lat="45.69913" lon="4.60169">
        <ele>705.312</ele>
        <time>2021-07-04T19:31:14Z</time>
      </trkpt>
      <trkpt lat="45.69906" lon="4.60175">
        <ele>705.693</ele>
        <time>2021-07-04T19:31:16Z</time>
      </trkpt>
      <trkpt lat="45.699" lon="4.60183">
        <ele>705.874</ele>
        <time>2021-07-04T19:31:18Z</time>
      </trkpt>
      <trkpt lat="45.69894" lon="4.60192">
        <ele>706.085</ele>
        <time>2021-07-04T19:31:20Z</time>
      </trkpt>
      <trkpt lat="45.69888" lon="4.60201">
        <ele>706.542</ele>
        <time>2021-07-04T19:31:22Z</time>
      </trkpt>
      <trkpt lat="45.69882" lon="4.60209">
        <ele>707.229</ele>
        <time>2021-07-04T19:31:24Z</time>
      </trkpt>
      <trkpt lat="45.69875" lon="4.60216">
        <ele>708</ele>
        <time>2021-07-04T19:31:26Z</time>
      </trkpt>
      <trkpt lat="45.69871" lon="4.60223">
        <ele>708.92</ele>
        <time>2021-07-04T19:31:28Z</time>
      </trkpt>
      <trkpt lat="45.69868" lon="4.60231">
        <ele>709.808</ele>
        <time>2021-07-04T19:31:31Z</time>
      </trkpt>
      <trkpt lat="45.69863" lon="4.60238">
        <ele>710.259</ele>
        <time>2021-07-04T19:31:33Z</time>
      </trkpt>
      <trkpt lat="45.6986" lon="4.60246">
        <ele>710.629</ele>
        <time>2021-07-04T19:31:35Z</time>
      </trkpt>
      <trkpt lat="45.69858" lon="4.60255">
        <ele>711.086</ele>
        <time>2021-07-04T19:31:38Z</time>
      </trkpt>
      <trkpt lat="45.69857" lon="4.60264">
        <ele>711.356</ele>
        <time>2021-07-04T19:31:40Z</time>
      </trkpt>
      <trkpt lat="45.69858" lon="4.60271">
        <ele>711.747</ele>
        <time>2021-07-04T19:31:42Z</time>
      </trkpt>
      <trkpt lat="45.69859" lon="4.6028">
        <ele>712.668</ele>
        <time>2021-07-04T19:31:45Z</time>
      </trkpt>
      <trkpt lat="45.69859" lon="4.60289">
        <ele>713.549</ele>
        <time>2021-07-04T19:31:48Z</time>
      </trkpt>
      <trkpt lat="45.69859" lon="4.60296">
        <ele>713.976</ele>
        <time>2021-07-04T19:31:51Z</time>
      </trkpt>
      <trkpt lat="45.69859" lon="4.60307">
        <ele>713.989</ele>
        <time>2021-07-04T19:31:54Z</time>
      </trkpt>
      <trkpt lat="45.69858" lon="4.60315">
        <ele>714.006</ele>
        <time>2021-07-04T19:31:56Z</time>
      </trkpt>
      <trkpt lat="45.69858" lon="4.60324">
        <ele>714.226</ele>
        <time>2021-07-04T19:31:58Z</time>
      </trkpt>
      <trkpt lat="45.69857" lon="4.60333">
        <ele>714.308</ele>
        <time>2021-07-04T19:32:00Z</time>
      </trkpt>
      <trkpt lat="45.69857" lon="4.6034">
        <ele>714.225</ele>
        <time>2021-07-04T19:32:02Z</time>
      </trkpt>
      <trkpt lat="45.69857" lon="4.60347">
        <ele>713.775</ele>
        <time>2021-07-04T19:32:05Z</time>
      </trkpt>
      <trkpt lat="45.69856" lon="4.60356">
        <ele>713.252</ele>
        <time>2021-07-04T19:32:09Z</time>
      </trkpt>
      <trkpt lat="45.69856" lon="4.60364">
        <ele>712.762</ele>
        <time>2021-07-04T19:32:12Z</time>
      </trkpt>
      <trkpt lat="45.69856" lon="4.60372">
        <ele>712.233</ele>
        <time>2021-07-04T19:32:14Z</time>
      </trkpt>
      <trkpt lat="45.69856" lon="4.60382">
        <ele>711.754</ele>
        <time>2021-07-04T19:32:16Z</time>
      </trkpt>
      <trkpt lat="45.69857" lon="4.60393">
        <ele>711.335</ele>
        <time>2021-07-04T19:32:18Z</time>
      </trkpt>
      <trkpt lat="45.69854" lon="4.60403">
        <ele>710.232</ele>
        <time>2021-07-04T19:32:44Z</time>
      </trkpt>
      <trkpt lat="45.69854" lon="4.6041">
        <ele>710.231</ele>
        <time>2021-07-04T19:32:52Z</time>
      </trkpt>
      <trkpt lat="45.69853" lon="4.60419">
        <ele>709.661</ele>
        <time>2021-07-04T19:32:56Z</time>
      </trkpt>
      <trkpt lat="45.6985" lon="4.6049">
        <ele>707.107</ele>
        <time>2021-07-04T19:35:26Z</time>
      </trkpt>
      <trkpt lat="45.69851" lon="4.605">
        <ele>707.108</ele>
        <time>2021-07-04T19:35:29Z</time>
      </trkpt>
      <trkpt lat="45.69851" lon="4.60509">
        <ele>707.16</ele>
        <time>2021-07-04T19:35:31Z</time>
      </trkpt>
      <trkpt lat="45.69852" lon="4.60515">
        <ele>707.02</ele>
        <time>2021-07-04T19:35:33Z</time>
      </trkpt>
      <trkpt lat="45.69852" lon="4.60523">
        <ele>706.737</ele>
        <time>2021-07-04T19:35:35Z</time>
      </trkpt>
      <trkpt lat="45.69851" lon="4.60531">
        <ele>706.357</ele>
        <time>2021-07-04T19:35:37Z</time>
      </trkpt>
      <trkpt lat="45.69852" lon="4.60539">
        <ele>705.968</ele>
        <time>2021-07-04T19:35:39Z</time>
      </trkpt>
      <trkpt lat="45.69853" lon="4.6055">
        <ele>705.599</ele>
        <time>2021-07-04T19:35:41Z</time>
      </trkpt>
      <trkpt lat="45.69854" lon="4.6056">
        <ele>705.12</ele>
        <time>2021-07-04T19:35:43Z</time>
      </trkpt>
      <trkpt lat="45.69855" lon="4.60568">
        <ele>704.637</ele>
        <time>2021-07-04T19:35:45Z</time>
      </trkpt>
      <trkpt lat="45.69856" lon="4.60577">
        <ele>704.157</ele>
        <time>2021-07-04T19:35:47Z</time>
      </trkpt>
      <trkpt lat="45.69857" lon="4.60584">
        <ele>703.7</ele>
        <time>2021-07-04T19:35:49Z</time>
      </trkpt>
      <trkpt lat="45.6986" lon="4.6059">
        <ele>703.12</ele>
        <time>2021-07-04T19:35:52Z</time>
      </trkpt>
      <trkpt lat="45.69863" lon="4.60597">
        <ele>702.608</ele>
        <time>2021-07-04T19:35:56Z</time>
      </trkpt>
      <trkpt lat="45.69867" lon="4.60602">
        <ele>702.482</ele>
        <time>2021-07-04T19:36:00Z</time>
      </trkpt>
      <trkpt lat="45.6987" lon="4.60607">
        <ele>702.232</ele>
        <time>2021-07-04T19:36:03Z</time>
      </trkpt>
      <trkpt lat="45.69874" lon="4.60611">
        <ele>701.999</ele>
        <time>2021-07-04T19:36:07Z</time>
      </trkpt>
      <trkpt lat="45.69878" lon="4.60615">
        <ele>701.659</ele>
        <time>2021-07-04T19:36:11Z</time>
      </trkpt>
      <trkpt lat="45.69883" lon="4.60622">
        <ele>701.58</ele>
        <time>2021-07-04T19:36:14Z</time>
      </trkpt>
      <trkpt lat="45.69887" lon="4.60628">
        <ele>701.521</ele>
        <time>2021-07-04T19:36:16Z</time>
      </trkpt>
      <trkpt lat="45.69891" lon="4.60636">
        <ele>701.592</ele>
        <time>2021-07-04T19:36:18Z</time>
      </trkpt>
      <trkpt lat="45.69895" lon="4.60642">
        <ele>701.539</ele>
        <time>2021-07-04T19:36:20Z</time>
      </trkpt>
      <trkpt lat="45.69899" lon="4.6065">
        <ele>701.474</ele>
        <time>2021-07-04T19:36:22Z</time>
      </trkpt>
      <trkpt lat="45.69903" lon="4.6066">
        <ele>701.356</ele>
        <time>2021-07-04T19:36:24Z</time>
      </trkpt>
      <trkpt lat="45.69906" lon="4.60669">
        <ele>701.221</ele>
        <time>2021-07-04T19:36:26Z</time>
      </trkpt>
      <trkpt lat="45.69908" lon="4.60678">
        <ele>701.108</ele>
        <time>2021-07-04T19:36:28Z</time>
      </trkpt>
      <trkpt lat="45.69911" lon="4.60689">
        <ele>701.154</ele>
        <time>2021-07-04T19:36:30Z</time>
      </trkpt>
      <trkpt lat="45.69913" lon="4.60698">
        <ele>701.214</ele>
        <time>2021-07-04T19:36:32Z</time>
      </trkpt>
      <trkpt lat="45.69915" lon="4.60704">
        <ele>701.211</ele>
        <time>2021-07-04T19:36:33Z</time>
      </trkpt>
      <trkpt lat="45.69917" lon="4.60711">
        <ele>700.831</ele>
        <time>2021-07-04T19:36:39Z</time>
      </trkpt>
      <trkpt lat="45.69919" lon="4.60719">
        <ele>700.912</ele>
        <time>2021-07-04T19:36:42Z</time>
      </trkpt>
      <trkpt lat="45.69921" lon="4.60727">
        <ele>701.043</ele>
        <time>2021-07-04T19:36:44Z</time>
      </trkpt>
      <trkpt lat="45.69923" lon="4.60738">
        <ele>701.274</ele>
        <time>2021-07-04T19:36:46Z</time>
      </trkpt>
      <trkpt lat="45.69925" lon="4.60746">
        <ele>701.751</ele>
        <time>2021-07-04T19:36:49Z</time>
      </trkpt>
      <trkpt lat="45.69925" lon="4.60754">
        <ele>702.015</ele>
        <time>2021-07-04T19:36:51Z</time>
      </trkpt>
      <trkpt lat="45.69925" lon="4.60763">
        <ele>702.465</ele>
        <time>2021-07-04T19:36:54Z</time>
      </trkpt>
      <trkpt lat="45.69924" lon="4.60772">
        <ele>702.611</ele>
        <time>2021-07-04T19:36:57Z</time>
      </trkpt>
      <trkpt lat="45.69924" lon="4.60779">
        <ele>702.808</ele>
        <time>2021-07-04T19:36:59Z</time>
      </trkpt>
      <trkpt lat="45.69923" lon="4.60789">
        <ele>703.138</ele>
        <time>2021-07-04T19:37:01Z</time>
      </trkpt>
      <trkpt lat="45.69922" lon="4.60799">
        <ele>703.658</ele>
        <time>2021-07-04T19:37:04Z</time>
      </trkpt>
      <trkpt lat="45.69921" lon="4.60805">
        <ele>703.895</ele>
        <time>2021-07-04T19:37:07Z</time>
      </trkpt>
      <trkpt lat="45.69918" lon="4.60814">
        <ele>703.845</ele>
        <time>2021-07-04T19:37:10Z</time>
      </trkpt>
      <trkpt lat="45.69917" lon="4.60821">
        <ele>703.926</ele>
        <time>2021-07-04T19:37:12Z</time>
      </trkpt>
      <trkpt lat="45.69916" lon="4.60829">
        <ele>704.437</ele>
        <time>2021-07-04T19:37:14Z</time>
      </trkpt>
      <trkpt lat="45.69915" lon="4.60837">
        <ele>705.128</ele>
        <time>2021-07-04T19:37:17Z</time>
      </trkpt>
      <trkpt lat="45.69913" lon="4.60844">
        <ele>705.475</ele>
        <time>2021-07-04T19:37:20Z</time>
      </trkpt>
      <trkpt lat="45.69911" lon="4.6085">
        <ele>705.544</ele>
        <time>2021-07-04T19:37:22Z</time>
      </trkpt>
      <trkpt lat="45.69909" lon="4.60856">
        <ele>705.705</ele>
        <time>2021-07-04T19:37:24Z</time>
      </trkpt>
      <trkpt lat="45.69906" lon="4.60863">
        <ele>706.015</ele>
        <time>2021-07-04T19:37:26Z</time>
      </trkpt>
      <trkpt lat="45.69904" lon="4.6087">
        <ele>706.308</ele>
        <time>2021-07-04T19:37:28Z</time>
      </trkpt>
      <trkpt lat="45.69901" lon="4.6088">
        <ele>706.791</ele>
        <time>2021-07-04T19:37:30Z</time>
      </trkpt>
      <trkpt lat="45.69898" lon="4.60889">
        <ele>707.011</ele>
        <time>2021-07-04T19:37:32Z</time>
      </trkpt>
      <trkpt lat="45.69897" lon="4.60896">
        <ele>707.378</ele>
        <time>2021-07-04T19:37:34Z</time>
      </trkpt>
      <trkpt lat="45.69894" lon="4.60903">
        <ele>707.648</ele>
        <time>2021-07-04T19:37:36Z</time>
      </trkpt>
      <trkpt lat="45.69892" lon="4.60911">
        <ele>708.319</ele>
        <time>2021-07-04T19:37:39Z</time>
      </trkpt>
      <trkpt lat="45.6989" lon="4.60918">
        <ele>708.87</ele>
        <time>2021-07-04T19:37:41Z</time>
      </trkpt>
      <trkpt lat="45.69887" lon="4.60934">
        <ele>709.361</ele>
        <time>2021-07-04T19:38:06Z</time>
      </trkpt>
      <trkpt lat="45.69885" lon="4.60942">
        <ele>709.678</ele>
        <time>2021-07-04T19:38:09Z</time>
      </trkpt>
      <trkpt lat="45.69884" lon="4.6095">
        <ele>710.211</ele>
        <time>2021-07-04T19:38:12Z</time>
      </trkpt>
      <trkpt lat="45.69881" lon="4.60957">
        <ele>711.221</ele>
        <time>2021-07-04T19:38:16Z</time>
      </trkpt>
      <trkpt lat="45.69881" lon="4.60964">
        <ele>711.903</ele>
        <time>2021-07-04T19:38:21Z</time>
      </trkpt>
      <trkpt lat="45.6988" lon="4.60973">
        <ele>712.408</ele>
        <time>2021-07-04T19:38:25Z</time>
      </trkpt>
      <trkpt lat="45.6988" lon="4.6098">
        <ele>712.928</ele>
        <time>2021-07-04T19:38:28Z</time>
      </trkpt>
      <trkpt lat="45.69881" lon="4.60988">
        <ele>713.528</ele>
        <time>2021-07-04T19:38:31Z</time>
      </trkpt>
      <trkpt lat="45.69881" lon="4.60996">
        <ele>714.425</ele>
        <time>2021-07-04T19:38:34Z</time>
      </trkpt>
      <trkpt lat="45.69882" lon="4.61006">
        <ele>715.185</ele>
        <time>2021-07-04T19:38:39Z</time>
      </trkpt>
      <trkpt lat="45.69884" lon="4.61013">
        <ele>715.356</ele>
        <time>2021-07-04T19:38:41Z</time>
      </trkpt>
      <trkpt lat="45.69884" lon="4.6102">
        <ele>715.587</ele>
        <time>2021-07-04T19:38:42Z</time>
      </trkpt>
      <trkpt lat="45.69886" lon="4.61028">
        <ele>715.878</ele>
        <time>2021-07-04T19:38:43Z</time>
      </trkpt>
      <trkpt lat="45.69887" lon="4.61034">
        <ele>716.155</ele>
        <time>2021-07-04T19:38:44Z</time>
      </trkpt>
      <trkpt lat="45.6989" lon="4.61046">
        <ele>716.889</ele>
        <time>2021-07-04T19:38:46Z</time>
      </trkpt>
      <trkpt lat="45.69892" lon="4.61055">
        <ele>717.206</ele>
        <time>2021-07-04T19:38:48Z</time>
      </trkpt>
      <trkpt lat="45.69895" lon="4.61064">
        <ele>717.426</ele>
        <time>2021-07-04T19:38:50Z</time>
      </trkpt>
      <trkpt lat="45.699" lon="4.61074">
        <ele>717.608</ele>
        <time>2021-07-04T19:38:52Z</time>
      </trkpt>
      <trkpt lat="45.69901" lon="4.61081">
        <ele>718.075</ele>
        <time>2021-07-04T19:38:54Z</time>
      </trkpt>
      <trkpt lat="45.69903" lon="4.61088">
        <ele>718.345</ele>
        <time>2021-07-04T19:38:59Z</time>
      </trkpt>
      <trkpt lat="45.69905" lon="4.61095">
        <ele>718.572</ele>
        <time>2021-07-04T19:39:05Z</time>
      </trkpt>
      <trkpt lat="45.69907" lon="4.61101">
        <ele>718.882</ele>
        <time>2021-07-04T19:39:08Z</time>
      </trkpt>
      <trkpt lat="45.69909" lon="4.61108">
        <ele>718.873</ele>
        <time>2021-07-04T19:39:11Z</time>
      </trkpt>
      <trkpt lat="45.69911" lon="4.61116">
        <ele>719.174</ele>
        <time>2021-07-04T19:39:14Z</time>
      </trkpt>
      <trkpt lat="45.6991" lon="4.61124">
        <ele>719.335</ele>
        <time>2021-07-04T19:39:18Z</time>
      </trkpt>
      <trkpt lat="45.69911" lon="4.61132">
        <ele>719.252</ele>
        <time>2021-07-04T19:39:22Z</time>
      </trkpt>
      <trkpt lat="45.6991" lon="4.61141">
        <ele>719.181</ele>
        <time>2021-07-04T19:39:25Z</time>
      </trkpt>
      <trkpt lat="45.6991" lon="4.6115">
        <ele>718.861</ele>
        <time>2021-07-04T19:39:29Z</time>
      </trkpt>
      <trkpt lat="45.69909" lon="4.61158">
        <ele>718.717</ele>
        <time>2021-07-04T19:39:32Z</time>
      </trkpt>
      <trkpt lat="45.69906" lon="4.61168">
        <ele>718.408</ele>
        <time>2021-07-04T19:39:35Z</time>
      </trkpt>
      <trkpt lat="45.69903" lon="4.61173">
        <ele>718.245</ele>
        <time>2021-07-04T19:39:36Z</time>
      </trkpt>
      <trkpt lat="45.69898" lon="4.61181">
        <ele>717.815</ele>
        <time>2021-07-04T19:39:38Z</time>
      </trkpt>
      <trkpt lat="45.69893" lon="4.61188">
        <ele>717.422</ele>
        <time>2021-07-04T19:39:40Z</time>
      </trkpt>
      <trkpt lat="45.69889" lon="4.61194">
        <ele>717.132</ele>
        <time>2021-07-04T19:39:42Z</time>
      </trkpt>
      <trkpt lat="45.69886" lon="4.61199">
        <ele>716.923</ele>
        <time>2021-07-04T19:39:44Z</time>
      </trkpt>
      <trkpt lat="45.69883" lon="4.61207">
        <ele>716.884</ele>
        <time>2021-07-04T19:39:47Z</time>
      </trkpt>
      <trkpt lat="45.6988" lon="4.61213">
        <ele>716.895</ele>
        <time>2021-07-04T19:39:49Z</time>
      </trkpt>
      <trkpt lat="45.69875" lon="4.61218">
        <ele>716.872</ele>
        <time>2021-07-04T19:39:52Z</time>
      </trkpt>
      <trkpt lat="45.6987" lon="4.61225">
        <ele>716.862</ele>
        <time>2021-07-04T19:39:55Z</time>
      </trkpt>
      <trkpt lat="45.69865" lon="4.61231">
        <ele>716.983</ele>
        <time>2021-07-04T19:39:58Z</time>
      </trkpt>
      <trkpt lat="45.6986" lon="4.61237">
        <ele>716.811</ele>
        <time>2021-07-04T19:40:02Z</time>
      </trkpt>
      <trkpt lat="45.69854" lon="4.61242">
        <ele>716.508</ele>
        <time>2021-07-04T19:40:05Z</time>
      </trkpt>
      <trkpt lat="45.6985" lon="4.61247">
        <ele>716.293</ele>
        <time>2021-07-04T19:40:07Z</time>
      </trkpt>
      <trkpt lat="45.69843" lon="4.61251">
        <ele>715.793</ele>
        <time>2021-07-04T19:40:10Z</time>
      </trkpt>
      <trkpt lat="45.69839" lon="4.61254">
        <ele>715.32</ele>
        <time>2021-07-04T19:40:12Z</time>
      </trkpt>
      <trkpt lat="45.69835" lon="4.61257">
        <ele>714.95</ele>
        <time>2021-07-04T19:40:14Z</time>
      </trkpt>
      <trkpt lat="45.6983" lon="4.6126">
        <ele>714.651</ele>
        <time>2021-07-04T19:40:16Z</time>
      </trkpt>
      <trkpt lat="45.69825" lon="4.61265">
        <ele>714.432</ele>
        <time>2021-07-04T19:40:18Z</time>
      </trkpt>
      <trkpt lat="45.6982" lon="4.61272">
        <ele>714.493</ele>
        <time>2021-07-04T19:40:20Z</time>
      </trkpt>
      <trkpt lat="45.69816" lon="4.61279">
        <ele>714.59</ele>
        <time>2021-07-04T19:40:22Z</time>
      </trkpt>
      <trkpt lat="45.69812" lon="4.61285">
        <ele>714.747</ele>
        <time>2021-07-04T19:40:24Z</time>
      </trkpt>
      <trkpt lat="45.69808" lon="4.6129">
        <ele>715.029</ele>
        <time>2021-07-04T19:40:26Z</time>
      </trkpt>
      <trkpt lat="45.69805" lon="4.61296">
        <ele>715.721</ele>
        <time>2021-07-04T19:40:30Z</time>
      </trkpt>
      <trkpt lat="45.69804" lon="4.61302">
        <ele>716.408</ele>
        <time>2021-07-04T19:40:34Z</time>
      </trkpt>
      <trkpt lat="45.69801" lon="4.61308">
        <ele>716.681</ele>
        <time>2021-07-04T19:40:37Z</time>
      </trkpt>
      <trkpt lat="45.69799" lon="4.61318">
        <ele>716.811</ele>
        <time>2021-07-04T19:40:40Z</time>
      </trkpt>
      <trkpt lat="45.69799" lon="4.61325">
        <ele>717.188</ele>
        <time>2021-07-04T19:40:42Z</time>
      </trkpt>
      <trkpt lat="45.69798" lon="4.61332">
        <ele>717.568</ele>
        <time>2021-07-04T19:40:44Z</time>
      </trkpt>
      <trkpt lat="45.69797" lon="4.61341">
        <ele>717.939</ele>
        <time>2021-07-04T19:40:46Z</time>
      </trkpt>
      <trkpt lat="45.69798" lon="4.6135">
        <ele>718.38</ele>
        <time>2021-07-04T19:40:48Z</time>
      </trkpt>
      <trkpt lat="45.69797" lon="4.61358">
        <ele>718.671</ele>
        <time>2021-07-04T19:40:50Z</time>
      </trkpt>
      <trkpt lat="45.69797" lon="4.61365">
        <ele>719.118</ele>
        <time>2021-07-04T19:40:52Z</time>
      </trkpt>
      <trkpt lat="45.69798" lon="4.61374">
        <ele>719.738</ele>
        <time>2021-07-04T19:40:54Z</time>
      </trkpt>
      <trkpt lat="45.69799" lon="4.61382">
        <ele>720.47</ele>
        <time>2021-07-04T19:40:56Z</time>
      </trkpt>
      <trkpt lat="45.69799" lon="4.6139">
        <ele>721.017</ele>
        <time>2021-07-04T19:40:58Z</time>
      </trkpt>
      <trkpt lat="45.69801" lon="4.61397">
        <ele>721.408</ele>
        <time>2021-07-04T19:41:00Z</time>
      </trkpt>
      <trkpt lat="45.69802" lon="4.61405">
        <ele>721.77</ele>
        <time>2021-07-04T19:41:02Z</time>
      </trkpt>
      <trkpt lat="45.69802" lon="4.61412">
        <ele>721.98</ele>
        <time>2021-07-04T19:41:04Z</time>
      </trkpt>
      <trkpt lat="45.69803" lon="4.61421">
        <ele>722.097</ele>
        <time>2021-07-04T19:41:06Z</time>
      </trkpt>
      <trkpt lat="45.69804" lon="4.61429">
        <ele>721.957</ele>
        <time>2021-07-04T19:41:08Z</time>
      </trkpt>
      <trkpt lat="45.69806" lon="4.61438">
        <ele>721.848</ele>
        <time>2021-07-04T19:41:10Z</time>
      </trkpt>
      <trkpt lat="45.69805" lon="4.61446">
        <ele>721.739</ele>
        <time>2021-07-04T19:41:12Z</time>
      </trkpt>
      <trkpt lat="45.69806" lon="4.61454">
        <ele>721.79</ele>
        <time>2021-07-04T19:41:14Z</time>
      </trkpt>
      <trkpt lat="45.69802" lon="4.61459">
        <ele>721.767</ele>
        <time>2021-07-04T19:41:15Z</time>
      </trkpt>
      <trkpt lat="45.69806" lon="4.61471">
        <ele>721.524</ele>
        <time>2021-07-04T19:41:17Z</time>
      </trkpt>
      <trkpt lat="45.69809" lon="4.61483">
        <ele>721.104</ele>
        <time>2021-07-04T19:41:19Z</time>
      </trkpt>
      <trkpt lat="45.69807" lon="4.61496">
        <ele>721.014</ele>
        <time>2021-07-04T19:41:20Z</time>
      </trkpt>
      <trkpt lat="45.69805" lon="4.61506">
        <ele>720.808</ele>
        <time>2021-07-04T19:41:21Z</time>
      </trkpt>
      <trkpt lat="45.69803" lon="4.61516">
        <ele>720.589</ele>
        <time>2021-07-04T19:41:22Z</time>
      </trkpt>
      <trkpt lat="45.69805" lon="4.61525">
        <ele>720.389</ele>
        <time>2021-07-04T19:41:23Z</time>
      </trkpt>
      <trkpt lat="45.69805" lon="4.61536">
        <ele>720.136</ele>
        <time>2021-07-04T19:41:24Z</time>
      </trkpt>
      <trkpt lat="45.69806" lon="4.61546">
        <ele>719.886</ele>
        <time>2021-07-04T19:41:25Z</time>
      </trkpt>
      <trkpt lat="45.69806" lon="4.61555">
        <ele>719.687</ele>
        <time>2021-07-04T19:41:26Z</time>
      </trkpt>
      <trkpt lat="45.69806" lon="4.61566">
        <ele>719.668</ele>
        <time>2021-07-04T19:41:27Z</time>
      </trkpt>
      <trkpt lat="45.69805" lon="4.61574">
        <ele>719.579</ele>
        <time>2021-07-04T19:41:28Z</time>
      </trkpt>
      <trkpt lat="45.69805" lon="4.61583">
        <ele>719.486</ele>
        <time>2021-07-04T19:41:29Z</time>
      </trkpt>
      <trkpt lat="45.69806" lon="4.61591">
        <ele>719.458</ele>
        <time>2021-07-04T19:41:30Z</time>
      </trkpt>
      <trkpt lat="45.69807" lon="4.616">
        <ele>719.452</ele>
        <time>2021-07-04T19:41:31Z</time>
      </trkpt>
      <trkpt lat="45.69807" lon="4.61611">
        <ele>719.417</ele>
        <time>2021-07-04T19:41:32Z</time>
      </trkpt>
      <trkpt lat="45.69809" lon="4.61619">
        <ele>719.508</ele>
        <time>2021-07-04T19:41:32Z</time>
      </trkpt>
      <trkpt lat="45.6981" lon="4.61627">
        <ele>719.642</ele>
        <time>2021-07-04T19:41:33Z</time>
      </trkpt>
      <trkpt lat="45.69811" lon="4.61635">
        <ele>719.832</ele>
        <time>2021-07-04T19:41:34Z</time>
      </trkpt>
      <trkpt lat="45.69813" lon="4.61644">
        <ele>720.129</ele>
        <time>2021-07-04T19:41:36Z</time>
      </trkpt>
      <trkpt lat="45.69815" lon="4.61655">
        <ele>720.429</ele>
        <time>2021-07-04T19:41:38Z</time>
      </trkpt>
      <trkpt lat="45.69818" lon="4.61664">
        <ele>720.89</ele>
        <time>2021-07-04T19:41:40Z</time>
      </trkpt>
      <trkpt lat="45.69821" lon="4.61672">
        <ele>721.491</ele>
        <time>2021-07-04T19:41:42Z</time>
      </trkpt>
      <trkpt lat="45.69824" lon="4.61678">
        <ele>721.992</ele>
        <time>2021-07-04T19:41:44Z</time>
      </trkpt>
      <trkpt lat="45.69826" lon="4.61683">
        <ele>722.319</ele>
        <time>2021-07-04T19:41:46Z</time>
      </trkpt>
      <trkpt lat="45.69829" lon="4.61689">
        <ele>723.096</ele>
        <time>2021-07-04T19:41:49Z</time>
      </trkpt>
      <trkpt lat="45.69833" lon="4.61695">
        <ele>723.631</ele>
        <time>2021-07-04T19:41:52Z</time>
      </trkpt>
      <trkpt lat="45.69836" lon="4.61703">
        <ele>724.224</ele>
        <time>2021-07-04T19:42:22Z</time>
      </trkpt>
      <trkpt lat="45.6984" lon="4.61708">
        <ele>724.308</ele>
        <time>2021-07-04T19:42:25Z</time>
      </trkpt>
      <trkpt lat="45.69844" lon="4.61714">
        <ele>724.786</ele>
        <time>2021-07-04T19:42:28Z</time>
      </trkpt>
      <trkpt lat="45.69849" lon="4.61717">
        <ele>725.286</ele>
        <time>2021-07-04T19:42:31Z</time>
      </trkpt>
      <trkpt lat="45.69853" lon="4.61721">
        <ele>725.763</ele>
        <time>2021-07-04T19:42:34Z</time>
      </trkpt>
      <trkpt lat="45.69858" lon="4.61725">
        <ele>726.153</ele>
        <time>2021-07-04T19:42:36Z</time>
      </trkpt>
      <trkpt lat="45.69862" lon="4.61728">
        <ele>726.664</ele>
        <time>2021-07-04T19:42:38Z</time>
      </trkpt>
      <trkpt lat="45.69866" lon="4.61731">
        <ele>727.195</ele>
        <time>2021-07-04T19:42:40Z</time>
      </trkpt>
      <trkpt lat="45.69871" lon="4.61735">
        <ele>727.766</ele>
        <time>2021-07-04T19:42:44Z</time>
      </trkpt>
      <trkpt lat="45.69877" lon="4.61739">
        <ele>727.883</ele>
        <time>2021-07-04T19:42:48Z</time>
      </trkpt>
      <trkpt lat="45.69883" lon="4.61744">
        <ele>728.181</ele>
        <time>2021-07-04T19:42:50Z</time>
      </trkpt>
      <trkpt lat="45.69888" lon="4.61747">
        <ele>728.661</ele>
        <time>2021-07-04T19:42:52Z</time>
      </trkpt>
      <trkpt lat="45.69893" lon="4.61749">
        <ele>728.917</ele>
        <time>2021-07-04T19:42:55Z</time>
      </trkpt>
      <trkpt lat="45.69899" lon="4.61754">
        <ele>728.908</ele>
        <time>2021-07-04T19:42:58Z</time>
      </trkpt>
      <trkpt lat="45.69904" lon="4.61759">
        <ele>729.035</ele>
        <time>2021-07-04T19:43:00Z</time>
      </trkpt>
      <trkpt lat="45.69909" lon="4.61763">
        <ele>729.295</ele>
        <time>2021-07-04T19:43:02Z</time>
      </trkpt>
      <trkpt lat="45.69914" lon="4.61768">
        <ele>729.412</ele>
        <time>2021-07-04T19:43:04Z</time>
      </trkpt>
      <trkpt lat="45.6992" lon="4.61773">
        <ele>729.762</ele>
        <time>2021-07-04T19:43:06Z</time>
      </trkpt>
      <trkpt lat="45.69925" lon="4.61778">
        <ele>729.963</ele>
        <time>2021-07-04T19:43:08Z</time>
      </trkpt>
      <trkpt lat="45.6993" lon="4.61785">
        <ele>730.114</ele>
        <time>2021-07-04T19:43:10Z</time>
      </trkpt>
      <trkpt lat="45.69934" lon="4.61791">
        <ele>730.195</ele>
        <time>2021-07-04T19:43:12Z</time>
      </trkpt>
      <trkpt lat="45.69936" lon="4.61801">
        <ele>729.972</ele>
        <time>2021-07-04T19:43:14Z</time>
      </trkpt>
      <trkpt lat="45.69937" lon="4.61807">
        <ele>729.871</ele>
        <time>2021-07-04T19:43:15Z</time>
      </trkpt>
      <trkpt lat="45.69939" lon="4.61814">
        <ele>728.141</ele>
        <time>2021-07-04T19:43:20Z</time>
      </trkpt>
      <trkpt lat="45.6994" lon="4.61822">
        <ele>727.615</ele>
        <time>2021-07-04T19:43:23Z</time>
      </trkpt>
      <trkpt lat="45.69944" lon="4.61833">
        <ele>727.608</ele>
        <time>2021-07-04T19:43:25Z</time>
      </trkpt>
      <trkpt lat="45.69947" lon="4.61842">
        <ele>727.814</ele>
        <time>2021-07-04T19:43:26Z</time>
      </trkpt>
      <trkpt lat="45.69954" lon="4.61853">
        <ele>728.154</ele>
        <time>2021-07-04T19:43:27Z</time>
      </trkpt>
      <trkpt lat="45.69959" lon="4.61865">
        <ele>728.661</ele>
        <time>2021-07-04T19:43:28Z</time>
      </trkpt>
      <trkpt lat="45.69965" lon="4.61874">
        <ele>729.141</ele>
        <time>2021-07-04T19:43:29Z</time>
      </trkpt>
      <trkpt lat="45.6997" lon="4.61882">
        <ele>729.372</ele>
        <time>2021-07-04T19:43:30Z</time>
      </trkpt>
      <trkpt lat="45.69973" lon="4.61888">
        <ele>729.393</ele>
        <time>2021-07-04T19:43:31Z</time>
      </trkpt>
      <trkpt lat="45.69976" lon="4.61893">
        <ele>729.234</ele>
        <time>2021-07-04T19:43:32Z</time>
      </trkpt>
      <trkpt lat="45.69981" lon="4.61902">
        <ele>728.371</ele>
        <time>2021-07-04T19:43:34Z</time>
      </trkpt>
      <trkpt lat="45.69986" lon="4.61913">
        <ele>727.716</ele>
        <time>2021-07-04T19:43:36Z</time>
      </trkpt>
      <trkpt lat="45.6999" lon="4.6192">
        <ele>727.376</ele>
        <time>2021-07-04T19:43:38Z</time>
      </trkpt>
      <trkpt lat="45.69994" lon="4.61923">
        <ele>727.013</ele>
        <time>2021-07-04T19:43:40Z</time>
      </trkpt>
      <trkpt lat="45.70002" lon="4.6192">
        <ele>726.808</ele>
        <time>2021-07-04T19:43:43Z</time>
      </trkpt>
      <trkpt lat="45.70009" lon="4.61915">
        <ele>727.568</ele>
        <time>2021-07-04T19:43:45Z</time>
      </trkpt>
      <trkpt lat="45.70015" lon="4.61914">
        <ele>728.468</ele>
        <time>2021-07-04T19:43:47Z</time>
      </trkpt>
      <trkpt lat="45.70019" lon="4.61917">
        <ele>728.945</ele>
        <time>2021-07-04T19:43:49Z</time>
      </trkpt>
      <trkpt lat="45.70024" lon="4.61924">
        <ele>729.165</ele>
        <time>2021-07-04T19:43:51Z</time>
      </trkpt>
      <trkpt lat="45.7003" lon="4.61935">
        <ele>729.276</ele>
        <time>2021-07-04T19:43:53Z</time>
      </trkpt>
      <trkpt lat="45.70034" lon="4.61941">
        <ele>729.157</ele>
        <time>2021-07-04T19:43:54Z</time>
      </trkpt>
      <trkpt lat="45.70038" lon="4.61948">
        <ele>729.068</ele>
        <time>2021-07-04T19:43:55Z</time>
      </trkpt>
      <trkpt lat="45.70042" lon="4.61954">
        <ele>728.815</ele>
        <time>2021-07-04T19:43:56Z</time>
      </trkpt>
      <trkpt lat="45.70046" lon="4.61961">
        <ele>728.689</ele>
        <time>2021-07-04T19:43:57Z</time>
      </trkpt>
      <trkpt lat="45.7005" lon="4.61968">
        <ele>728.406</ele>
        <time>2021-07-04T19:43:58Z</time>
      </trkpt>
      <trkpt lat="45.70054" lon="4.61973">
        <ele>728.126</ele>
        <time>2021-07-04T19:43:59Z</time>
      </trkpt>
      <trkpt lat="45.70056" lon="4.61979">
        <ele>727.808</ele>
        <time>2021-07-04T19:44:00Z</time>
      </trkpt>
      <trkpt lat="45.70061" lon="4.61986">
        <ele>727.535</ele>
        <time>2021-07-04T19:44:01Z</time>
      </trkpt>
      <trkpt lat="45.70065" lon="4.61993">
        <ele>727.275</ele>
        <time>2021-07-04T19:44:02Z</time>
      </trkpt>
      <trkpt lat="45.70068" lon="4.61999">
        <ele>726.982</ele>
        <time>2021-07-04T19:44:03Z</time>
      </trkpt>
      <trkpt lat="45.70072" lon="4.62004">
        <ele>726.792</ele>
        <time>2021-07-04T19:44:04Z</time>
      </trkpt>
      <trkpt lat="45.70075" lon="4.62008">
        <ele>726.493</ele>
        <time>2021-07-04T19:44:05Z</time>
      </trkpt>
      <trkpt lat="45.70078" lon="4.62012">
        <ele>726.224</ele>
        <time>2021-07-04T19:44:06Z</time>
      </trkpt>
      <trkpt lat="45.70082" lon="4.62017">
        <ele>726.065</ele>
        <time>2021-07-04T19:44:07Z</time>
      </trkpt>
      <trkpt lat="45.70077" lon="4.62012">
        <ele>725.272</ele>
        <time>2021-07-04T19:44:14Z</time>
      </trkpt>
    </trkseg>
  </trk>
  <trk>
    <name><![CDATA[Yzeron]]></name>
    <extensions>
      <line xmlns="http://www.topografix.com/GPX/gpx_style/0/2">
        <color>008800</color>
        <width>4</width>
      </line>
    </extensions>
    <trkseg>
      <trkpt lat="45.72302" lon="4.59341">
        <ele>831.881</ele>
        <time>2021-05-25T18:28:12Z</time>
      </trkpt>
      <trkpt lat="45.72302" lon="4.59341">
        <ele>831.881</ele>
        <time>2021-05-25T18:28:12Z</time>
      </trkpt>
      <trkpt lat="45.72306" lon="4.59348">
        <ele>831.861</ele>
        <time>2021-05-25T18:28:14Z</time>
      </trkpt>
      <trkpt lat="45.72312" lon="4.59357">
        <ele>832.017</ele>
        <time>2021-05-25T18:28:16Z</time>
      </trkpt>
      <trkpt lat="45.72315" lon="4.59362">
        <ele>832.308</ele>
        <time>2021-05-25T18:28:17Z</time>
      </trkpt>
      <trkpt lat="45.72318" lon="4.59367">
        <ele>832.815</ele>
        <time>2021-05-25T18:28:18Z</time>
      </trkpt>
      <trkpt lat="45.72321" lon="4.59371">
        <ele>833.342</ele>
        <time>2021-05-25T18:28:19Z</time>
      </trkpt>
      <trkpt lat="45.72326" lon="4.59376">
        <ele>833.538</ele>
        <time>2021-05-25T18:28:20Z</time>
      </trkpt>
      <trkpt lat="45.7233" lon="4.59381">
        <ele>833.992</ele>
        <time>2021-05-25T18:28:21Z</time>
      </trkpt>
      <trkpt lat="45.72334" lon="4.59386">
        <ele>834.332</ele>
        <time>2021-05-25T18:28:22Z</time>
      </trkpt>
      <trkpt lat="45.72339" lon="4.59392">
        <ele>834.719</ele>
        <time>2021-05-25T18:28:23Z</time>
      </trkpt>
      <trkpt lat="45.72344" lon="4.59398">
        <ele>835.248</ele>
        <time>2021-05-25T18:28:24Z</time>
      </trkpt>
      <trkpt lat="45.7235" lon="4.59406">
        <ele>835.747</ele>
        <time>2021-05-25T18:28:25Z</time>
      </trkpt>
      <trkpt lat="45.72355" lon="4.59413">
        <ele>836.217</ele>
        <time>2021-05-25T18:28:26Z</time>
      </trkpt>
      <trkpt lat="45.72361" lon="4.59422">
        <ele>837.087</ele>
        <time>2021-05-25T18:28:27Z</time>
      </trkpt>
      <trkpt lat="45.72366" lon="4.59431">
        <ele>837.715</ele>
        <time>2021-05-25T18:28:28Z</time>
      </trkpt>
      <trkpt lat="45.7237" lon="4.59438">
        <ele>838.308</ele>
        <time>2021-05-25T18:28:29Z</time>
      </trkpt>
      <trkpt lat="45.72374" lon="4.59443">
        <ele>838.998</ele>
        <time>2021-05-25T18:28:30Z</time>
      </trkpt>
      <trkpt lat="45.7238" lon="4.59445">
        <ele>839.985</ele>
        <time>2021-05-25T18:28:32Z</time>
      </trkpt>
      <trkpt lat="45.72385" lon="4.59443">
        <ele>840.921</ele>
        <time>2021-05-25T18:28:38Z</time>
      </trkpt>
      <trkpt lat="45.72394" lon="4.5944">
        <ele>840.865</ele>
        <time>2021-05-25T18:28:40Z</time>
      </trkpt>
      <trkpt lat="45.72401" lon="4.59439">
        <ele>840.815</ele>
        <time>2021-05-25T18:28:41Z</time>
      </trkpt>
      <trkpt lat="45.72408" lon="4.59438">
        <ele>840.812</ele>
        <time>2021-05-25T18:28:42Z</time>
      </trkpt>
      <trkpt lat="45.72416" lon="4.59436">
        <ele>840.981</ele>
        <time>2021-05-25T18:28:43Z</time>
      </trkpt>
      <trkpt lat="45.72426" lon="4.59434">
        <ele>841.23</ele>
        <time>2021-05-25T18:28:44Z</time>
      </trkpt>
      <trkpt lat="45.72436" lon="4.59432">
        <ele>841.523</ele>
        <time>2021-05-25T18:28:45Z</time>
      </trkpt>
      <trkpt lat="45.72446" lon="4.59429">
        <ele>841.883</ele>
        <time>2021-05-25T18:28:46Z</time>
      </trkpt>
      <trkpt lat="45.72456" lon="4.59427">
        <ele>842.011</ele>
        <time>2021-05-25T18:28:47Z</time>
      </trkpt>
      <trkpt lat="45.72465" lon="4.59424">
        <ele>842.008</ele>
        <time>2021-05-25T18:28:48Z</time>
      </trkpt>
      <trkpt lat="45.72475" lon="4.5942">
        <ele>842.039</ele>
        <time>2021-05-25T18:28:49Z</time>
      </trkpt>
      <trkpt lat="45.72483" lon="4.59417">
        <ele>841.856</ele>
        <time>2021-05-25T18:28:50Z</time>
      </trkpt>
      <trkpt lat="45.72491" lon="4.59415">
        <ele>841.562</ele>
        <time>2021-05-25T18:28:51Z</time>
      </trkpt>
      <trkpt lat="45.725" lon="4.59412">
        <ele>841.266</ele>
        <time>2021-05-25T18:28:52Z</time>
      </trkpt>
      <trkpt lat="45.72511" lon="4.5941">
        <ele>841.236</ele>
        <time>2021-05-25T18:28:53Z</time>
      </trkpt>
      <trkpt lat="45.72523" lon="4.5941">
        <ele>841.583</ele>
        <time>2021-05-25T18:28:54Z</time>
      </trkpt>
      <trkpt lat="45.72533" lon="4.59411">
        <ele>842.042</ele>
        <time>2021-05-25T18:28:55Z</time>
      </trkpt>
      <trkpt lat="45.72542" lon="4.59412">
        <ele>842.691</ele>
        <time>2021-05-25T18:28:56Z</time>
      </trkpt>
      <trkpt lat="45.72552" lon="4.59412">
        <ele>843.321</ele>
        <time>2021-05-25T18:28:57Z</time>
      </trkpt>
      <trkpt lat="45.72561" lon="4.59412">
        <ele>844.241</ele>
        <time>2021-05-25T18:28:58Z</time>
      </trkpt>
      <trkpt lat="45.72569" lon="4.59412">
        <ele>844.705</ele>
        <time>2021-05-25T18:28:59Z</time>
      </trkpt>
      <trkpt lat="45.72577" lon="4.59412">
        <ele>845.008</ele>
        <time>2021-05-25T18:29:00Z</time>
      </trkpt>
      <trkpt lat="45.72583" lon="4.59411">
        <ele>845.489</ele>
        <time>2021-05-25T18:29:01Z</time>
      </trkpt>
      <trkpt lat="45.72589" lon="4.59412">
        <ele>845.816</ele>
        <time>2021-05-25T18:29:02Z</time>
      </trkpt>
      <trkpt lat="45.72596" lon="4.59411">
        <ele>846.052</ele>
        <time>2021-05-25T18:29:04Z</time>
      </trkpt>
      <trkpt lat="45.726" lon="4.5941">
        <ele>846.486</ele>
        <time>2021-05-25T18:29:06Z</time>
      </trkpt>
      <trkpt lat="45.72606" lon="4.5941">
        <ele>846.616</ele>
        <time>2021-05-25T18:29:07Z</time>
      </trkpt>
      <trkpt lat="45.72612" lon="4.59414">
        <ele>847.113</ele>
        <time>2021-05-25T18:29:09Z</time>
      </trkpt>
      <trkpt lat="45.72617" lon="4.59419">
        <ele>847.792</ele>
        <time>2021-05-25T18:29:11Z</time>
      </trkpt>
      <trkpt lat="45.7262" lon="4.59424">
        <ele>848.571</ele>
        <time>2021-05-25T18:29:13Z</time>
      </trkpt>
      <trkpt lat="45.72623" lon="4.59431">
        <ele>849.946</ele>
        <time>2021-05-25T18:29:16Z</time>
      </trkpt>
      <trkpt lat="45.72628" lon="4.5944">
        <ele>851.288</ele>
        <time>2021-05-25T18:29:19Z</time>
      </trkpt>
      <trkpt lat="45.72633" lon="4.59447">
        <ele>852.916</ele>
        <time>2021-05-25T18:29:23Z</time>
      </trkpt>
      <trkpt lat="45.72636" lon="4.59453">
        <ele>854.308</ele>
        <time>2021-05-25T18:29:25Z</time>
      </trkpt>
      <trkpt lat="45.72639" lon="4.59459">
        <ele>855.751</ele>
        <time>2021-05-25T18:29:28Z</time>
      </trkpt>
      <trkpt lat="45.72644" lon="4.59462">
        <ele>856.448</ele>
        <time>2021-05-25T18:29:30Z</time>
      </trkpt>
      <trkpt lat="45.72649" lon="4.59464">
        <ele>856.914</ele>
        <time>2021-05-25T18:29:32Z</time>
      </trkpt>
      <trkpt lat="45.72655" lon="4.59468">
        <ele>857.358</ele>
        <time>2021-05-25T18:29:34Z</time>
      </trkpt>
      <trkpt lat="45.7266" lon="4.59472">
        <ele>857.548</ele>
        <time>2021-05-25T18:29:35Z</time>
      </trkpt>
      <trkpt lat="45.72665" lon="4.59476">
        <ele>857.745</ele>
        <time>2021-05-25T18:29:36Z</time>
      </trkpt>
      <trkpt lat="45.7267" lon="4.5948">
        <ele>857.924</ele>
        <time>2021-05-25T18:29:37Z</time>
      </trkpt>
      <trkpt lat="45.72674" lon="4.59483">
        <ele>858.143</ele>
        <time>2021-05-25T18:29:38Z</time>
      </trkpt>
      <trkpt lat="45.7268" lon="4.59488">
        <ele>858.652</ele>
        <time>2021-05-25T18:29:40Z</time>
      </trkpt>
      <trkpt lat="45.72686" lon="4.59492">
        <ele>859.053</ele>
        <time>2021-05-25T18:29:42Z</time>
      </trkpt>
      <trkpt lat="45.72693" lon="4.59501">
        <ele>859.408</ele>
        <time>2021-05-25T18:29:44Z</time>
      </trkpt>
      <trkpt lat="45.72696" lon="4.59506">
        <ele>860.008</ele>
        <time>2021-05-25T18:29:47Z</time>
      </trkpt>
      <trkpt lat="45.72704" lon="4.59512">
        <ele>861.092</ele>
        <time>2021-05-25T18:29:50Z</time>
      </trkpt>
      <trkpt lat="45.7271" lon="4.59516">
        <ele>861.819</ele>
        <time>2021-05-25T18:29:52Z</time>
      </trkpt>
      <trkpt lat="45.72714" lon="4.59527">
        <ele>863.555</ele>
        <time>2021-05-25T18:29:55Z</time>
      </trkpt>
      <trkpt lat="45.72719" lon="4.59535">
        <ele>865.029</ele>
        <time>2021-05-25T18:29:57Z</time>
      </trkpt>
      <trkpt lat="45.72725" lon="4.59541">
        <ele>865.719</ele>
        <time>2021-05-25T18:29:58Z</time>
      </trkpt>
      <trkpt lat="45.7273" lon="4.59546">
        <ele>866.316</ele>
        <time>2021-05-25T18:29:59Z</time>
      </trkpt>
      <trkpt lat="45.72734" lon="4.5955">
        <ele>866.855</ele>
        <time>2021-05-25T18:30:00Z</time>
      </trkpt>
      <trkpt lat="45.72738" lon="4.59555">
        <ele>867.164</ele>
        <time>2021-05-25T18:30:01Z</time>
      </trkpt>
      <trkpt lat="45.72761" lon="4.59584">
        <ele>867.378</ele>
        <time>2021-05-25T18:30:02Z</time>
      </trkpt>
      <trkpt lat="45.72765" lon="4.59588">
        <ele>867.433</ele>
        <time>2021-05-25T18:30:03Z</time>
      </trkpt>
      <trkpt lat="45.72768" lon="4.59593">
        <ele>867.526</ele>
        <time>2021-05-25T18:30:04Z</time>
      </trkpt>
      <trkpt lat="45.72772" lon="4.59599">
        <ele>867.608</ele>
        <time>2021-05-25T18:30:05Z</time>
      </trkpt>
      <trkpt lat="45.72775" lon="4.59605">
        <ele>867.764</ele>
        <time>2021-05-25T18:30:06Z</time>
      </trkpt>
      <trkpt lat="45.72777" lon="4.59621">
        <ele>868.391</ele>
        <time>2021-05-25T18:30:08Z</time>
      </trkpt>
      <trkpt lat="45.7278" lon="4.59631">
        <ele>868.987</ele>
        <time>2021-05-25T18:30:09Z</time>
      </trkpt>
      <trkpt lat="45.72781" lon="4.59639">
        <ele>869.611</ele>
        <time>2021-05-25T18:30:10Z</time>
      </trkpt>
      <trkpt lat="45.72781" lon="4.59647">
        <ele>871.321</ele>
        <time>2021-05-25T18:30:12Z</time>
      </trkpt>
      <trkpt lat="45.72781" lon="4.59654">
        <ele>873.828</ele>
        <time>2021-05-25T18:30:23Z</time>
      </trkpt>
      <trkpt lat="45.72778" lon="4.59659">
        <ele>874.747</ele>
        <time>2021-05-25T18:30:26Z</time>
      </trkpt>
      <trkpt lat="45.72774" lon="4.59664">
        <ele>876.096</ele>
        <time>2021-05-25T18:30:29Z</time>
      </trkpt>
      <trkpt lat="45.72769" lon="4.5967">
        <ele>877.456</ele>
        <time>2021-05-25T18:30:32Z</time>
      </trkpt>
      <trkpt lat="45.72765" lon="4.59677">
        <ele>878.759</ele>
        <time>2021-05-25T18:30:35Z</time>
      </trkpt>
      <trkpt lat="45.7276" lon="4.59683">
        <ele>879.614</ele>
        <time>2021-05-25T18:30:37Z</time>
      </trkpt>
      <trkpt lat="45.72756" lon="4.5969">
        <ele>880.808</ele>
        <time>2021-05-25T18:30:39Z</time>
      </trkpt>
      <trkpt lat="45.72752" lon="4.59696">
        <ele>882.232</ele>
        <time>2021-05-25T18:30:41Z</time>
      </trkpt>
      <trkpt lat="45.72748" lon="4.597">
        <ele>883.899</ele>
        <time>2021-05-25T18:30:44Z</time>
      </trkpt>
    </trkseg>
  </trk>
  <trk>
    <name><![CDATA[Vaugneray - Les Verchères]]></name>
    <extensions>
      <line xmlns="http://www.topografix.com/GPX/gpx_style/0/2">
        <color>880000</color>
        <width>4</width>
      </line>
    </extensions>
    <trkseg>
      <trkpt lat="45.73363" lon="4.63868">
        <ele>510.157</ele>
        <time>2021-04-27T16:24:57Z</time>
      </trkpt>
      <trkpt lat="45.73363" lon="4.63868">
        <ele>510.157</ele>
        <time>2021-04-27T16:24:57Z</time>
      </trkpt>
      <trkpt lat="45.73359" lon="4.63861">
        <ele>510.3</ele>
        <time>2021-04-27T16:24:59Z</time>
      </trkpt>
      <trkpt lat="45.73356" lon="4.63854">
        <ele>511.32</ele>
        <time>2021-04-27T16:25:02Z</time>
      </trkpt>
      <trkpt lat="45.73354" lon="4.63847">
        <ele>512.308</ele>
        <time>2021-04-27T16:25:05Z</time>
      </trkpt>
      <trkpt lat="45.73353" lon="4.6384">
        <ele>513.032</ele>
        <time>2021-04-27T16:25:08Z</time>
      </trkpt>
      <trkpt lat="45.73351" lon="4.63832">
        <ele>513.436</ele>
        <time>2021-04-27T16:25:10Z</time>
      </trkpt>
      <trkpt lat="45.73349" lon="4.63826">
        <ele>514.051</ele>
        <time>2021-04-27T16:25:12Z</time>
      </trkpt>
      <trkpt lat="45.73348" lon="4.63817">
        <ele>515.189</ele>
        <time>2021-04-27T16:25:15Z</time>
      </trkpt>
      <trkpt lat="45.73346" lon="4.63807">
        <ele>516.178</ele>
        <time>2021-04-27T16:25:18Z</time>
      </trkpt>
      <trkpt lat="45.73344" lon="4.63801">
        <ele>516.73</ele>
        <time>2021-04-27T16:25:20Z</time>
      </trkpt>
      <trkpt lat="45.73341" lon="4.63795">
        <ele>517.522</ele>
        <time>2021-04-27T16:25:23Z</time>
      </trkpt>
      <trkpt lat="45.7334" lon="4.63788">
        <ele>518.466</ele>
        <time>2021-04-27T16:25:27Z</time>
      </trkpt>
      <trkpt lat="45.73339" lon="4.63781">
        <ele>519.025</ele>
        <time>2021-04-27T16:25:31Z</time>
      </trkpt>
      <trkpt lat="45.73337" lon="4.63774">
        <ele>519.426</ele>
        <time>2021-04-27T16:25:33Z</time>
      </trkpt>
      <trkpt lat="45.73337" lon="4.63767">
        <ele>520.208</ele>
        <time>2021-04-27T16:25:36Z</time>
      </trkpt>
      <trkpt lat="45.73338" lon="4.6376">
        <ele>521.008</ele>
        <time>2021-04-27T16:25:39Z</time>
      </trkpt>
      <trkpt lat="45.73338" lon="4.63752">
        <ele>521.899</ele>
        <time>2021-04-27T16:25:42Z</time>
      </trkpt>
      <trkpt lat="45.73334" lon="4.63745">
        <ele>523.063</ele>
        <time>2021-04-27T16:25:46Z</time>
      </trkpt>
      <trkpt lat="45.73334" lon="4.63738">
        <ele>524.298</ele>
        <time>2021-04-27T16:25:50Z</time>
      </trkpt>
      <trkpt lat="45.73332" lon="4.63731">
        <ele>524.596</ele>
        <time>2021-04-27T16:25:51Z</time>
      </trkpt>
      <trkpt lat="45.7333" lon="4.63724">
        <ele>525.135</ele>
        <time>2021-04-27T16:25:54Z</time>
      </trkpt>
      <trkpt lat="45.7333" lon="4.63717">
        <ele>525.527</ele>
        <time>2021-04-27T16:25:56Z</time>
      </trkpt>
      <trkpt lat="45.73326" lon="4.63706">
        <ele>526.229</ele>
        <time>2021-04-27T16:25:58Z</time>
      </trkpt>
      <trkpt lat="45.73323" lon="4.637">
        <ele>526.773</ele>
        <time>2021-04-27T16:25:59Z</time>
      </trkpt>
      <trkpt lat="45.7332" lon="4.63693">
        <ele>527.712</ele>
        <time>2021-04-27T16:26:01Z</time>
      </trkpt>
      <trkpt lat="45.73318" lon="4.63686">
        <ele>528.432</ele>
        <time>2021-04-27T16:26:03Z</time>
      </trkpt>
      <trkpt lat="45.73318" lon="4.63675">
        <ele>528.905</ele>
        <time>2021-04-27T16:26:05Z</time>
      </trkpt>
      <trkpt lat="45.73318" lon="4.63666">
        <ele>529.608</ele>
        <time>2021-04-27T16:26:07Z</time>
      </trkpt>
      <trkpt lat="45.73316" lon="4.63659">
        <ele>530.548</ele>
        <time>2021-04-27T16:26:10Z</time>
      </trkpt>
      <trkpt lat="45.73316" lon="4.6365">
        <ele>531.112</ele>
        <time>2021-04-27T16:26:12Z</time>
      </trkpt>
      <trkpt lat="45.73315" lon="4.63643">
        <ele>531.757</ele>
        <time>2021-04-27T16:26:14Z</time>
      </trkpt>
      <trkpt lat="45.73316" lon="4.63635">
        <ele>532.115</ele>
        <time>2021-04-27T16:26:16Z</time>
      </trkpt>
      <trkpt lat="45.73316" lon="4.63624">
        <ele>532.384</ele>
        <time>2021-04-27T16:26:18Z</time>
      </trkpt>
      <trkpt lat="45.73316" lon="4.63618">
        <ele>532.586</ele>
        <time>2021-04-27T16:26:19Z</time>
      </trkpt>
      <trkpt lat="45.73316" lon="4.6361">
        <ele>532.948</ele>
        <time>2021-04-27T16:26:21Z</time>
      </trkpt>
      <trkpt lat="45.73315" lon="4.63598">
        <ele>533.832</ele>
        <time>2021-04-27T16:26:23Z</time>
      </trkpt>
      <trkpt lat="45.73314" lon="4.63585">
        <ele>534.668</ele>
        <time>2021-04-27T16:26:24Z</time>
      </trkpt>
      <trkpt lat="45.73311" lon="4.63571">
        <ele>535.442</ele>
        <time>2021-04-27T16:26:25Z</time>
      </trkpt>
      <trkpt lat="45.73308" lon="4.63561">
        <ele>536.226</ele>
        <time>2021-04-27T16:26:26Z</time>
      </trkpt>
      <trkpt lat="45.73308" lon="4.63551">
        <ele>537.108</ele>
        <time>2021-04-27T16:26:28Z</time>
      </trkpt>
      <trkpt lat="45.73308" lon="4.63544">
        <ele>537.173</ele>
        <time>2021-04-27T16:26:30Z</time>
      </trkpt>
      <trkpt lat="45.73307" lon="4.63536">
        <ele>537.287</ele>
        <time>2021-04-27T16:26:32Z</time>
      </trkpt>
      <trkpt lat="45.73306" lon="4.63529">
        <ele>537.672</ele>
        <time>2021-04-27T16:26:34Z</time>
      </trkpt>
      <trkpt lat="45.73303" lon="4.6352">
        <ele>538.24</ele>
        <time>2021-04-27T16:26:35Z</time>
      </trkpt>
      <trkpt lat="45.73301" lon="4.63513">
        <ele>539.099</ele>
        <time>2021-04-27T16:26:37Z</time>
      </trkpt>
      <trkpt lat="45.733" lon="4.63503">
        <ele>540.291</ele>
        <time>2021-04-27T16:26:40Z</time>
      </trkpt>
      <trkpt lat="45.73298" lon="4.63496">
        <ele>541.093</ele>
        <time>2021-04-27T16:26:42Z</time>
      </trkpt>
      <trkpt lat="45.73296" lon="4.63486">
        <ele>542.197</ele>
        <time>2021-04-27T16:26:45Z</time>
      </trkpt>
      <trkpt lat="45.73295" lon="4.63477">
        <ele>543.193</ele>
        <time>2021-04-27T16:26:48Z</time>
      </trkpt>
      <trkpt lat="45.73294" lon="4.63468">
        <ele>544.265</ele>
        <time>2021-04-27T16:26:51Z</time>
      </trkpt>
      <trkpt lat="45.73295" lon="4.6346">
        <ele>545.021</ele>
        <time>2021-04-27T16:26:54Z</time>
      </trkpt>
      <trkpt lat="45.73294" lon="4.63453">
        <ele>545.408</ele>
        <time>2021-04-27T16:26:57Z</time>
      </trkpt>
      <trkpt lat="45.73293" lon="4.63445">
        <ele>545.796</ele>
        <time>2021-04-27T16:27:00Z</time>
      </trkpt>
      <trkpt lat="45.73294" lon="4.63438">
        <ele>545.84</ele>
        <time>2021-04-27T16:27:02Z</time>
      </trkpt>
      <trkpt lat="45.73296" lon="4.63426">
        <ele>546.155</ele>
        <time>2021-04-27T16:27:04Z</time>
      </trkpt>
      <trkpt lat="45.73297" lon="4.63418">
        <ele>546.393</ele>
        <time>2021-04-27T16:27:05Z</time>
      </trkpt>
      <trkpt lat="45.73296" lon="4.63411">
        <ele>546.622</ele>
        <time>2021-04-27T16:27:06Z</time>
      </trkpt>
      <trkpt lat="45.73294" lon="4.63404">
        <ele>546.994</ele>
        <time>2021-04-27T16:27:07Z</time>
      </trkpt>
      <trkpt lat="45.73291" lon="4.63397">
        <ele>547.296</ele>
        <time>2021-04-27T16:27:08Z</time>
      </trkpt>
      <trkpt lat="45.73288" lon="4.63388">
        <ele>547.77</ele>
        <time>2021-04-27T16:27:10Z</time>
      </trkpt>
      <trkpt lat="45.73285" lon="4.63383">
        <ele>547.981</ele>
        <time>2021-04-27T16:27:11Z</time>
      </trkpt>
      <trkpt lat="45.73284" lon="4.63376">
        <ele>548.461</ele>
        <time>2021-04-27T16:27:13Z</time>
      </trkpt>
      <trkpt lat="45.73283" lon="4.63368">
        <ele>549.417</ele>
        <time>2021-04-27T16:27:16Z</time>
      </trkpt>
      <trkpt lat="45.73283" lon="4.63359">
        <ele>550.308</ele>
        <time>2021-04-27T16:27:19Z</time>
      </trkpt>
      <trkpt lat="45.73281" lon="4.63352">
        <ele>550.815</ele>
        <time>2021-04-27T16:27:21Z</time>
      </trkpt>
      <trkpt lat="45.7328" lon="4.63342">
        <ele>551.959</ele>
        <time>2021-04-27T16:27:25Z</time>
      </trkpt>
      <trkpt lat="45.73278" lon="4.63333">
        <ele>552.494</ele>
        <time>2021-04-27T16:27:27Z</time>
      </trkpt>
      <trkpt lat="45.73279" lon="4.63325">
        <ele>553.732</ele>
        <time>2021-04-27T16:27:31Z</time>
      </trkpt>
      <trkpt lat="45.73278" lon="4.63318">
        <ele>554.741</ele>
        <time>2021-04-27T16:27:34Z</time>
      </trkpt>
      <trkpt lat="45.73277" lon="4.63311">
        <ele>555.633</ele>
        <time>2021-04-27T16:27:37Z</time>
      </trkpt>
      <trkpt lat="45.73275" lon="4.63302">
        <ele>556.135</ele>
        <time>2021-04-27T16:27:39Z</time>
      </trkpt>
      <trkpt lat="45.73273" lon="4.63294">
        <ele>556.989</ele>
        <time>2021-04-27T16:27:42Z</time>
      </trkpt>
      <trkpt lat="45.73276" lon="4.63285">
        <ele>557.736</ele>
        <time>2021-04-27T16:27:46Z</time>
      </trkpt>
      <trkpt lat="45.7328" lon="4.63277">
        <ele>558.117</ele>
        <time>2021-04-27T16:27:49Z</time>
      </trkpt>
      <trkpt lat="45.73286" lon="4.63272">
        <ele>558.718</ele>
        <time>2021-04-27T16:27:52Z</time>
      </trkpt>
      <trkpt lat="45.73291" lon="4.63267">
        <ele>559.308</ele>
        <time>2021-04-27T16:27:54Z</time>
      </trkpt>
      <trkpt lat="45.73296" lon="4.63264">
        <ele>560.49</ele>
        <time>2021-04-27T16:27:58Z</time>
      </trkpt>
      <trkpt lat="45.73302" lon="4.6326">
        <ele>561.584</ele>
        <time>2021-04-27T16:28:01Z</time>
      </trkpt>
      <trkpt lat="45.73306" lon="4.63256">
        <ele>562.129</ele>
        <time>2021-04-27T16:28:04Z</time>
      </trkpt>
      <trkpt lat="45.73312" lon="4.63258">
        <ele>563.327</ele>
        <time>2021-04-27T16:28:07Z</time>
      </trkpt>
      <trkpt lat="45.73318" lon="4.63259">
        <ele>564.086</ele>
        <time>2021-04-27T16:28:10Z</time>
      </trkpt>
      <trkpt lat="45.73323" lon="4.63257">
        <ele>565.648</ele>
        <time>2021-04-27T16:28:14Z</time>
      </trkpt>
      <trkpt lat="45.73328" lon="4.63259">
        <ele>566.73</ele>
        <time>2021-04-27T16:28:18Z</time>
      </trkpt>
      <trkpt lat="45.73333" lon="4.63259">
        <ele>567.444</ele>
        <time>2021-04-27T16:28:22Z</time>
      </trkpt>
      <trkpt lat="45.73337" lon="4.63258">
        <ele>567.939</ele>
        <time>2021-04-27T16:28:25Z</time>
      </trkpt>
      <trkpt lat="45.73343" lon="4.63256">
        <ele>568.501</ele>
        <time>2021-04-27T16:28:28Z</time>
      </trkpt>
      <trkpt lat="45.73347" lon="4.63251">
        <ele>569.021</ele>
        <time>2021-04-27T16:28:31Z</time>
      </trkpt>
      <trkpt lat="45.73351" lon="4.63243">
        <ele>569.508</ele>
        <time>2021-04-27T16:28:34Z</time>
      </trkpt>
      <trkpt lat="45.73353" lon="4.63236">
        <ele>570.13</ele>
        <time>2021-04-27T16:28:36Z</time>
      </trkpt>
      <trkpt lat="45.73354" lon="4.63229">
        <ele>571.284</ele>
        <time>2021-04-27T16:28:39Z</time>
      </trkpt>
      <trkpt lat="45.73353" lon="4.6322">
        <ele>573.719</ele>
        <time>2021-04-27T16:28:47Z</time>
      </trkpt>
      <trkpt lat="45.73351" lon="4.63213">
        <ele>574.697</ele>
        <time>2021-04-27T16:28:51Z</time>
      </trkpt>
      <trkpt lat="45.73347" lon="4.63206">
        <ele>575.716</ele>
        <time>2021-04-27T16:28:54Z</time>
      </trkpt>
      <trkpt lat="45.73343" lon="4.63201">
        <ele>576.768</ele>
        <time>2021-04-27T16:28:57Z</time>
      </trkpt>
      <trkpt lat="45.73339" lon="4.63193">
        <ele>577.43</ele>
        <time>2021-04-27T16:29:00Z</time>
      </trkpt>
      <trkpt lat="45.73337" lon="4.63185">
        <ele>578.464</ele>
        <time>2021-04-27T16:29:03Z</time>
      </trkpt>
      <trkpt lat="45.73336" lon="4.63178">
        <ele>579.514</ele>
        <time>2021-04-27T16:29:06Z</time>
      </trkpt>
      <trkpt lat="45.73332" lon="4.63175">
        <ele>580.454</ele>
        <time>2021-04-27T16:29:09Z</time>
      </trkpt>
      <trkpt lat="45.73328" lon="4.63172">
        <ele>581.209</ele>
        <time>2021-04-27T16:29:12Z</time>
      </trkpt>
      <trkpt lat="45.73323" lon="4.63168">
        <ele>582.508</ele>
        <time>2021-04-27T16:29:17Z</time>
      </trkpt>
      <trkpt lat="45.73319" lon="4.63163">
        <ele>583.288</ele>
        <time>2021-04-27T16:29:21Z</time>
      </trkpt>
      <trkpt lat="45.73314" lon="4.6316">
        <ele>583.632</ele>
        <time>2021-04-27T16:29:23Z</time>
      </trkpt>
      <trkpt lat="45.73306" lon="4.63157">
        <ele>584.047</ele>
        <time>2021-04-27T16:29:25Z</time>
      </trkpt>
      <trkpt lat="45.73298" lon="4.63155">
        <ele>584.385</ele>
        <time>2021-04-27T16:29:26Z</time>
      </trkpt>
      <trkpt lat="45.73293" lon="4.63153">
        <ele>584.714</ele>
        <time>2021-04-27T16:29:27Z</time>
      </trkpt>
      <trkpt lat="45.73286" lon="4.63152">
        <ele>585.116</ele>
        <time>2021-04-27T16:29:28Z</time>
      </trkpt>
      <trkpt lat="45.73279" lon="4.63149">
        <ele>585.738</ele>
        <time>2021-04-27T16:29:29Z</time>
      </trkpt>
      <trkpt lat="45.73273" lon="4.63144">
        <ele>586.222</ele>
        <time>2021-04-27T16:29:30Z</time>
      </trkpt>
      <trkpt lat="45.73267" lon="4.63139">
        <ele>587.017</ele>
        <time>2021-04-27T16:29:32Z</time>
      </trkpt>
      <trkpt lat="45.73262" lon="4.63134">
        <ele>587.887</ele>
        <time>2021-04-27T16:29:34Z</time>
      </trkpt>
      <trkpt lat="45.73256" lon="4.63131">
        <ele>588.615</ele>
        <time>2021-04-27T16:29:36Z</time>
      </trkpt>
      <trkpt lat="45.7325" lon="4.63127">
        <ele>589.508</ele>
        <time>2021-04-27T16:29:38Z</time>
      </trkpt>
      <trkpt lat="45.7324" lon="4.63122">
        <ele>590.578</ele>
        <time>2021-04-27T16:29:40Z</time>
      </trkpt>
      <trkpt lat="45.73233" lon="4.6312">
        <ele>591.242</ele>
        <time>2021-04-27T16:29:41Z</time>
      </trkpt>
      <trkpt lat="45.73227" lon="4.63117">
        <ele>592.047</ele>
        <time>2021-04-27T16:29:42Z</time>
      </trkpt>
      <trkpt lat="45.73221" lon="4.63114">
        <ele>592.935</ele>
        <time>2021-04-27T16:29:43Z</time>
      </trkpt>
      <trkpt lat="45.73215" lon="4.63107">
        <ele>593.944</ele>
        <time>2021-04-27T16:29:44Z</time>
      </trkpt>
      <trkpt lat="45.73211" lon="4.63101">
        <ele>595.166</ele>
        <time>2021-04-27T16:29:45Z</time>
      </trkpt>
      <trkpt lat="45.73206" lon="4.63095">
        <ele>596.488</ele>
        <time>2021-04-27T16:29:46Z</time>
      </trkpt>
      <trkpt lat="45.732" lon="4.63088">
        <ele>597.752</ele>
        <time>2021-04-27T16:29:47Z</time>
      </trkpt>
      <trkpt lat="45.73194" lon="4.63082">
        <ele>599.248</ele>
        <time>2021-04-27T16:29:48Z</time>
      </trkpt>
      <trkpt lat="45.73191" lon="4.63077">
        <ele>600.661</ele>
        <time>2021-04-27T16:29:49Z</time>
      </trkpt>
      <trkpt lat="45.73184" lon="4.63066">
        <ele>603.017</ele>
        <time>2021-04-27T16:29:51Z</time>
      </trkpt>
      <trkpt lat="45.7318" lon="4.63059">
        <ele>603.908</ele>
        <time>2021-04-27T16:29:52Z</time>
      </trkpt>
      <trkpt lat="45.73175" lon="4.63052">
        <ele>604.861</ele>
        <time>2021-04-27T16:29:53Z</time>
      </trkpt>
      <trkpt lat="45.73171" lon="4.63046">
        <ele>605.655</ele>
        <time>2021-04-27T16:29:54Z</time>
      </trkpt>
      <trkpt lat="45.73166" lon="4.63035">
        <ele>606.98</ele>
        <time>2021-04-27T16:29:56Z</time>
      </trkpt>
      <trkpt lat="45.73163" lon="4.63028">
        <ele>607.528</ele>
        <time>2021-04-27T16:29:57Z</time>
      </trkpt>
      <trkpt lat="45.73161" lon="4.63021">
        <ele>607.997</ele>
        <time>2021-04-27T16:29:58Z</time>
      </trkpt>
      <trkpt lat="45.7316" lon="4.63013">
        <ele>608.239</ele>
        <time>2021-04-27T16:29:59Z</time>
      </trkpt>
      <trkpt lat="45.73159" lon="4.63006">
        <ele>608.471</ele>
        <time>2021-04-27T16:30:00Z</time>
      </trkpt>
      <trkpt lat="45.73158" lon="4.62998">
        <ele>608.695</ele>
        <time>2021-04-27T16:30:01Z</time>
      </trkpt>
      <trkpt lat="45.73157" lon="4.62991">
        <ele>608.864</ele>
        <time>2021-04-27T16:30:02Z</time>
      </trkpt>
      <trkpt lat="45.73157" lon="4.6298">
        <ele>609.006</ele>
        <time>2021-04-27T16:30:04Z</time>
      </trkpt>
      <trkpt lat="45.73157" lon="4.6297">
        <ele>609.116</ele>
        <time>2021-04-27T16:30:06Z</time>
      </trkpt>
      <trkpt lat="45.73157" lon="4.6296">
        <ele>609.208</ele>
        <time>2021-04-27T16:30:08Z</time>
      </trkpt>
      <trkpt lat="45.73158" lon="4.62952">
        <ele>609.473</ele>
        <time>2021-04-27T16:30:10Z</time>
      </trkpt>
      <trkpt lat="45.73158" lon="4.62941">
        <ele>609.617</ele>
        <time>2021-04-27T16:30:12Z</time>
      </trkpt>
      <trkpt lat="45.73158" lon="4.62931">
        <ele>609.942</ele>
        <time>2021-04-27T16:30:14Z</time>
      </trkpt>
      <trkpt lat="45.73159" lon="4.62919">
        <ele>610.47</ele>
        <time>2021-04-27T16:30:16Z</time>
      </trkpt>
      <trkpt lat="45.73158" lon="4.62911">
        <ele>610.829</ele>
        <time>2021-04-27T16:30:17Z</time>
      </trkpt>
      <trkpt lat="45.73157" lon="4.62902">
        <ele>611.211</ele>
        <time>2021-04-27T16:30:18Z</time>
      </trkpt>
      <trkpt lat="45.73157" lon="4.62891">
        <ele>611.783</ele>
        <time>2021-04-27T16:30:19Z</time>
      </trkpt>
      <trkpt lat="45.73157" lon="4.62881">
        <ele>612.247</ele>
        <time>2021-04-27T16:30:20Z</time>
      </trkpt>
      <trkpt lat="45.7316" lon="4.62868">
        <ele>612.639</ele>
        <time>2021-04-27T16:30:21Z</time>
      </trkpt>
      <trkpt lat="45.73162" lon="4.62856">
        <ele>613.001</ele>
        <time>2021-04-27T16:30:22Z</time>
      </trkpt>
      <trkpt lat="45.73166" lon="4.62841">
        <ele>613.421</ele>
        <time>2021-04-27T16:30:23Z</time>
      </trkpt>
      <trkpt lat="45.73171" lon="4.62823">
        <ele>613.908</ele>
        <time>2021-04-27T16:30:24Z</time>
      </trkpt>
      <trkpt lat="45.73177" lon="4.62807">
        <ele>614.87</ele>
        <time>2021-04-27T16:30:25Z</time>
      </trkpt>
      <trkpt lat="45.73183" lon="4.62792">
        <ele>615.974</ele>
        <time>2021-04-27T16:30:26Z</time>
      </trkpt>
      <trkpt lat="45.73187" lon="4.6278">
        <ele>617.069</ele>
        <time>2021-04-27T16:30:27Z</time>
      </trkpt>
      <trkpt lat="45.7319" lon="4.62771">
        <ele>617.887</ele>
        <time>2021-04-27T16:30:28Z</time>
      </trkpt>
      <trkpt lat="45.73191" lon="4.62763">
        <ele>618.596</ele>
        <time>2021-04-27T16:30:29Z</time>
      </trkpt>
      <trkpt lat="45.73191" lon="4.62754">
        <ele>618.958</ele>
        <time>2021-04-27T16:30:30Z</time>
      </trkpt>
      <trkpt lat="45.73193" lon="4.62748">
        <ele>619.04</ele>
        <time>2021-04-27T16:30:31Z</time>
      </trkpt>
      <trkpt lat="45.73195" lon="4.62737">
        <ele>619.354</ele>
        <time>2021-04-27T16:30:33Z</time>
      </trkpt>
      <trkpt lat="45.73195" lon="4.62731">
        <ele>619.674</ele>
        <time>2021-04-27T16:30:35Z</time>
      </trkpt>
      <trkpt lat="45.73197" lon="4.62724">
        <ele>619.756</ele>
        <time>2021-04-27T16:30:37Z</time>
      </trkpt>
      <trkpt lat="45.732" lon="4.62715">
        <ele>619.621</ele>
        <time>2021-04-27T16:30:42Z</time>
      </trkpt>
      <trkpt lat="45.73204" lon="4.62707">
        <ele>619.508</ele>
        <time>2021-04-27T16:30:44Z</time>
      </trkpt>
      <trkpt lat="45.73208" lon="4.6276">
        <ele>625.224</ele>
        <time>2021-04-27T16:31:23Z</time>
      </trkpt>
      <trkpt lat="45.7321" lon="4.62766">
        <ele>626.338</ele>
        <time>2021-04-27T16:31:27Z</time>
      </trkpt>
      <trkpt lat="45.7321" lon="4.62773">
        <ele>627.113</ele>
        <time>2021-04-27T16:31:30Z</time>
      </trkpt>
      <trkpt lat="45.73212" lon="4.6278">
        <ele>628.241</ele>
        <time>2021-04-27T16:31:34Z</time>
      </trkpt>
      <trkpt lat="45.73213" lon="4.62788">
        <ele>628.96</ele>
        <time>2021-04-27T16:31:38Z</time>
      </trkpt>
      <trkpt lat="45.73214" lon="4.62796">
        <ele>629.692</ele>
        <time>2021-04-27T16:31:42Z</time>
      </trkpt>
      <trkpt lat="45.73215" lon="4.62802">
        <ele>630.064</ele>
        <time>2021-04-27T16:31:44Z</time>
      </trkpt>
      <trkpt lat="45.73216" lon="4.6281">
        <ele>630.848</ele>
        <time>2021-04-27T16:31:47Z</time>
      </trkpt>
      <trkpt lat="45.73219" lon="4.62819">
        <ele>631.677</ele>
        <time>2021-04-27T16:31:50Z</time>
      </trkpt>
      <trkpt lat="45.73222" lon="4.62828">
        <ele>632.161</ele>
        <time>2021-04-27T16:31:52Z</time>
      </trkpt>
      <trkpt lat="45.73225" lon="4.62833">
        <ele>633.727</ele>
        <time>2021-04-27T16:31:56Z</time>
      </trkpt>
      <trkpt lat="45.7323" lon="4.62833">
        <ele>635.208</ele>
        <time>2021-04-27T16:32:01Z</time>
      </trkpt>
      <trkpt lat="45.73234" lon="4.62829">
        <ele>636.674</ele>
        <time>2021-04-27T16:32:06Z</time>
      </trkpt>
      <trkpt lat="45.73239" lon="4.62825">
        <ele>637.728</ele>
        <time>2021-04-27T16:32:10Z</time>
      </trkpt>
      <trkpt lat="45.73243" lon="4.62821">
        <ele>639.163</ele>
        <time>2021-04-27T16:32:15Z</time>
      </trkpt>
      <trkpt lat="45.73248" lon="4.62816">
        <ele>640.031</ele>
        <time>2021-04-27T16:32:19Z</time>
      </trkpt>
      <trkpt lat="45.73253" lon="4.62812">
        <ele>641.12</ele>
        <time>2021-04-27T16:32:23Z</time>
      </trkpt>
      <trkpt lat="45.73257" lon="4.62809">
        <ele>641.942</ele>
        <time>2021-04-27T16:32:26Z</time>
      </trkpt>
      <trkpt lat="45.73261" lon="4.62805">
        <ele>643.014</ele>
        <time>2021-04-27T16:32:30Z</time>
      </trkpt>
      <trkpt lat="45.73265" lon="4.628">
        <ele>643.958</ele>
        <time>2021-04-27T16:32:33Z</time>
      </trkpt>
      <trkpt lat="45.73271" lon="4.62795">
        <ele>644.822</ele>
        <time>2021-04-27T16:32:36Z</time>
      </trkpt>
      <trkpt lat="45.73275" lon="4.62792">
        <ele>645.662</ele>
        <time>2021-04-27T16:32:38Z</time>
      </trkpt>
      <trkpt lat="45.7328" lon="4.62788">
        <ele>647.008</ele>
        <time>2021-04-27T16:32:41Z</time>
      </trkpt>
      <trkpt lat="45.73287" lon="4.62786">
        <ele>648.508</ele>
        <time>2021-04-27T16:32:45Z</time>
      </trkpt>
      <trkpt lat="45.73291" lon="4.62785">
        <ele>649.289</ele>
        <time>2021-04-27T16:32:47Z</time>
      </trkpt>
      <trkpt lat="45.73296" lon="4.62783">
        <ele>650.243</ele>
        <time>2021-04-27T16:32:50Z</time>
      </trkpt>
      <trkpt lat="45.73302" lon="4.62781">
        <ele>651.258</ele>
        <time>2021-04-27T16:32:53Z</time>
      </trkpt>
      <trkpt lat="45.73308" lon="4.62778">
        <ele>652.316</ele>
        <time>2021-04-27T16:32:56Z</time>
      </trkpt>
      <trkpt lat="45.73318" lon="4.62774">
        <ele>652.975</ele>
        <time>2021-04-27T16:32:58Z</time>
      </trkpt>
      <trkpt lat="45.73324" lon="4.62771">
        <ele>653.287</ele>
        <time>2021-04-27T16:32:59Z</time>
      </trkpt>
      <trkpt lat="45.7333" lon="4.62769">
        <ele>653.669</ele>
        <time>2021-04-27T16:33:00Z</time>
      </trkpt>
      <trkpt lat="45.73336" lon="4.62767">
        <ele>654.193</ele>
        <time>2021-04-27T16:33:01Z</time>
      </trkpt>
      <trkpt lat="45.7334" lon="4.62766">
        <ele>654.514</ele>
        <time>2021-04-27T16:33:02Z</time>
      </trkpt>
      <trkpt lat="45.73345" lon="4.62763">
        <ele>655.054</ele>
        <time>2021-04-27T16:33:04Z</time>
      </trkpt>
      <trkpt lat="45.7335" lon="4.62761">
        <ele>654.809</ele>
        <time>2021-04-27T16:33:07Z</time>
      </trkpt>
      <trkpt lat="45.73354" lon="4.62759">
        <ele>654.908</ele>
        <time>2021-04-27T16:33:11Z</time>
      </trkpt>
      <trkpt lat="45.73366" lon="4.62754">
        <ele>655.128</ele>
        <time>2021-04-27T16:33:13Z</time>
      </trkpt>
      <trkpt lat="45.73376" lon="4.62751">
        <ele>655.432</ele>
        <time>2021-04-27T16:33:14Z</time>
      </trkpt>
      <trkpt lat="45.73384" lon="4.62748">
        <ele>655.817</ele>
        <time>2021-04-27T16:33:15Z</time>
      </trkpt>
      <trkpt lat="45.73388" lon="4.62744">
        <ele>656.285</ele>
        <time>2021-04-27T16:33:16Z</time>
      </trkpt>
      <trkpt lat="45.73393" lon="4.6274">
        <ele>656.774</ele>
        <time>2021-04-27T16:33:18Z</time>
      </trkpt>
      <trkpt lat="45.73398" lon="4.62738">
        <ele>656.686</ele>
        <time>2021-04-27T16:33:20Z</time>
      </trkpt>
      <trkpt lat="45.73401" lon="4.62731">
        <ele>656.688</ele>
        <time>2021-04-27T16:33:22Z</time>
      </trkpt>
      <trkpt lat="45.73407" lon="4.62729">
        <ele>656.812</ele>
        <time>2021-04-27T16:33:24Z</time>
      </trkpt>
      <trkpt lat="45.73412" lon="4.62726">
        <ele>657.242</ele>
        <time>2021-04-27T16:33:26Z</time>
      </trkpt>
      <trkpt lat="45.73419" lon="4.62724">
        <ele>657.822</ele>
        <time>2021-04-27T16:33:29Z</time>
      </trkpt>
      <trkpt lat="45.73424" lon="4.62721">
        <ele>658.114</ele>
        <time>2021-04-27T16:33:31Z</time>
      </trkpt>
      <trkpt lat="45.73428" lon="4.62714">
        <ele>658.508</ele>
        <time>2021-04-27T16:33:33Z</time>
      </trkpt>
      <trkpt lat="45.73433" lon="4.6271">
        <ele>659.251</ele>
        <time>2021-04-27T16:33:35Z</time>
      </trkpt>
      <trkpt lat="45.73439" lon="4.62707">
        <ele>660.275</ele>
        <time>2021-04-27T16:33:38Z</time>
      </trkpt>
      <trkpt lat="45.73445" lon="4.62707">
        <ele>660.95</ele>
        <time>2021-04-27T16:33:40Z</time>
      </trkpt>
      <trkpt lat="45.73449" lon="4.62705">
        <ele>661.818</ele>
        <time>2021-04-27T16:33:42Z</time>
      </trkpt>
      <trkpt lat="45.73454" lon="4.62705">
        <ele>663.687</ele>
        <time>2021-04-27T16:33:45Z</time>
      </trkpt>
      <trkpt lat="45.73458" lon="4.62701">
        <ele>665.139</ele>
        <time>2021-04-27T16:33:48Z</time>
      </trkpt>
      <trkpt lat="45.73466" lon="4.62699">
        <ele>666.411</ele>
        <time>2021-04-27T16:33:51Z</time>
      </trkpt>
      <trkpt lat="45.73472" lon="4.62697">
        <ele>667.495</ele>
        <time>2021-04-27T16:33:54Z</time>
      </trkpt>
      <trkpt lat="45.73477" lon="4.62697">
        <ele>668.693</ele>
        <time>2021-04-27T16:33:57Z</time>
      </trkpt>
      <trkpt lat="45.73484" lon="4.62699">
        <ele>669.965</ele>
        <time>2021-04-27T16:34:00Z</time>
      </trkpt>
      <trkpt lat="45.7349" lon="4.62702">
        <ele>670.921</ele>
        <time>2021-04-27T16:34:03Z</time>
      </trkpt>
      <trkpt lat="45.73495" lon="4.62705">
        <ele>671.808</ele>
        <time>2021-04-27T16:34:05Z</time>
      </trkpt>
      <trkpt lat="45.735" lon="4.62704">
        <ele>673.126</ele>
        <time>2021-04-27T16:34:07Z</time>
      </trkpt>
      <trkpt lat="45.73505" lon="4.62704">
        <ele>675.88</ele>
        <time>2021-04-27T16:34:11Z</time>
      </trkpt>
      <trkpt lat="45.7351" lon="4.62702">
        <ele>677.175</ele>
        <time>2021-04-27T16:34:15Z</time>
      </trkpt>
      <trkpt lat="45.73516" lon="4.62699">
        <ele>678.093</ele>
        <time>2021-04-27T16:34:19Z</time>
      </trkpt>
      <trkpt lat="45.73521" lon="4.62696">
        <ele>679.252</ele>
        <time>2021-04-27T16:34:25Z</time>
      </trkpt>
      <trkpt lat="45.73525" lon="4.62692">
        <ele>679.874</ele>
        <time>2021-04-27T16:34:29Z</time>
      </trkpt>
      <trkpt lat="45.73529" lon="4.62687">
        <ele>680.436</ele>
        <time>2021-04-27T16:34:33Z</time>
      </trkpt>
      <trkpt lat="45.73534" lon="4.62686">
        <ele>681.87</ele>
        <time>2021-04-27T16:34:39Z</time>
      </trkpt>
      <trkpt lat="45.7354" lon="4.62682">
        <ele>682.383</ele>
        <time>2021-04-27T16:34:42Z</time>
      </trkpt>
      <trkpt lat="45.73544" lon="4.62677">
        <ele>682.725</ele>
        <time>2021-04-27T16:34:44Z</time>
      </trkpt>
      <trkpt lat="45.73547" lon="4.62669">
        <ele>683.317</ele>
        <time>2021-04-27T16:34:46Z</time>
      </trkpt>
      <trkpt lat="45.73548" lon="4.62662">
        <ele>684.208</ele>
        <time>2021-04-27T16:34:49Z</time>
      </trkpt>
      <trkpt lat="45.73551" lon="4.62656">
        <ele>685.345</ele>
        <time>2021-04-27T16:34:55Z</time>
      </trkpt>
      <trkpt lat="45.73552" lon="4.62649">
        <ele>685.939</ele>
        <time>2021-04-27T16:35:01Z</time>
      </trkpt>
      <trkpt lat="45.73557" lon="4.62646">
        <ele>686.764</ele>
        <time>2021-04-27T16:35:08Z</time>
      </trkpt>
      <trkpt lat="45.73561" lon="4.62639">
        <ele>687.992</ele>
        <time>2021-04-27T16:35:16Z</time>
      </trkpt>
      <trkpt lat="45.73565" lon="4.62634">
        <ele>688.781</ele>
        <time>2021-04-27T16:35:20Z</time>
      </trkpt>
      <trkpt lat="45.73569" lon="4.6263">
        <ele>689.653</ele>
        <time>2021-04-27T16:35:25Z</time>
      </trkpt>
      <trkpt lat="45.73573" lon="4.62625">
        <ele>690.555</ele>
        <time>2021-04-27T16:35:31Z</time>
      </trkpt>
      <trkpt lat="45.73575" lon="4.62619">
        <ele>690.859</ele>
        <time>2021-04-27T16:35:36Z</time>
      </trkpt>
      <trkpt lat="45.73575" lon="4.62613">
        <ele>691.192</ele>
        <time>2021-04-27T16:35:41Z</time>
      </trkpt>
      <trkpt lat="45.73575" lon="4.62606">
        <ele>691.673</ele>
        <time>2021-04-27T16:35:45Z</time>
      </trkpt>
      <trkpt lat="45.73577" lon="4.62598">
        <ele>692.22</ele>
        <time>2021-04-27T16:35:48Z</time>
      </trkpt>
      <trkpt lat="45.73575" lon="4.62592">
        <ele>693.008</ele>
        <time>2021-04-27T16:35:52Z</time>
      </trkpt>
      <trkpt lat="45.73575" lon="4.62583">
        <ele>693.636</ele>
        <time>2021-04-27T16:35:55Z</time>
      </trkpt>
      <trkpt lat="45.73573" lon="4.62577">
        <ele>694.35</ele>
        <time>2021-04-27T16:35:58Z</time>
      </trkpt>
      <trkpt lat="45.73573" lon="4.62571">
        <ele>694.985</ele>
        <time>2021-04-27T16:36:01Z</time>
      </trkpt>
      <trkpt lat="45.7357" lon="4.62561">
        <ele>695.753</ele>
        <time>2021-04-27T16:36:05Z</time>
      </trkpt>
      <trkpt lat="45.73569" lon="4.62552">
        <ele>696.092</ele>
        <time>2021-04-27T16:36:07Z</time>
      </trkpt>
      <trkpt lat="45.73567" lon="4.6254">
        <ele>696.484</ele>
        <time>2021-04-27T16:36:09Z</time>
      </trkpt>
      <trkpt lat="45.73566" lon="4.62527">
        <ele>697.196</ele>
        <time>2021-04-27T16:36:11Z</time>
      </trkpt>
      <trkpt lat="45.73564" lon="4.62519">
        <ele>697.93</ele>
        <time>2021-04-27T16:36:13Z</time>
      </trkpt>
      <trkpt lat="45.73562" lon="4.62513">
        <ele>698.636</ele>
        <time>2021-04-27T16:36:15Z</time>
      </trkpt>
      <trkpt lat="45.73562" lon="4.62506">
        <ele>699.317</ele>
        <time>2021-04-27T16:36:17Z</time>
      </trkpt>
      <trkpt lat="45.73561" lon="4.62499">
        <ele>700.418</ele>
        <time>2021-04-27T16:36:21Z</time>
      </trkpt>
      <trkpt lat="45.73559" lon="4.62492">
        <ele>701.008</ele>
        <time>2021-04-27T16:36:25Z</time>
      </trkpt>
      <trkpt lat="45.73557" lon="4.62486">
        <ele>701.47</ele>
        <time>2021-04-27T16:36:28Z</time>
      </trkpt>
      <trkpt lat="45.73555" lon="4.62479">
        <ele>701.994</ele>
        <time>2021-04-27T16:36:32Z</time>
      </trkpt>
      <trkpt lat="45.73555" lon="4.62471">
        <ele>702.349</ele>
        <time>2021-04-27T16:36:35Z</time>
      </trkpt>
      <trkpt lat="45.73553" lon="4.62463">
        <ele>702.877</ele>
        <time>2021-04-27T16:36:39Z</time>
      </trkpt>
      <trkpt lat="45.73553" lon="4.62454">
        <ele>703.526</ele>
        <time>2021-04-27T16:36:43Z</time>
      </trkpt>
      <trkpt lat="45.73552" lon="4.62446">
        <ele>704.558</ele>
        <time>2021-04-27T16:36:47Z</time>
      </trkpt>
      <trkpt lat="45.7355" lon="4.6244">
        <ele>706.03</ele>
        <time>2021-04-27T16:36:52Z</time>
      </trkpt>
      <trkpt lat="45.73548" lon="4.6243">
        <ele>706.994</ele>
        <time>2021-04-27T16:36:55Z</time>
      </trkpt>
      <trkpt lat="45.73546" lon="4.62423">
        <ele>707.652</ele>
        <time>2021-04-27T16:36:57Z</time>
      </trkpt>
      <trkpt lat="45.73545" lon="4.62417">
        <ele>709.053</ele>
        <time>2021-04-27T16:37:01Z</time>
      </trkpt>
      <trkpt lat="45.73545" lon="4.62409">
        <ele>709.708</ele>
        <time>2021-04-27T16:37:17Z</time>
      </trkpt>
      <trkpt lat="45.73543" lon="4.62401">
        <ele>710.308</ele>
        <time>2021-04-27T16:37:23Z</time>
      </trkpt>
      <trkpt lat="45.73544" lon="4.62395">
        <ele>711.722</ele>
        <time>2021-04-27T16:37:30Z</time>
      </trkpt>
      <trkpt lat="45.73544" lon="4.62388">
        <ele>712.786</ele>
        <time>2021-04-27T16:37:36Z</time>
      </trkpt>
      <trkpt lat="45.73543" lon="4.62381">
        <ele>713.941</ele>
        <time>2021-04-27T16:37:45Z</time>
      </trkpt>
      <trkpt lat="45.73543" lon="4.62374">
        <ele>714.649</ele>
        <time>2021-04-27T16:37:51Z</time>
      </trkpt>
      <trkpt lat="45.73542" lon="4.62367">
        <ele>715.118</ele>
        <time>2021-04-27T16:37:55Z</time>
      </trkpt>
      <trkpt lat="45.73541" lon="4.62358">
        <ele>716.17</ele>
        <time>2021-04-27T16:38:00Z</time>
      </trkpt>
      <trkpt lat="45.7354" lon="4.6235">
        <ele>717.142</ele>
        <time>2021-04-27T16:38:04Z</time>
      </trkpt>
      <trkpt lat="45.73539" lon="4.62343">
        <ele>717.796</ele>
        <time>2021-04-27T16:38:07Z</time>
      </trkpt>
      <trkpt lat="45.73538" lon="4.62334">
        <ele>718.271</ele>
        <time>2021-04-27T16:38:10Z</time>
      </trkpt>
      <trkpt lat="45.73537" lon="4.62325">
        <ele>719.041</ele>
        <time>2021-04-27T16:38:14Z</time>
      </trkpt>
      <trkpt lat="45.73536" lon="4.62314">
        <ele>719.615</ele>
        <time>2021-04-27T16:38:17Z</time>
      </trkpt>
      <trkpt lat="45.73533" lon="4.62302">
        <ele>720.008</ele>
        <time>2021-04-27T16:38:19Z</time>
      </trkpt>
      <trkpt lat="45.7353" lon="4.62292">
        <ele>720.514</ele>
        <time>2021-04-27T16:38:21Z</time>
      </trkpt>
      <trkpt lat="45.7353" lon="4.62284">
        <ele>720.918</ele>
        <time>2021-04-27T16:38:23Z</time>
      </trkpt>
      <trkpt lat="45.7353" lon="4.62275">
        <ele>721.343</ele>
        <time>2021-04-27T16:38:25Z</time>
      </trkpt>
      <trkpt lat="45.73531" lon="4.62269">
        <ele>721.811</ele>
        <time>2021-04-27T16:38:27Z</time>
      </trkpt>
      <trkpt lat="45.7353" lon="4.62262">
        <ele>722.44</ele>
        <time>2021-04-27T16:38:29Z</time>
      </trkpt>
      <trkpt lat="45.73528" lon="4.62255">
        <ele>722.942</ele>
        <time>2021-04-27T16:38:31Z</time>
      </trkpt>
      <trkpt lat="45.73526" lon="4.62248">
        <ele>723.234</ele>
        <time>2021-04-27T16:38:33Z</time>
      </trkpt>
      <trkpt lat="45.73526" lon="4.62241">
        <ele>723.418</ele>
        <time>2021-04-27T16:38:35Z</time>
      </trkpt>
      <trkpt lat="45.73526" lon="4.62234">
        <ele>723.684</ele>
        <time>2021-04-27T16:38:38Z</time>
      </trkpt>
      <trkpt lat="45.73527" lon="4.62225">
        <ele>724.007</ele>
        <time>2021-04-27T16:38:41Z</time>
      </trkpt>
      <trkpt lat="45.73527" lon="4.62218">
        <ele>724.617</ele>
        <time>2021-04-27T16:38:45Z</time>
      </trkpt>
      <trkpt lat="45.73528" lon="4.62211">
        <ele>725.308</ele>
        <time>2021-04-27T16:38:50Z</time>
      </trkpt>
      <trkpt lat="45.73528" lon="4.62204">
        <ele>725.775</ele>
        <time>2021-04-27T16:38:56Z</time>
      </trkpt>
      <trkpt lat="45.73529" lon="4.62197">
        <ele>726.039</ele>
        <time>2021-04-27T16:39:00Z</time>
      </trkpt>
      <trkpt lat="45.7353" lon="4.6219">
        <ele>726.234</ele>
        <time>2021-04-27T16:39:03Z</time>
      </trkpt>
      <trkpt lat="45.73531" lon="4.62183">
        <ele>726.442</ele>
        <time>2021-04-27T16:39:06Z</time>
      </trkpt>
      <trkpt lat="45.73532" lon="4.62176">
        <ele>726.771</ele>
        <time>2021-04-27T16:39:09Z</time>
      </trkpt>
      <trkpt lat="45.73533" lon="4.62169">
        <ele>727.083</ele>
        <time>2021-04-27T16:39:12Z</time>
      </trkpt>
      <trkpt lat="45.73534" lon="4.62162">
        <ele>727.335</ele>
        <time>2021-04-27T16:39:15Z</time>
      </trkpt>
      <trkpt lat="45.73535" lon="4.62153">
        <ele>727.769</ele>
        <time>2021-04-27T16:39:19Z</time>
      </trkpt>
      <trkpt lat="45.73536" lon="4.62144">
        <ele>728.197</ele>
        <time>2021-04-27T16:39:22Z</time>
      </trkpt>
      <trkpt lat="45.73537" lon="4.62134">
        <ele>728.623</ele>
        <time>2021-04-27T16:39:25Z</time>
      </trkpt>
      <trkpt lat="45.73538" lon="4.62127">
        <ele>729.025</ele>
        <time>2021-04-27T16:39:27Z</time>
      </trkpt>
      <trkpt lat="45.73538" lon="4.62119">
        <ele>729.408</ele>
        <time>2021-04-27T16:39:29Z</time>
      </trkpt>
      <trkpt lat="45.73538" lon="4.6211">
        <ele>729.896</ele>
        <time>2021-04-27T16:39:31Z</time>
      </trkpt>
      <trkpt lat="45.73541" lon="4.62101">
        <ele>729.97</ele>
        <time>2021-04-27T16:39:33Z</time>
      </trkpt>
      <trkpt lat="45.73541" lon="4.62093">
        <ele>729.875</ele>
        <time>2021-04-27T16:39:35Z</time>
      </trkpt>
      <trkpt lat="45.73542" lon="4.62083">
        <ele>729.723</ele>
        <time>2021-04-27T16:39:37Z</time>
      </trkpt>
      <trkpt lat="45.73544" lon="4.62075">
        <ele>729.622</ele>
        <time>2021-04-27T16:39:39Z</time>
      </trkpt>
      <trkpt lat="45.73544" lon="4.62065">
        <ele>729.684</ele>
        <time>2021-04-27T16:39:41Z</time>
      </trkpt>
      <trkpt lat="45.73545" lon="4.62055">
        <ele>729.786</ele>
        <time>2021-04-27T16:39:42Z</time>
      </trkpt>
      <trkpt lat="45.73546" lon="4.62047">
        <ele>729.88</ele>
        <time>2021-04-27T16:39:43Z</time>
      </trkpt>
      <trkpt lat="45.73548" lon="4.6204">
        <ele>729.978</ele>
        <time>2021-04-27T16:39:44Z</time>
      </trkpt>
      <trkpt lat="45.7355" lon="4.62031">
        <ele>730.133</ele>
        <time>2021-04-27T16:39:46Z</time>
      </trkpt>
      <trkpt lat="45.73551" lon="4.62022">
        <ele>730.226</ele>
        <time>2021-04-27T16:39:49Z</time>
      </trkpt>
      <trkpt lat="45.73552" lon="4.62013">
        <ele>730.108</ele>
        <time>2021-04-27T16:39:53Z</time>
      </trkpt>
      <trkpt lat="45.73553" lon="4.62004">
        <ele>730.244</ele>
        <time>2021-04-27T16:39:55Z</time>
      </trkpt>
      <trkpt lat="45.73555" lon="4.61994">
        <ele>730.488</ele>
        <time>2021-04-27T16:39:57Z</time>
      </trkpt>
      <trkpt lat="45.73556" lon="4.61987">
        <ele>730.533</ele>
        <time>2021-04-27T16:39:59Z</time>
      </trkpt>
      <trkpt lat="45.73557" lon="4.61979">
        <ele>730.671</ele>
        <time>2021-04-27T16:40:01Z</time>
      </trkpt>
      <trkpt lat="45.73558" lon="4.6197">
        <ele>730.84</ele>
        <time>2021-04-27T16:40:03Z</time>
      </trkpt>
      <trkpt lat="45.73558" lon="4.61961">
        <ele>731.042</ele>
        <time>2021-04-27T16:40:05Z</time>
      </trkpt>
      <trkpt lat="45.7356" lon="4.61952">
        <ele>731.314</ele>
        <time>2021-04-27T16:40:07Z</time>
      </trkpt>
      <trkpt lat="45.73561" lon="4.61939">
        <ele>731.618</ele>
        <time>2021-04-27T16:40:09Z</time>
      </trkpt>
      <trkpt lat="45.73562" lon="4.61932">
        <ele>731.937</ele>
        <time>2021-04-27T16:40:11Z</time>
      </trkpt>
      <trkpt lat="45.73563" lon="4.61925">
        <ele>732.349</ele>
        <time>2021-04-27T16:40:14Z</time>
      </trkpt>
      <trkpt lat="45.73564" lon="4.61916">
        <ele>732.713</ele>
        <time>2021-04-27T16:40:16Z</time>
      </trkpt>
      <trkpt lat="45.73565" lon="4.61909">
        <ele>732.908</ele>
        <time>2021-04-27T16:40:17Z</time>
      </trkpt>
      <trkpt lat="45.73566" lon="4.61895">
        <ele>733.42</ele>
        <time>2021-04-27T16:40:19Z</time>
      </trkpt>
      <trkpt lat="45.73566" lon="4.61887">
        <ele>733.674</ele>
        <time>2021-04-27T16:40:20Z</time>
      </trkpt>
      <trkpt lat="45.73567" lon="4.61879">
        <ele>733.799</ele>
        <time>2021-04-27T16:40:21Z</time>
      </trkpt>
      <trkpt lat="45.73568" lon="4.6187">
        <ele>733.797</ele>
        <time>2021-04-27T16:40:22Z</time>
      </trkpt>
      <trkpt lat="45.7357" lon="4.61862">
        <ele>733.636</ele>
        <time>2021-04-27T16:40:23Z</time>
      </trkpt>
      <trkpt lat="45.73571" lon="4.61856">
        <ele>733.528</ele>
        <time>2021-04-27T16:40:24Z</time>
      </trkpt>
      <trkpt lat="45.73572" lon="4.61845">
        <ele>733.42</ele>
        <time>2021-04-27T16:40:25Z</time>
      </trkpt>
      <trkpt lat="45.73574" lon="4.61835">
        <ele>733.444</ele>
        <time>2021-04-27T16:40:26Z</time>
      </trkpt>
      <trkpt lat="45.73577" lon="4.61822">
        <ele>733.414</ele>
        <time>2021-04-27T16:40:27Z</time>
      </trkpt>
      <trkpt lat="45.73581" lon="4.61809">
        <ele>733.754</ele>
        <time>2021-04-27T16:40:28Z</time>
      </trkpt>
      <trkpt lat="45.73584" lon="4.618">
        <ele>733.909</ele>
        <time>2021-04-27T16:40:29Z</time>
      </trkpt>
      <trkpt lat="45.73586" lon="4.61793">
        <ele>733.908</ele>
        <time>2021-04-27T16:40:30Z</time>
      </trkpt>
      <trkpt lat="45.73589" lon="4.61788">
        <ele>733.848</ele>
        <time>2021-04-27T16:40:32Z</time>
      </trkpt>
      <trkpt lat="45.73594" lon="4.61781">
        <ele>733.052</ele>
        <time>2021-04-27T16:40:44Z</time>
      </trkpt>
      <trkpt lat="45.73598" lon="4.61774">
        <ele>733.277</ele>
        <time>2021-04-27T16:40:46Z</time>
      </trkpt>
      <trkpt lat="45.73602" lon="4.61769">
        <ele>733.385</ele>
        <time>2021-04-27T16:40:47Z</time>
      </trkpt>
      <trkpt lat="45.73606" lon="4.61763">
        <ele>733.374</ele>
        <time>2021-04-27T16:40:49Z</time>
      </trkpt>
      <trkpt lat="45.7361" lon="4.61759">
        <ele>733.346</ele>
        <time>2021-04-27T16:40:49Z</time>
      </trkpt>
      <trkpt lat="45.73614" lon="4.61755">
        <ele>733.298</ele>
        <time>2021-04-27T16:40:50Z</time>
      </trkpt>
      <trkpt lat="45.73619" lon="4.61749">
        <ele>733.112</ele>
        <time>2021-04-27T16:40:51Z</time>
      </trkpt>
      <trkpt lat="45.73623" lon="4.61745">
        <ele>733.041</ele>
        <time>2021-04-27T16:40:52Z</time>
      </trkpt>
      <trkpt lat="45.73628" lon="4.61741">
        <ele>732.981</ele>
        <time>2021-04-27T16:40:53Z</time>
      </trkpt>
      <trkpt lat="45.73633" lon="4.61736">
        <ele>732.809</ele>
        <time>2021-04-27T16:40:54Z</time>
      </trkpt>
      <trkpt lat="45.73637" lon="4.61731">
        <ele>732.708</ele>
        <time>2021-04-27T16:40:55Z</time>
      </trkpt>
      <trkpt lat="45.73641" lon="4.61725">
        <ele>732.641</ele>
        <time>2021-04-27T16:40:56Z</time>
      </trkpt>
      <trkpt lat="45.73646" lon="4.61719">
        <ele>732.615</ele>
        <time>2021-04-27T16:40:57Z</time>
      </trkpt>
      <trkpt lat="45.73651" lon="4.61713">
        <ele>732.68</ele>
        <time>2021-04-27T16:40:58Z</time>
      </trkpt>
      <trkpt lat="45.73656" lon="4.61707">
        <ele>732.718</ele>
        <time>2021-04-27T16:40:59Z</time>
      </trkpt>
      <trkpt lat="45.7366" lon="4.617">
        <ele>732.997</ele>
        <time>2021-04-27T16:41:00Z</time>
      </trkpt>
      <trkpt lat="45.73663" lon="4.61693">
        <ele>732.949</ele>
        <time>2021-04-27T16:41:01Z</time>
      </trkpt>
      <trkpt lat="45.73666" lon="4.61687">
        <ele>732.961</ele>
        <time>2021-04-27T16:41:02Z</time>
      </trkpt>
      <trkpt lat="45.73669" lon="4.61676">
        <ele>732.775</ele>
        <time>2021-04-27T16:41:04Z</time>
      </trkpt>
      <trkpt lat="45.73671" lon="4.61665">
        <ele>732.519</ele>
        <time>2021-04-27T16:41:06Z</time>
      </trkpt>
      <trkpt lat="45.73672" lon="4.61656">
        <ele>732.509</ele>
        <time>2021-04-27T16:41:08Z</time>
      </trkpt>
      <trkpt lat="45.73672" lon="4.61648">
        <ele>732.619</ele>
        <time>2021-04-27T16:41:11Z</time>
      </trkpt>
      <trkpt lat="45.73674" lon="4.61641">
        <ele>732.708</ele>
        <time>2021-04-27T16:41:14Z</time>
      </trkpt>
      <trkpt lat="45.73677" lon="4.61635">
        <ele>733.298</ele>
        <time>2021-04-27T16:41:16Z</time>
      </trkpt>
      <trkpt lat="45.73684" lon="4.61626">
        <ele>734.322</ele>
        <time>2021-04-27T16:41:25Z</time>
      </trkpt>
      <trkpt lat="45.73691" lon="4.61618">
        <ele>734.687</ele>
        <time>2021-04-27T16:41:26Z</time>
      </trkpt>
      <trkpt lat="45.73697" lon="4.61609">
        <ele>735.155</ele>
        <time>2021-04-27T16:41:27Z</time>
      </trkpt>
      <trkpt lat="45.73703" lon="4.61598">
        <ele>735.894</ele>
        <time>2021-04-27T16:41:28Z</time>
      </trkpt>
      <trkpt lat="45.73709" lon="4.61585">
        <ele>736.836</ele>
        <time>2021-04-27T16:41:29Z</time>
      </trkpt>
      <trkpt lat="45.73714" lon="4.61572">
        <ele>738.068</ele>
        <time>2021-04-27T16:41:30Z</time>
      </trkpt>
      <trkpt lat="45.73718" lon="4.61566">
        <ele>739.232</ele>
        <time>2021-04-27T16:41:31Z</time>
      </trkpt>
      <trkpt lat="45.73724" lon="4.61559">
        <ele>740.661</ele>
        <time>2021-04-27T16:41:32Z</time>
      </trkpt>
      <trkpt lat="45.73732" lon="4.61554">
        <ele>742.121</ele>
        <time>2021-04-27T16:41:33Z</time>
      </trkpt>
      <trkpt lat="45.73741" lon="4.61551">
        <ele>743.513</ele>
        <time>2021-04-27T16:41:34Z</time>
      </trkpt>
      <trkpt lat="45.73749" lon="4.61551">
        <ele>744.908</ele>
        <time>2021-04-27T16:41:35Z</time>
      </trkpt>
      <trkpt lat="45.73758" lon="4.61551">
        <ele>746.423</ele>
        <time>2021-04-27T16:41:36Z</time>
      </trkpt>
      <trkpt lat="45.73768" lon="4.61551">
        <ele>747.957</ele>
        <time>2021-04-27T16:41:37Z</time>
      </trkpt>
      <trkpt lat="45.73778" lon="4.61551">
        <ele>749.372</ele>
        <time>2021-04-27T16:41:38Z</time>
      </trkpt>
      <trkpt lat="45.73786" lon="4.61552">
        <ele>750.66</ele>
        <time>2021-04-27T16:41:39Z</time>
      </trkpt>
      <trkpt lat="45.73795" lon="4.61553">
        <ele>751.719</ele>
        <time>2021-04-27T16:41:40Z</time>
      </trkpt>
      <trkpt lat="45.73801" lon="4.61553">
        <ele>752.551</ele>
        <time>2021-04-27T16:41:41Z</time>
      </trkpt>
      <trkpt lat="45.73805" lon="4.61554">
        <ele>753.013</ele>
        <time>2021-04-27T16:41:42Z</time>
      </trkpt>
      <trkpt lat="45.7381" lon="4.61553">
        <ele>753.327</ele>
        <time>2021-04-27T16:41:43Z</time>
      </trkpt>
      <trkpt lat="45.73815" lon="4.61553">
        <ele>753.425</ele>
        <time>2021-04-27T16:41:44Z</time>
      </trkpt>
      <trkpt lat="45.73823" lon="4.61551">
        <ele>753.426</ele>
        <time>2021-04-27T16:41:46Z</time>
      </trkpt>
      <trkpt lat="45.73828" lon="4.6155">
        <ele>753.408</ele>
        <time>2021-04-27T16:41:47Z</time>
      </trkpt>
      <trkpt lat="45.73834" lon="4.61548">
        <ele>753.408</ele>
        <time>2021-04-27T16:41:48Z</time>
      </trkpt>
      <trkpt lat="45.7384" lon="4.61544">
        <ele>753.579</ele>
        <time>2021-04-27T16:41:49Z</time>
      </trkpt>
      <trkpt lat="45.73846" lon="4.6154">
        <ele>753.653</ele>
        <time>2021-04-27T16:41:50Z</time>
      </trkpt>
      <trkpt lat="45.73852" lon="4.61535">
        <ele>753.848</ele>
        <time>2021-04-27T16:41:51Z</time>
      </trkpt>
      <trkpt lat="45.73858" lon="4.6153">
        <ele>754.086</ele>
        <time>2021-04-27T16:41:52Z</time>
      </trkpt>
      <trkpt lat="45.73864" lon="4.61522">
        <ele>754.385</ele>
        <time>2021-04-27T16:41:53Z</time>
      </trkpt>
      <trkpt lat="45.7387" lon="4.61513">
        <ele>754.777</ele>
        <time>2021-04-27T16:41:54Z</time>
      </trkpt>
      <trkpt lat="45.73875" lon="4.61504">
        <ele>755.149</ele>
        <time>2021-04-27T16:41:55Z</time>
      </trkpt>
      <trkpt lat="45.73882" lon="4.61493">
        <ele>755.613</ele>
        <time>2021-04-27T16:41:56Z</time>
      </trkpt>
      <trkpt lat="45.73888" lon="4.61483">
        <ele>756.271</ele>
        <time>2021-04-27T16:41:57Z</time>
      </trkpt>
      <trkpt lat="45.73895" lon="4.61472">
        <ele>756.841</ele>
        <time>2021-04-27T16:41:58Z</time>
      </trkpt>
      <trkpt lat="45.73902" lon="4.61462">
        <ele>757.215</ele>
        <time>2021-04-27T16:41:59Z</time>
      </trkpt>
      <trkpt lat="45.73909" lon="4.61452">
        <ele>757.608</ele>
        <time>2021-04-27T16:42:00Z</time>
      </trkpt>
      <trkpt lat="45.73916" lon="4.61445">
        <ele>757.864</ele>
        <time>2021-04-27T16:42:01Z</time>
      </trkpt>
      <trkpt lat="45.73923" lon="4.61437">
        <ele>758.048</ele>
        <time>2021-04-27T16:42:02Z</time>
      </trkpt>
      <trkpt lat="45.73932" lon="4.61432">
        <ele>758.253</ele>
        <time>2021-04-27T16:42:03Z</time>
      </trkpt>
      <trkpt lat="45.73943" lon="4.6143">
        <ele>758.581</ele>
        <time>2021-04-27T16:42:04Z</time>
      </trkpt>
      <trkpt lat="45.73955" lon="4.61427">
        <ele>758.89</ele>
        <time>2021-04-27T16:42:05Z</time>
      </trkpt>
      <trkpt lat="45.73965" lon="4.61426">
        <ele>759.372</ele>
        <time>2021-04-27T16:42:06Z</time>
      </trkpt>
      <trkpt lat="45.73975" lon="4.61425">
        <ele>759.834</ele>
        <time>2021-04-27T16:42:07Z</time>
      </trkpt>
      <trkpt lat="45.73984" lon="4.61425">
        <ele>760.388</ele>
        <time>2021-04-27T16:42:08Z</time>
      </trkpt>
      <trkpt lat="45.73992" lon="4.61425">
        <ele>760.933</ele>
        <time>2021-04-27T16:42:09Z</time>
      </trkpt>
      <trkpt lat="45.74002" lon="4.61422">
        <ele>761.623</ele>
        <time>2021-04-27T16:42:10Z</time>
      </trkpt>
      <trkpt lat="45.74011" lon="4.61418">
        <ele>762.415</ele>
        <time>2021-04-27T16:42:11Z</time>
      </trkpt>
      <trkpt lat="45.74019" lon="4.61413">
        <ele>763.208</ele>
        <time>2021-04-27T16:42:12Z</time>
      </trkpt>
      <trkpt lat="45.74024" lon="4.61407">
        <ele>764.14</ele>
        <time>2021-04-27T16:42:13Z</time>
      </trkpt>
      <trkpt lat="45.7403" lon="4.61401">
        <ele>764.974</ele>
        <time>2021-04-27T16:42:14Z</time>
      </trkpt>
      <trkpt lat="45.74039" lon="4.61395">
        <ele>765.879</ele>
        <time>2021-04-27T16:42:15Z</time>
      </trkpt>
      <trkpt lat="45.74045" lon="4.61389">
        <ele>766.787</ele>
        <time>2021-04-27T16:42:16Z</time>
      </trkpt>
      <trkpt lat="45.7405" lon="4.61381">
        <ele>767.656</ele>
        <time>2021-04-27T16:42:17Z</time>
      </trkpt>
      <trkpt lat="45.74055" lon="4.61373">
        <ele>768.538</ele>
        <time>2021-04-27T16:42:18Z</time>
      </trkpt>
      <trkpt lat="45.74061" lon="4.61365">
        <ele>769.47</ele>
        <time>2021-04-27T16:42:19Z</time>
      </trkpt>
      <trkpt lat="45.74066" lon="4.61356">
        <ele>770.274</ele>
        <time>2021-04-27T16:42:20Z</time>
      </trkpt>
      <trkpt lat="45.7407" lon="4.61346">
        <ele>771.033</ele>
        <time>2021-04-27T16:42:21Z</time>
      </trkpt>
      <trkpt lat="45.74074" lon="4.61338">
        <ele>771.923</ele>
        <time>2021-04-27T16:42:22Z</time>
      </trkpt>
      <trkpt lat="45.74079" lon="4.61329">
        <ele>772.915</ele>
        <time>2021-04-27T16:42:23Z</time>
      </trkpt>
      <trkpt lat="45.74084" lon="4.6132">
        <ele>773.908</ele>
        <time>2021-04-27T16:42:24Z</time>
      </trkpt>
      <trkpt lat="45.74089" lon="4.61313">
        <ele>774.92</ele>
        <time>2021-04-27T16:42:25Z</time>
      </trkpt>
      <trkpt lat="45.74093" lon="4.61306">
        <ele>775.994</ele>
        <time>2021-04-27T16:42:26Z</time>
      </trkpt>
      <trkpt lat="45.74097" lon="4.61301">
        <ele>776.799</ele>
        <time>2021-04-27T16:42:27Z</time>
      </trkpt>
      <trkpt lat="45.74101" lon="4.61296">
        <ele>777.387</ele>
        <time>2021-04-27T16:42:28Z</time>
      </trkpt>
      <trkpt lat="45.74107" lon="4.6129">
        <ele>778.366</ele>
        <time>2021-04-27T16:42:30Z</time>
      </trkpt>
    </trkseg>
  </trk>
  <trk>
    <name><![CDATA[Les Verchères - Pollionnay]]></name>
    <extensions>
      <line xmlns="http://www.topografix.com/GPX/gpx_style/0/2">
        <color>008888</color>
        <width>4</width>
      </line>
    </extensions>
    <trkseg>
      <trkpt lat="45.74" lon="4.59803">
        <ele>829.872</ele>
        <time>2021-05-25T18:49:57Z</time>
      </trkpt>
      <trkpt lat="45.74" lon="4.59803">
        <ele>829.872</ele>
        <time>2021-05-25T18:49:57Z</time>
      </trkpt>
      <trkpt lat="45.74105" lon="4.59705">
        <ele>829.813</ele>
        <time>2021-05-25T18:50:38Z</time>
      </trkpt>
      <trkpt lat="45.74102" lon="4.59842">
        <ele>821.814</ele>
        <time>2021-05-25T18:51:00Z</time>
      </trkpt>
      <trkpt lat="45.74073" lon="4.59906">
        <ele>827.408</ele>
        <time>2021-05-25T18:51:12Z</time>
      </trkpt>
      <trkpt lat="45.74063" lon="4.59978">
        <ele>829.134</ele>
        <time>2021-05-25T18:51:27Z</time>
      </trkpt>
      <trkpt lat="45.741" lon="4.60254">
        <ele>823.271</ele>
        <time>2021-05-25T18:52:17Z</time>
      </trkpt>
      <trkpt lat="45.74058" lon="4.60355">
        <ele>825.077</ele>
        <time>2021-05-25T18:52:40Z</time>
      </trkpt>
      <trkpt lat="45.74098" lon="4.60377">
        <ele>816.421</ele>
        <time>2021-05-25T18:53:00Z</time>
      </trkpt>
      <trkpt lat="45.74124" lon="4.60376">
        <ele>808.915</ele>
        <time>2021-05-25T18:53:18Z</time>
      </trkpt>
      <trkpt lat="45.74234" lon="4.60548">
        <ele>810.19</ele>
        <time>2021-05-25T18:54:52Z</time>
      </trkpt>
      <trkpt lat="45.74313" lon="4.60569">
        <ele>794.698</ele>
        <time>2021-05-25T18:55:50Z</time>
      </trkpt>
      <trkpt lat="45.74516" lon="4.60738">
        <ele>760.191</ele>
        <time>2021-05-25T18:57:26Z</time>
      </trkpt>
      <trkpt lat="45.74658" lon="4.61011">
        <ele>755.619</ele>
        <time>2021-05-25T18:58:07Z</time>
      </trkpt>
      <trkpt lat="45.74759" lon="4.61133">
        <ele>765.009</ele>
        <time>2021-05-25T18:58:22Z</time>
      </trkpt>
      <trkpt lat="45.74804" lon="4.61085">
        <ele>763.519</ele>
        <time>2021-05-25T18:58:35Z</time>
      </trkpt>
      <trkpt lat="45.7493" lon="4.60753">
        <ele>727.208</ele>
        <time>2021-05-25T19:00:39Z</time>
      </trkpt>
      <trkpt lat="45.75001" lon="4.60782">
        <ele>725.388</ele>
        <time>2021-05-25T19:00:57Z</time>
      </trkpt>
      <trkpt lat="45.75173" lon="4.60784">
        <ele>731.015</ele>
        <time>2021-05-25T19:01:20Z</time>
      </trkpt>
      <trkpt lat="45.75207" lon="4.60799">
        <ele>732.421</ele>
        <time>2021-05-25T19:01:27Z</time>
      </trkpt>
      <trkpt lat="45.75331" lon="4.60999">
        <ele>736.715</ele>
        <time>2021-05-25T19:01:53Z</time>
      </trkpt>
      <trkpt lat="45.75435" lon="4.61032">
        <ele>725.789</ele>
        <time>2021-05-25T19:02:29Z</time>
      </trkpt>
      <trkpt lat="45.75538" lon="4.61108">
        <ele>736.244</ele>
        <time>2021-05-25T19:02:50Z</time>
      </trkpt>
      <trkpt lat="45.75621" lon="4.61215">
        <ele>740.382</ele>
        <time>2021-05-25T19:03:07Z</time>
      </trkpt>
      <trkpt lat="45.75646" lon="4.61227">
        <ele>740.535</ele>
        <time>2021-05-25T19:03:23Z</time>
      </trkpt>
      <trkpt lat="45.7571" lon="4.61322">
        <ele>746.343</ele>
        <time>2021-05-25T19:04:20Z</time>
      </trkpt>
      <trkpt lat="45.75724" lon="4.61359">
        <ele>748.564</ele>
        <time>2021-05-25T19:04:33Z</time>
      </trkpt>
      <trkpt lat="45.75685" lon="4.6146">
        <ele>763.31</ele>
        <time>2021-05-25T19:04:59Z</time>
      </trkpt>
      <trkpt lat="45.75634" lon="4.61399">
        <ele>774.308</ele>
        <time>2021-05-25T19:05:29Z</time>
      </trkpt>
      <trkpt lat="45.75587" lon="4.61401">
        <ele>782.231</ele>
        <time>2021-05-25T19:05:50Z</time>
      </trkpt>
      <trkpt lat="45.75624" lon="4.61567">
        <ele>790.948</ele>
        <time>2021-05-25T19:06:19Z</time>
      </trkpt>
      <trkpt lat="45.75623" lon="4.6174">
        <ele>796.064</ele>
        <time>2021-05-25T19:06:27Z</time>
      </trkpt>
      <trkpt lat="45.75644" lon="4.61815">
        <ele>795.948</ele>
        <time>2021-05-25T19:06:31Z</time>
      </trkpt>
      <trkpt lat="45.75822" lon="4.6216">
        <ele>796.322</ele>
        <time>2021-05-25T19:06:51Z</time>
      </trkpt>
      <trkpt lat="45.75951" lon="4.62285">
        <ele>796.177</ele>
        <time>2021-05-25T19:07:02Z</time>
      </trkpt>
      <trkpt lat="45.76023" lon="4.62406">
        <ele>792.875</ele>
        <time>2021-05-25T19:07:08Z</time>
      </trkpt>
      <trkpt lat="45.76178" lon="4.62606">
        <ele>789.098</ele>
        <time>2021-05-25T19:07:17Z</time>
      </trkpt>
      <trkpt lat="45.76228" lon="4.62647">
        <ele>781.928</ele>
        <time>2021-05-25T19:07:20Z</time>
      </trkpt>
      <trkpt lat="45.76289" lon="4.62662">
        <ele>772.989</ele>
        <time>2021-05-25T19:07:24Z</time>
      </trkpt>
      <trkpt lat="45.76306" lon="4.62687">
        <ele>767.817</ele>
        <time>2021-05-25T19:07:26Z</time>
      </trkpt>
      <trkpt lat="45.76299" lon="4.62802">
        <ele>763.908</ele>
        <time>2021-05-25T19:07:31Z</time>
      </trkpt>
      <trkpt lat="45.76229" lon="4.63158">
        <ele>758.769</ele>
        <time>2021-05-25T19:07:44Z</time>
      </trkpt>
      <trkpt lat="45.76237" lon="4.63282">
        <ele>744.166</ele>
        <time>2021-05-25T19:07:50Z</time>
      </trkpt>
      <trkpt lat="45.76222" lon="4.63329">
        <ele>730.192</ele>
        <time>2021-05-25T19:08:04Z</time>
      </trkpt>
      <trkpt lat="45.76214" lon="4.635">
        <ele>714.656</ele>
        <time>2021-05-25T19:08:41Z</time>
      </trkpt>
      <trkpt lat="45.7624" lon="4.6371">
        <ele>694.38</ele>
        <time>2021-05-25T19:09:16Z</time>
      </trkpt>
      <trkpt lat="45.76273" lon="4.63818">
        <ele>679.155</ele>
        <time>2021-05-25T19:09:38Z</time>
      </trkpt>
      <trkpt lat="45.76305" lon="4.6387">
        <ele>670.983</ele>
        <time>2021-05-25T19:09:57Z</time>
      </trkpt>
      <trkpt lat="45.76345" lon="4.64137">
        <ele>635.786</ele>
        <time>2021-05-25T19:10:36Z</time>
      </trkpt>
      <trkpt lat="45.76391" lon="4.6423">
        <ele>623.022</ele>
        <time>2021-05-25T19:11:06Z</time>
      </trkpt>
      <trkpt lat="45.76391" lon="4.64262">
        <ele>620.062</ele>
        <time>2021-05-25T19:11:11Z</time>
      </trkpt>
      <trkpt lat="45.76519" lon="4.6436">
        <ele>590.708</ele>
        <time>2021-05-25T19:11:33Z</time>
      </trkpt>
      <trkpt lat="45.76546" lon="4.64432">
        <ele>576.408</ele>
        <time>2021-05-25T19:11:47Z</time>
      </trkpt>
      <trkpt lat="45.76639" lon="4.6479">
        <ele>547.179</ele>
        <time>2021-05-25T19:12:35Z</time>
      </trkpt>
      <trkpt lat="45.76658" lon="4.65062">
        <ele>521.116</ele>
        <time>2021-05-25T19:13:19Z</time>
      </trkpt>
    </trkseg>
  </trk>
  <trk>
    <name><![CDATA[Toutes traces 4x4 Côté Brindas_7]]></name>
    <trkseg>
      <trkpt lat="45.65236" lon="4.71279">
        <ele>300.473</ele>
        <time>2020-06-14T10:20:30Z</time>
      </trkpt>
      <trkpt lat="45.65187" lon="4.71217">
        <ele>300.488</ele>
        <time>2020-06-14T10:20:43Z</time>
      </trkpt>
      <trkpt lat="45.64996" lon="4.71048">
        <ele>311.824</ele>
        <time>2020-06-14T10:21:36Z</time>
      </trkpt>
      <trkpt lat="45.64843" lon="4.70874">
        <ele>319.926</ele>
        <time>2020-06-14T10:22:07Z</time>
      </trkpt>
      <trkpt lat="45.64741" lon="4.70791">
        <ele>331.408</ele>
        <time>2020-06-14T10:22:28Z</time>
      </trkpt>
      <trkpt lat="45.64559" lon="4.70555">
        <ele>348.043</ele>
        <time>2020-06-14T10:23:30Z</time>
      </trkpt>
      <trkpt lat="45.6446" lon="4.70386">
        <ele>368.119</ele>
        <time>2020-06-14T10:27:52Z</time>
      </trkpt>
      <trkpt lat="45.64239" lon="4.70117">
        <ele>382.618</ele>
        <time>2020-06-14T10:29:00Z</time>
      </trkpt>
      <trkpt lat="45.64183" lon="4.69975">
        <ele>383.339</ele>
        <time>2020-06-14T10:29:27Z</time>
      </trkpt>
      <trkpt lat="45.64128" lon="4.69879">
        <ele>382.479</ele>
        <time>2020-06-14T10:29:52Z</time>
      </trkpt>
      <trkpt lat="45.64111" lon="4.69924">
        <ele>378.893</ele>
        <time>2020-06-14T10:30:03Z</time>
      </trkpt>
      <trkpt lat="45.64112" lon="4.69986">
        <ele>373.965</ele>
        <time>2020-06-14T10:30:11Z</time>
      </trkpt>
      <trkpt lat="45.64174" lon="4.70309">
        <ele>366.237</ele>
        <time>2020-06-14T10:30:38Z</time>
      </trkpt>
      <trkpt lat="45.64174" lon="4.70411">
        <ele>360.419</ele>
        <time>2020-06-14T10:30:45Z</time>
      </trkpt>
      <trkpt lat="45.63974" lon="4.70674">
        <ele>351.109</ele>
        <time>2020-06-14T10:31:12Z</time>
      </trkpt>
      <trkpt lat="45.63899" lon="4.70736">
        <ele>347.919</ele>
        <time>2020-06-14T10:31:38Z</time>
      </trkpt>
      <trkpt lat="45.6374" lon="4.70993">
        <ele>343.408</ele>
        <time>2020-06-14T10:32:41Z</time>
      </trkpt>
      <trkpt lat="45.63693" lon="4.71041">
        <ele>343.726</ele>
        <time>2020-06-14T10:33:05Z</time>
      </trkpt>
      <trkpt lat="45.6368" lon="4.70899">
        <ele>344.632</ele>
        <time>2020-06-14T10:33:28Z</time>
      </trkpt>
      <trkpt lat="45.6363" lon="4.70658">
        <ele>340.871</ele>
        <time>2020-06-14T10:33:58Z</time>
      </trkpt>
      <trkpt lat="45.63563" lon="4.70454">
        <ele>341.032</ele>
        <time>2020-06-14T10:34:33Z</time>
      </trkpt>
      <trkpt lat="45.63516" lon="4.70118">
        <ele>346.112</ele>
        <time>2020-06-14T10:35:38Z</time>
      </trkpt>
      <trkpt lat="45.6347" lon="4.69955">
        <ele>347.656</ele>
        <time>2020-06-14T10:36:14Z</time>
      </trkpt>
      <trkpt lat="45.63448" lon="4.69687">
        <ele>350.678</ele>
        <time>2020-06-14T10:36:58Z</time>
      </trkpt>
      <trkpt lat="45.63425" lon="4.69593">
        <ele>354.04</ele>
        <time>2020-06-14T10:37:16Z</time>
      </trkpt>
      <trkpt lat="45.63431" lon="4.69512">
        <ele>355.865</ele>
        <time>2020-06-14T10:37:34Z</time>
      </trkpt>
      <trkpt lat="45.63398" lon="4.69253">
        <ele>358.868</ele>
        <time>2020-06-14T10:38:02Z</time>
      </trkpt>
      <trkpt lat="45.63397" lon="4.69068">
        <ele>364.514</ele>
        <time>2020-06-14T10:38:29Z</time>
      </trkpt>
      <trkpt lat="45.63302" lon="4.6883">
        <ele>365.008</ele>
        <time>2020-06-14T10:38:52Z</time>
      </trkpt>
      <trkpt lat="45.63271" lon="4.68691">
        <ele>362.681</ele>
        <time>2020-06-14T10:39:02Z</time>
      </trkpt>
      <trkpt lat="45.63266" lon="4.68596">
        <ele>362.237</ele>
        <time>2020-06-14T10:39:11Z</time>
      </trkpt>
      <trkpt lat="45.63295" lon="4.68348">
        <ele>363.756</ele>
        <time>2020-06-14T10:40:16Z</time>
      </trkpt>
      <trkpt lat="45.6328" lon="4.68166">
        <ele>372.447</ele>
        <time>2020-06-14T10:40:42Z</time>
      </trkpt>
      <trkpt lat="45.63241" lon="4.67969">
        <ele>380.387</ele>
        <time>2020-06-14T10:41:11Z</time>
      </trkpt>
      <trkpt lat="45.63171" lon="4.67762">
        <ele>378.161</ele>
        <time>2020-06-14T10:41:59Z</time>
      </trkpt>
      <trkpt lat="45.63184" lon="4.67758">
        <ele>376.743</ele>
        <time>2020-06-14T10:42:05Z</time>
      </trkpt>
      <trkpt lat="45.63297" lon="4.67856">
        <ele>386.835</ele>
        <time>2020-06-14T10:42:21Z</time>
      </trkpt>
      <trkpt lat="45.6331" lon="4.67772">
        <ele>388.258</ele>
        <time>2020-06-14T10:42:37Z</time>
      </trkpt>
      <trkpt lat="45.63512" lon="4.67824">
        <ele>399.652</ele>
        <time>2020-06-14T10:43:15Z</time>
      </trkpt>
      <trkpt lat="45.6398" lon="4.67803">
        <ele>421.617</ele>
        <time>2020-06-14T10:45:29Z</time>
      </trkpt>
      <trkpt lat="45.64169" lon="4.67825">
        <ele>421.708</ele>
        <time>2020-06-14T10:45:50Z</time>
      </trkpt>
      <trkpt lat="45.6426" lon="4.67851">
        <ele>424.77</ele>
        <time>2020-06-14T10:46:03Z</time>
      </trkpt>
      <trkpt lat="45.64294" lon="4.67827">
        <ele>425.096</ele>
        <time>2020-06-14T10:46:14Z</time>
      </trkpt>
      <trkpt lat="45.64471" lon="4.67894">
        <ele>425.935</ele>
        <time>2020-06-14T10:46:49Z</time>
      </trkpt>
      <trkpt lat="45.64569" lon="4.67901">
        <ele>424.696</ele>
        <time>2020-06-14T10:47:01Z</time>
      </trkpt>
      <trkpt lat="45.64636" lon="4.67951">
        <ele>426.656</ele>
        <time>2020-06-14T10:47:11Z</time>
      </trkpt>
      <trkpt lat="45.64733" lon="4.67955">
        <ele>429.04</ele>
        <time>2020-06-14T10:47:26Z</time>
      </trkpt>
      <trkpt lat="45.64808" lon="4.6794">
        <ele>429.092</ele>
        <time>2020-06-14T10:47:35Z</time>
      </trkpt>
      <trkpt lat="45.64876" lon="4.67965">
        <ele>430.084</ele>
        <time>2020-06-14T10:47:42Z</time>
      </trkpt>
      <trkpt lat="45.64939" lon="4.67958">
        <ele>432.313</ele>
        <time>2020-06-14T10:47:52Z</time>
      </trkpt>
      <trkpt lat="45.65116" lon="4.67895">
        <ele>426.743</ele>
        <time>2020-06-14T10:48:10Z</time>
      </trkpt>
      <trkpt lat="45.65226" lon="4.67831">
        <ele>423.207</ele>
        <time>2020-06-14T10:48:23Z</time>
      </trkpt>
      <trkpt lat="45.65283" lon="4.67829">
        <ele>422.008</ele>
        <time>2020-06-14T10:48:44Z</time>
      </trkpt>
      <trkpt lat="45.65324" lon="4.67805">
        <ele>421.896</ele>
        <time>2020-06-14T10:49:03Z</time>
      </trkpt>
      <trkpt lat="45.65326" lon="4.67786">
        <ele>422.832</ele>
        <time>2020-06-14T10:49:10Z</time>
      </trkpt>
      <trkpt lat="45.65266" lon="4.67717">
        <ele>429.911</ele>
        <time>2020-06-14T10:49:32Z</time>
      </trkpt>
      <trkpt lat="45.65181" lon="4.67678">
        <ele>435.912</ele>
        <time>2020-06-14T10:49:50Z</time>
      </trkpt>
      <trkpt lat="45.65055" lon="4.67588">
        <ele>452.442</ele>
        <time>2020-06-14T10:50:24Z</time>
      </trkpt>
      <trkpt lat="45.64921" lon="4.67442">
        <ele>471.336</ele>
        <time>2020-06-14T10:51:06Z</time>
      </trkpt>
      <trkpt lat="45.64853" lon="4.67421">
        <ele>474.228</ele>
        <time>2020-06-14T10:51:27Z</time>
      </trkpt>
      <trkpt lat="45.64844" lon="4.67526">
        <ele>472.58</ele>
        <time>2020-06-14T10:51:57Z</time>
      </trkpt>
      <trkpt lat="45.64712" lon="4.67536">
        <ele>481.067</ele>
        <time>2020-06-14T10:52:31Z</time>
      </trkpt>
      <trkpt lat="45.64735" lon="4.6751">
        <ele>457.081</ele>
        <time>2020-06-14T10:53:09Z</time>
      </trkpt>
      <trkpt lat="45.64735" lon="4.67474">
        <ele>442.419</ele>
        <time>2020-06-14T10:53:19Z</time>
      </trkpt>
      <trkpt lat="45.64659" lon="4.6734">
        <ele>438.608</ele>
        <time>2020-06-14T10:53:48Z</time>
      </trkpt>
      <trkpt lat="45.6466" lon="4.67293">
        <ele>438.641</ele>
        <time>2020-06-14T10:54:01Z</time>
      </trkpt>
      <trkpt lat="45.64708" lon="4.67484">
        <ele>438.657</ele>
        <time>2020-06-14T11:01:25Z</time>
      </trkpt>
      <trkpt lat="45.64651" lon="4.67203">
        <ele>454.676</ele>
        <time>2020-06-14T11:06:54Z</time>
      </trkpt>
      <trkpt lat="45.64689" lon="4.67115">
        <ele>486.667</ele>
        <time>2020-06-14T11:07:05Z</time>
      </trkpt>
      <trkpt lat="45.64725" lon="4.66973">
        <ele>499.377</ele>
        <time>2020-06-14T11:07:25Z</time>
      </trkpt>
      <trkpt lat="45.64749" lon="4.66705">
        <ele>508.151</ele>
        <time>2020-06-14T11:07:58Z</time>
      </trkpt>
      <trkpt lat="45.64804" lon="4.6647">
        <ele>516.873</ele>
        <time>2020-06-14T11:08:37Z</time>
      </trkpt>
      <trkpt lat="45.64916" lon="4.66161">
        <ele>535.045</ele>
        <time>2020-06-14T11:09:15Z</time>
      </trkpt>
      <trkpt lat="45.65012" lon="4.6601">
        <ele>538.925</ele>
        <time>2020-06-14T11:09:36Z</time>
      </trkpt>
      <trkpt lat="45.65003" lon="4.6587">
        <ele>540.326</ele>
        <time>2020-06-14T11:09:49Z</time>
      </trkpt>
      <trkpt lat="45.65029" lon="4.65655">
        <ele>548.508</ele>
        <time>2020-06-14T11:10:08Z</time>
      </trkpt>
      <trkpt lat="45.65029" lon="4.65447">
        <ele>560.108</ele>
        <time>2020-06-14T11:10:26Z</time>
      </trkpt>
      <trkpt lat="45.65097" lon="4.65319">
        <ele>568.047</ele>
        <time>2020-06-14T11:10:42Z</time>
      </trkpt>
      <trkpt lat="45.65115" lon="4.65254">
        <ele>573.193</ele>
        <time>2020-06-14T11:10:49Z</time>
      </trkpt>
      <trkpt lat="45.65128" lon="4.65058">
        <ele>578.582</ele>
        <time>2020-06-14T11:11:09Z</time>
      </trkpt>
      <trkpt lat="45.65177" lon="4.6477">
        <ele>558.083</ele>
        <time>2020-06-14T11:11:32Z</time>
      </trkpt>
      <trkpt lat="45.65563" lon="4.65216">
        <ele>541.443</ele>
        <time>2020-06-14T11:12:47Z</time>
      </trkpt>
      <trkpt lat="45.6569" lon="4.6503">
        <ele>526.547</ele>
        <time>2020-06-14T11:15:19Z</time>
      </trkpt>
      <trkpt lat="45.6575" lon="4.64982">
        <ele>523.649</ele>
        <time>2020-06-14T11:15:46Z</time>
      </trkpt>
      <trkpt lat="45.65957" lon="4.64434">
        <ele>516.061</ele>
        <time>2020-06-14T11:22:44Z</time>
      </trkpt>
      <trkpt lat="45.65987" lon="4.64324">
        <ele>465.995</ele>
        <time>2020-06-14T11:23:57Z</time>
      </trkpt>
      <trkpt lat="45.65949" lon="4.64243">
        <ele>453.149</ele>
        <time>2020-06-14T11:24:52Z</time>
      </trkpt>
      <trkpt lat="45.6593" lon="4.6423">
        <ele>448.923</ele>
        <time>2020-06-14T11:25:10Z</time>
      </trkpt>
      <trkpt lat="45.65927" lon="4.64173">
        <ele>447.908</ele>
        <time>2020-06-14T11:25:29Z</time>
      </trkpt>
      <trkpt lat="45.65961" lon="4.64128">
        <ele>440.744</ele>
        <time>2020-06-14T11:25:54Z</time>
      </trkpt>
      <trkpt lat="45.66029" lon="4.64102">
        <ele>423.52</ele>
        <time>2020-06-14T11:27:20Z</time>
      </trkpt>
      <trkpt lat="45.65992" lon="4.63996">
        <ele>411.079</ele>
        <time>2020-06-14T11:28:06Z</time>
      </trkpt>
      <trkpt lat="45.65989" lon="4.63944">
        <ele>407.87</ele>
        <time>2020-06-14T11:28:19Z</time>
      </trkpt>
      <trkpt lat="45.65964" lon="4.63912">
        <ele>407.77</ele>
        <time>2020-06-14T11:28:33Z</time>
      </trkpt>
      <trkpt lat="45.65926" lon="4.63952">
        <ele>401.984</ele>
        <time>2020-06-14T11:29:48Z</time>
      </trkpt>
      <trkpt lat="45.65787" lon="4.63939">
        <ele>408.316</ele>
        <time>2020-06-14T11:31:13Z</time>
      </trkpt>
      <trkpt lat="45.65715" lon="4.64033">
        <ele>427.838</ele>
        <time>2020-06-14T11:32:05Z</time>
      </trkpt>
      <trkpt lat="45.65576" lon="4.64137">
        <ele>454.284</ele>
        <time>2020-06-14T11:33:45Z</time>
      </trkpt>
      <trkpt lat="45.65469" lon="4.64277">
        <ele>496.707</ele>
        <time>2020-06-14T11:34:35Z</time>
      </trkpt>
      <trkpt lat="45.65387" lon="4.64275">
        <ele>505.217</ele>
        <time>2020-06-14T11:35:08Z</time>
      </trkpt>
      <trkpt lat="45.65259" lon="4.64321">
        <ele>528.308</ele>
        <time>2020-06-14T11:37:17Z</time>
      </trkpt>
      <trkpt lat="45.6514" lon="4.64437">
        <ele>544.213</ele>
        <time>2020-06-14T11:38:16Z</time>
      </trkpt>
      <trkpt lat="45.65063" lon="4.64458">
        <ele>546.879</ele>
        <time>2020-06-14T11:38:26Z</time>
      </trkpt>
      <trkpt lat="45.64943" lon="4.64245">
        <ele>559.118</ele>
        <time>2020-06-14T11:38:58Z</time>
      </trkpt>
      <trkpt lat="45.64892" lon="4.64244">
        <ele>559.349</ele>
        <time>2020-06-14T11:39:26Z</time>
      </trkpt>
      <trkpt lat="45.64849" lon="4.64154">
        <ele>555.119</ele>
        <time>2020-06-14T11:39:47Z</time>
      </trkpt>
      <trkpt lat="45.64786" lon="4.64123">
        <ele>553.283</ele>
        <time>2020-06-14T11:40:05Z</time>
      </trkpt>
      <trkpt lat="45.64685" lon="4.64154">
        <ele>548.245</ele>
        <time>2020-06-14T11:40:35Z</time>
      </trkpt>
      <trkpt lat="45.64614" lon="4.64118">
        <ele>542.227</ele>
        <time>2020-06-14T11:41:03Z</time>
      </trkpt>
      <trkpt lat="45.6456" lon="4.6422">
        <ele>544.742</ele>
        <time>2020-06-14T11:41:33Z</time>
      </trkpt>
      <trkpt lat="45.64488" lon="4.64248">
        <ele>549.122</ele>
        <time>2020-06-14T11:41:50Z</time>
      </trkpt>
      <trkpt lat="45.64497" lon="4.64083">
        <ele>550.914</ele>
        <time>2020-06-14T11:42:21Z</time>
      </trkpt>
      <trkpt lat="45.6448" lon="4.64013">
        <ele>551.608</ele>
        <time>2020-06-14T11:42:37Z</time>
      </trkpt>
      <trkpt lat="45.64225" lon="4.63961">
        <ele>556.449</ele>
        <time>2020-06-14T11:44:46Z</time>
      </trkpt>
      <trkpt lat="45.64186" lon="4.63912">
        <ele>548.315</ele>
        <time>2020-06-14T11:45:32Z</time>
      </trkpt>
      <trkpt lat="45.64177" lon="4.6383">
        <ele>541.294</ele>
        <time>2020-06-14T11:46:14Z</time>
      </trkpt>
      <trkpt lat="45.64131" lon="4.63921">
        <ele>523.865</ele>
        <time>2020-06-14T11:47:41Z</time>
      </trkpt>
      <trkpt lat="45.64117" lon="4.63799">
        <ele>513.135</ele>
        <time>2020-06-14T11:51:47Z</time>
      </trkpt>
      <trkpt lat="45.64128" lon="4.63744">
        <ele>509.459</ele>
        <time>2020-06-14T11:52:10Z</time>
      </trkpt>
      <trkpt lat="45.64154" lon="4.63712">
        <ele>511.141</ele>
        <time>2020-06-14T11:58:08Z</time>
      </trkpt>
      <trkpt lat="45.64148" lon="4.63721">
        <ele>515.113</ele>
        <time>2020-06-14T11:58:10Z</time>
      </trkpt>
      <trkpt lat="45.64143" lon="4.63702">
        <ele>521.736</ele>
        <time>2020-06-14T11:58:17Z</time>
      </trkpt>
      <trkpt lat="45.64118" lon="4.63689">
        <ele>518.217</ele>
        <time>2020-06-14T11:58:38Z</time>
      </trkpt>
      <trkpt lat="45.6409" lon="4.63586">
        <ele>505.218</ele>
        <time>2020-06-14T11:59:11Z</time>
      </trkpt>
      <trkpt lat="45.63992" lon="4.6375">
        <ele>509.608</ele>
        <time>2020-06-14T11:59:54Z</time>
      </trkpt>
      <trkpt lat="45.63926" lon="4.63774">
        <ele>509.528</ele>
        <time>2020-06-14T12:00:14Z</time>
      </trkpt>
      <trkpt lat="45.63903" lon="4.63799">
        <ele>510.694</ele>
        <time>2020-06-14T12:00:21Z</time>
      </trkpt>
      <trkpt lat="45.63836" lon="4.64099">
        <ele>498.753</ele>
        <time>2020-06-14T12:00:55Z</time>
      </trkpt>
      <trkpt lat="45.63765" lon="4.64215">
        <ele>489.274</ele>
        <time>2020-06-14T12:01:09Z</time>
      </trkpt>
      <trkpt lat="45.63711" lon="4.64102">
        <ele>495.024</ele>
        <time>2020-06-14T12:01:28Z</time>
      </trkpt>
      <trkpt lat="45.63588" lon="4.64062">
        <ele>495.278</ele>
        <time>2020-06-14T12:01:43Z</time>
      </trkpt>
      <trkpt lat="45.63509" lon="4.63987">
        <ele>495.27</ele>
        <time>2020-06-14T12:01:55Z</time>
      </trkpt>
      <trkpt lat="45.63431" lon="4.63948">
        <ele>495.262</ele>
        <time>2020-06-14T12:02:07Z</time>
      </trkpt>
      <trkpt lat="45.63352" lon="4.63964">
        <ele>479.212</ele>
        <time>2020-06-14T12:02:22Z</time>
      </trkpt>
      <trkpt lat="45.63337" lon="4.639">
        <ele>486.532</ele>
        <time>2020-06-14T12:02:43Z</time>
      </trkpt>
      <trkpt lat="45.63415" lon="4.63807">
        <ele>488.005</ele>
        <time>2020-06-14T12:03:02Z</time>
      </trkpt>
      <trkpt lat="45.63397" lon="4.63671">
        <ele>488.008</ele>
        <time>2020-06-14T12:03:13Z</time>
      </trkpt>
      <trkpt lat="45.63401" lon="4.6358">
        <ele>488.046</ele>
        <time>2020-06-14T12:03:19Z</time>
      </trkpt>
      <trkpt lat="45.63464" lon="4.63421">
        <ele>488.082</ele>
        <time>2020-06-14T12:03:29Z</time>
      </trkpt>
      <trkpt lat="45.63481" lon="4.63327">
        <ele>488.081</ele>
        <time>2020-06-14T12:03:35Z</time>
      </trkpt>
      <trkpt lat="45.63457" lon="4.63319">
        <ele>488.032</ele>
        <time>2020-06-14T12:03:38Z</time>
      </trkpt>
      <trkpt lat="45.63377" lon="4.63396">
        <ele>486.062</ele>
        <time>2020-06-14T12:03:48Z</time>
      </trkpt>
      <trkpt lat="45.63334" lon="4.63389">
        <ele>486.496</ele>
        <time>2020-06-14T12:03:52Z</time>
      </trkpt>
      <trkpt lat="45.63265" lon="4.63206">
        <ele>510.318</ele>
        <time>2020-06-14T12:04:05Z</time>
      </trkpt>
      <trkpt lat="45.63262" lon="4.63046">
        <ele>518.04</ele>
        <time>2020-06-14T12:04:16Z</time>
      </trkpt>
      <trkpt lat="45.63349" lon="4.62927">
        <ele>526.733</ele>
        <time>2020-06-14T12:04:28Z</time>
      </trkpt>
      <trkpt lat="45.63354" lon="4.62896">
        <ele>527.123</ele>
        <time>2020-06-14T12:04:30Z</time>
      </trkpt>
      <trkpt lat="45.63328" lon="4.62812">
        <ele>527.715</ele>
        <time>2020-06-14T12:04:37Z</time>
      </trkpt>
      <trkpt lat="45.63329" lon="4.62764">
        <ele>531.008</ele>
        <time>2020-06-14T12:04:41Z</time>
      </trkpt>
      <trkpt lat="45.63375" lon="4.62678">
        <ele>537.658</ele>
        <time>2020-06-14T12:04:52Z</time>
      </trkpt>
      <trkpt lat="45.63398" lon="4.62775">
        <ele>544.684</ele>
        <time>2020-06-14T12:05:09Z</time>
      </trkpt>
      <trkpt lat="45.63516" lon="4.62924">
        <ele>567.953</ele>
        <time>2020-06-14T12:05:33Z</time>
      </trkpt>
      <trkpt lat="45.63572" lon="4.62955">
        <ele>572.134</ele>
        <time>2020-06-14T12:05:43Z</time>
      </trkpt>
      <trkpt lat="45.63678" lon="4.6295">
        <ele>574.194</ele>
        <time>2020-06-14T12:06:27Z</time>
      </trkpt>
      <trkpt lat="45.63742" lon="4.62981">
        <ele>577.558</ele>
        <time>2020-06-14T12:06:51Z</time>
      </trkpt>
      <trkpt lat="45.63788" lon="4.63058">
        <ele>576.87</ele>
        <time>2020-06-14T12:08:03Z</time>
      </trkpt>
      <trkpt lat="45.63788" lon="4.63089">
        <ele>597.032</ele>
        <time>2020-06-14T12:10:44Z</time>
      </trkpt>
      <trkpt lat="45.63811" lon="4.63109">
        <ele>600.982</ele>
        <time>2020-06-14T12:11:13Z</time>
      </trkpt>
      <trkpt lat="45.64038" lon="4.63012">
        <ele>618.543</ele>
        <time>2020-06-14T12:13:29Z</time>
      </trkpt>
      <trkpt lat="45.64278" lon="4.62854">
        <ele>622.117</ele>
        <time>2020-06-14T12:17:10Z</time>
      </trkpt>
      <trkpt lat="45.64334" lon="4.62789">
        <ele>616.508</ele>
        <time>2020-06-14T12:17:29Z</time>
      </trkpt>
      <trkpt lat="45.64335" lon="4.62703">
        <ele>615.013</ele>
        <time>2020-06-14T12:17:40Z</time>
      </trkpt>
      <trkpt lat="45.64395" lon="4.62584">
        <ele>619.839</ele>
        <time>2020-06-14T12:17:59Z</time>
      </trkpt>
      <trkpt lat="45.64405" lon="4.6249">
        <ele>623.438</ele>
        <time>2020-06-14T12:18:09Z</time>
      </trkpt>
      <trkpt lat="45.64472" lon="4.62462">
        <ele>630.129</ele>
        <time>2020-06-14T12:18:23Z</time>
      </trkpt>
      <trkpt lat="45.64452" lon="4.62374">
        <ele>638.749</ele>
        <time>2020-06-14T12:18:41Z</time>
      </trkpt>
      <trkpt lat="45.64469" lon="4.62207">
        <ele>649.493</ele>
        <time>2020-06-14T12:19:22Z</time>
      </trkpt>
      <trkpt lat="45.64451" lon="4.62074">
        <ele>652.945</ele>
        <time>2020-06-14T13:24:49Z</time>
      </trkpt>
      <trkpt lat="45.64409" lon="4.61919">
        <ele>645.797</ele>
        <time>2020-06-14T13:25:27Z</time>
      </trkpt>
      <trkpt lat="45.64433" lon="4.61849">
        <ele>642.234</ele>
        <time>2020-06-14T13:25:52Z</time>
      </trkpt>
      <trkpt lat="45.64492" lon="4.61827">
        <ele>643.155</ele>
        <time>2020-06-14T13:26:12Z</time>
      </trkpt>
      <trkpt lat="45.64512" lon="4.61795">
        <ele>641.11</ele>
        <time>2020-06-14T13:26:25Z</time>
      </trkpt>
      <trkpt lat="45.6449" lon="4.61755">
        <ele>639.208</ele>
        <time>2020-06-14T13:26:50Z</time>
      </trkpt>
      <trkpt lat="45.64446" lon="4.61727">
        <ele>630.058</ele>
        <time>2020-06-14T13:27:18Z</time>
      </trkpt>
      <trkpt lat="45.64387" lon="4.61648">
        <ele>627.254</ele>
        <time>2020-06-14T13:28:15Z</time>
      </trkpt>
      <trkpt lat="45.6425" lon="4.61377">
        <ele>585.763</ele>
        <time>2020-06-14T13:30:37Z</time>
      </trkpt>
      <trkpt lat="45.64175" lon="4.61359">
        <ele>581.154</ele>
        <time>2020-06-14T13:31:20Z</time>
      </trkpt>
      <trkpt lat="45.64037" lon="4.61359">
        <ele>607.834</ele>
        <time>2020-06-14T13:33:24Z</time>
      </trkpt>
      <trkpt lat="45.63983" lon="4.61401">
        <ele>617.378</ele>
        <time>2020-06-14T13:33:54Z</time>
      </trkpt>
      <trkpt lat="45.63941" lon="4.61472">
        <ele>630.24</ele>
        <time>2020-06-14T13:34:26Z</time>
      </trkpt>
      <trkpt lat="45.63865" lon="4.61503">
        <ele>633.862</ele>
        <time>2020-06-14T13:35:19Z</time>
      </trkpt>
      <trkpt lat="45.63791" lon="4.61591">
        <ele>623.063</ele>
        <time>2020-06-14T13:35:53Z</time>
      </trkpt>
      <trkpt lat="45.63738" lon="4.6147">
        <ele>605.644</ele>
        <time>2020-06-14T13:36:21Z</time>
      </trkpt>
      <trkpt lat="45.63639" lon="4.61509">
        <ele>599.218</ele>
        <time>2020-06-14T13:36:59Z</time>
      </trkpt>
      <trkpt lat="45.63602" lon="4.61461">
        <ele>598.808</ele>
        <time>2020-06-14T13:37:12Z</time>
      </trkpt>
      <trkpt lat="45.63539" lon="4.61466">
        <ele>595.851</ele>
        <time>2020-06-14T13:37:28Z</time>
      </trkpt>
      <trkpt lat="45.63487" lon="4.61565">
        <ele>597.327</ele>
        <time>2020-06-14T13:37:54Z</time>
      </trkpt>
      <trkpt lat="45.63456" lon="4.61586">
        <ele>597.776</ele>
        <time>2020-06-14T13:38:06Z</time>
      </trkpt>
      <trkpt lat="45.63405" lon="4.6158">
        <ele>601.697</ele>
        <time>2020-06-14T13:38:20Z</time>
      </trkpt>
      <trkpt lat="45.6332" lon="4.61506">
        <ele>605.057</ele>
        <time>2020-06-14T13:38:56Z</time>
      </trkpt>
      <trkpt lat="45.63296" lon="4.61504">
        <ele>604.031</ele>
        <time>2020-06-14T13:39:04Z</time>
      </trkpt>
      <trkpt lat="45.63197" lon="4.61646">
        <ele>592.713</ele>
        <time>2020-06-14T13:39:43Z</time>
      </trkpt>
      <trkpt lat="45.63155" lon="4.61667">
        <ele>590.245</ele>
        <time>2020-06-14T13:40:06Z</time>
      </trkpt>
      <trkpt lat="45.63155" lon="4.61782">
        <ele>576.612</ele>
        <time>2020-06-14T13:40:45Z</time>
      </trkpt>
      <trkpt lat="45.63077" lon="4.61666">
        <ele>564.932</ele>
        <time>2020-06-14T13:41:36Z</time>
      </trkpt>
      <trkpt lat="45.63022" lon="4.61666">
        <ele>569.805</ele>
        <time>2020-06-14T13:42:01Z</time>
      </trkpt>
      <trkpt lat="45.6297" lon="4.61764">
        <ele>570.908</ele>
        <time>2020-06-14T13:42:33Z</time>
      </trkpt>
      <trkpt lat="45.62956" lon="4.61823">
        <ele>574.666</ele>
        <time>2020-06-14T13:42:50Z</time>
      </trkpt>
      <trkpt lat="45.62884" lon="4.61947">
        <ele>578.412</ele>
        <time>2020-06-14T13:44:54Z</time>
      </trkpt>
      <trkpt lat="45.62844" lon="4.61976">
        <ele>582.491</ele>
        <time>2020-06-14T13:45:03Z</time>
      </trkpt>
      <trkpt lat="45.62814" lon="4.61977">
        <ele>586.112</ele>
        <time>2020-06-14T13:45:08Z</time>
      </trkpt>
      <trkpt lat="45.62722" lon="4.61886">
        <ele>599.832</ele>
        <time>2020-06-14T13:45:27Z</time>
      </trkpt>
      <trkpt lat="45.62635" lon="4.61655">
        <ele>612.626</ele>
        <time>2020-06-14T13:46:20Z</time>
      </trkpt>
      <trkpt lat="45.62636" lon="4.61599">
        <ele>616.248</ele>
        <time>2020-06-14T13:46:30Z</time>
      </trkpt>
      <trkpt lat="45.62587" lon="4.61538">
        <ele>620.17</ele>
        <time>2020-06-14T13:46:43Z</time>
      </trkpt>
      <trkpt lat="45.62534" lon="4.61535">
        <ele>620.036</ele>
        <time>2020-06-14T13:46:52Z</time>
      </trkpt>
      <trkpt lat="45.62425" lon="4.61603">
        <ele>619.117</ele>
        <time>2020-06-14T13:47:09Z</time>
      </trkpt>
      <trkpt lat="45.62389" lon="4.61602">
        <ele>616.518</ele>
        <time>2020-06-14T13:47:40Z</time>
      </trkpt>
      <trkpt lat="45.62336" lon="4.61573">
        <ele>619.408</ele>
        <time>2020-06-14T13:47:48Z</time>
      </trkpt>
      <trkpt lat="45.62249" lon="4.61488">
        <ele>629.658</ele>
        <time>2020-06-14T13:48:07Z</time>
      </trkpt>
      <trkpt lat="45.62433" lon="4.61486">
        <ele>642.424</ele>
        <time>2020-06-14T13:48:31Z</time>
      </trkpt>
      <trkpt lat="45.62599" lon="4.61378">
        <ele>650.913</ele>
        <time>2020-06-14T13:48:45Z</time>
      </trkpt>
      <trkpt lat="45.6263" lon="4.61375">
        <ele>651.474</ele>
        <time>2020-06-14T13:48:48Z</time>
      </trkpt>
      <trkpt lat="45.62706" lon="4.61414">
        <ele>651.964</ele>
        <time>2020-06-14T13:48:56Z</time>
      </trkpt>
      <trkpt lat="45.62752" lon="4.61404">
        <ele>659.458</ele>
        <time>2020-06-14T13:49:03Z</time>
      </trkpt>
      <trkpt lat="45.6276" lon="4.61381">
        <ele>663.25</ele>
        <time>2020-06-14T13:49:09Z</time>
      </trkpt>
      <trkpt lat="45.62694" lon="4.6138">
        <ele>665.742</ele>
        <time>2020-06-14T13:49:21Z</time>
      </trkpt>
      <trkpt lat="45.62585" lon="4.61278">
        <ele>672.947</ele>
        <time>2020-06-14T13:49:33Z</time>
      </trkpt>
      <trkpt lat="45.62473" lon="4.61254">
        <ele>676.529</ele>
        <time>2020-06-14T13:49:43Z</time>
      </trkpt>
      <trkpt lat="45.62318" lon="4.61147">
        <ele>678.821</ele>
        <time>2020-06-14T13:49:56Z</time>
      </trkpt>
      <trkpt lat="45.62219" lon="4.61049">
        <ele>682.008</ele>
        <time>2020-06-14T13:50:05Z</time>
      </trkpt>
      <trkpt lat="45.62149" lon="4.6102">
        <ele>684.959</ele>
        <time>2020-06-14T13:50:15Z</time>
      </trkpt>
      <trkpt lat="45.62178" lon="4.61006">
        <ele>690.175</ele>
        <time>2020-06-14T13:50:19Z</time>
      </trkpt>
      <trkpt lat="45.62296" lon="4.61021">
        <ele>701.634</ele>
        <time>2020-06-14T13:50:28Z</time>
      </trkpt>
      <trkpt lat="45.62374" lon="4.61053">
        <ele>704.095</ele>
        <time>2020-06-14T13:50:34Z</time>
      </trkpt>
      <trkpt lat="45.62495" lon="4.61052">
        <ele>708.785</ele>
        <time>2020-06-14T13:50:43Z</time>
      </trkpt>
      <trkpt lat="45.62649" lon="4.60995">
        <ele>733.849</ele>
        <time>2020-06-14T13:50:56Z</time>
      </trkpt>
      <trkpt lat="45.627" lon="4.60963">
        <ele>745.871</ele>
        <time>2020-06-14T13:51:00Z</time>
      </trkpt>
      <trkpt lat="45.62726" lon="4.60899">
        <ele>757.873</ele>
        <time>2020-06-14T13:51:06Z</time>
      </trkpt>
      <trkpt lat="45.62681" lon="4.60728">
        <ele>785.434</ele>
        <time>2020-06-14T13:51:17Z</time>
      </trkpt>
      <trkpt lat="45.62677" lon="4.60642">
        <ele>790.455</ele>
        <time>2020-06-14T13:51:22Z</time>
      </trkpt>
      <trkpt lat="45.62754" lon="4.60502">
        <ele>797.91</ele>
        <time>2020-06-14T13:51:31Z</time>
      </trkpt>
      <trkpt lat="45.62775" lon="4.60481">
        <ele>798.608</ele>
        <time>2020-06-14T13:51:33Z</time>
      </trkpt>
      <trkpt lat="45.62836" lon="4.60461">
        <ele>799.058</ele>
        <time>2020-06-14T13:51:38Z</time>
      </trkpt>
      <trkpt lat="45.62877" lon="4.60409">
        <ele>805.854</ele>
        <time>2020-06-14T13:51:43Z</time>
      </trkpt>
      <trkpt lat="45.6291" lon="4.60229">
        <ele>824.733</ele>
        <time>2020-06-14T13:51:54Z</time>
      </trkpt>
      <trkpt lat="45.62909" lon="4.60167">
        <ele>831.064</ele>
        <time>2020-06-14T13:51:59Z</time>
      </trkpt>
      <trkpt lat="45.62957" lon="4.60043">
        <ele>839.244</ele>
        <time>2020-06-14T13:52:17Z</time>
      </trkpt>
      <trkpt lat="45.62943" lon="4.60015">
        <ele>839.868</ele>
        <time>2020-06-14T13:52:23Z</time>
      </trkpt>
      <trkpt lat="45.6289" lon="4.59991">
        <ele>839.92</ele>
        <time>2020-06-14T13:52:32Z</time>
      </trkpt>
      <trkpt lat="45.62633" lon="4.59993">
        <ele>833.762</ele>
        <time>2020-06-14T13:52:58Z</time>
      </trkpt>
      <trkpt lat="45.62483" lon="4.60041">
        <ele>833.561</ele>
        <time>2020-06-14T13:53:25Z</time>
      </trkpt>
      <trkpt lat="45.62432" lon="4.60025">
        <ele>832.821</ele>
        <time>2020-06-14T13:53:33Z</time>
      </trkpt>
      <trkpt lat="45.62342" lon="4.5992">
        <ele>834.813</ele>
        <time>2020-06-14T13:53:47Z</time>
      </trkpt>
      <trkpt lat="45.62229" lon="4.59733">
        <ele>843.608</ele>
        <time>2020-06-14T13:54:11Z</time>
      </trkpt>
      <trkpt lat="45.62217" lon="4.596">
        <ele>849.041</ele>
        <time>2020-06-14T13:54:22Z</time>
      </trkpt>
      <trkpt lat="45.62189" lon="4.59505">
        <ele>854.927</ele>
        <time>2020-06-14T13:54:31Z</time>
      </trkpt>
      <trkpt lat="45.62061" lon="4.59364">
        <ele>870.916</ele>
        <time>2020-06-14T13:55:00Z</time>
      </trkpt>
      <trkpt lat="45.62027" lon="4.59343">
        <ele>873.197</ele>
        <time>2020-06-14T13:55:08Z</time>
      </trkpt>
      <trkpt lat="45.61989" lon="4.59334">
        <ele>875.317</ele>
        <time>2020-06-14T13:55:18Z</time>
      </trkpt>
      <trkpt lat="45.61929" lon="4.59355">
        <ele>877.571</ele>
        <time>2020-06-14T13:55:34Z</time>
      </trkpt>
      <trkpt lat="45.61779" lon="4.59363">
        <ele>869.273</ele>
        <time>2020-06-14T13:56:24Z</time>
      </trkpt>
      <trkpt lat="45.61429" lon="4.59309">
        <ele>858.845</ele>
        <time>2020-06-14T13:58:13Z</time>
      </trkpt>
      <trkpt lat="45.61234" lon="4.59242">
        <ele>840.029</ele>
        <time>2020-06-14T13:59:26Z</time>
      </trkpt>
      <trkpt lat="45.61132" lon="4.59129">
        <ele>820.4</ele>
        <time>2020-06-14T14:00:11Z</time>
      </trkpt>
      <trkpt lat="45.61026" lon="4.59052">
        <ele>801.62</ele>
        <time>2020-06-14T14:00:45Z</time>
      </trkpt>
      <trkpt lat="45.60891" lon="4.59026">
        <ele>785.208</ele>
        <time>2020-06-14T14:01:29Z</time>
      </trkpt>
      <trkpt lat="45.6086" lon="4.59033">
        <ele>782.217</ele>
        <time>2020-06-14T14:01:46Z</time>
      </trkpt>
      <trkpt lat="45.60826" lon="4.58996">
        <ele>778.963</ele>
        <time>2020-06-14T14:01:55Z</time>
      </trkpt>
      <trkpt lat="45.60724" lon="4.58997">
        <ele>772.872</ele>
        <time>2020-06-14T14:02:11Z</time>
      </trkpt>
      <trkpt lat="45.60627" lon="4.58976">
        <ele>770.843</ele>
        <time>2020-06-14T14:02:26Z</time>
      </trkpt>
      <trkpt lat="45.60552" lon="4.58937">
        <ele>772.193</ele>
        <time>2020-06-14T14:02:49Z</time>
      </trkpt>
      <trkpt lat="45.60494" lon="4.58932">
        <ele>768.587</ele>
        <time>2020-06-14T14:03:09Z</time>
      </trkpt>
      <trkpt lat="45.60351" lon="4.58962">
        <ele>752.999</ele>
        <time>2020-06-14T14:04:04Z</time>
      </trkpt>
      <trkpt lat="45.60146" lon="4.589">
        <ele>724.161</ele>
        <time>2020-06-14T14:05:29Z</time>
      </trkpt>
      <trkpt lat="45.60136" lon="4.58929">
        <ele>720.127</ele>
        <time>2020-06-14T14:06:12Z</time>
      </trkpt>
    </trkseg>
  </trk>
  <trk>
    <name><![CDATA[Toutes traces 4x4 Côté Brindas_8]]></name>
    <trkseg>
      <trkpt lat="45.71806" lon="4.68612">
        <ele>322.7</ele>
      </trkpt>
      <trkpt lat="45.71738" lon="4.68469">
        <ele>318.8</ele>
      </trkpt>
      <trkpt lat="45.71589" lon="4.6828">
        <ele>327.3</ele>
      </trkpt>
      <trkpt lat="45.71531" lon="4.68232">
        <ele>328.9</ele>
      </trkpt>
      <trkpt lat="45.71506" lon="4.68162">
        <ele>330.8</ele>
      </trkpt>
      <trkpt lat="45.71458" lon="4.68096">
        <ele>332.7</ele>
      </trkpt>
      <trkpt lat="45.71397" lon="4.6804">
        <ele>332</ele>
      </trkpt>
      <trkpt lat="45.71346" lon="4.68061">
        <ele>330.5</ele>
      </trkpt>
      <trkpt lat="45.71275" lon="4.68033">
        <ele>331.3</ele>
      </trkpt>
      <trkpt lat="45.71205" lon="4.68061">
        <ele>329</ele>
      </trkpt>
      <trkpt lat="45.71156" lon="4.6805">
        <ele>329.5</ele>
      </trkpt>
      <trkpt lat="45.7101" lon="4.68127">
        <ele>322.2</ele>
      </trkpt>
      <trkpt lat="45.71003" lon="4.67873">
        <ele>344.7</ele>
      </trkpt>
      <trkpt lat="45.71003" lon="4.67817">
        <ele>348.2</ele>
      </trkpt>
      <trkpt lat="45.71005" lon="4.67751">
        <ele>353</ele>
      </trkpt>
      <trkpt lat="45.70952" lon="4.6751">
        <ele>365.8</ele>
      </trkpt>
      <trkpt lat="45.70964" lon="4.67406">
        <ele>366.5</ele>
      </trkpt>
      <trkpt lat="45.70964" lon="4.67371">
        <ele>365.6</ele>
      </trkpt>
      <trkpt lat="45.70917" lon="4.67284">
        <ele>367.4</ele>
      </trkpt>
      <trkpt lat="45.70896" lon="4.67168">
        <ele>370.7</ele>
      </trkpt>
      <trkpt lat="45.70859" lon="4.67189">
        <ele>371.6</ele>
      </trkpt>
      <trkpt lat="45.70849" lon="4.6712">
        <ele>373.7</ele>
      </trkpt>
      <trkpt lat="45.70827" lon="4.67015">
        <ele>380.8</ele>
      </trkpt>
      <trkpt lat="45.70808" lon="4.66893">
        <ele>390.9</ele>
      </trkpt>
      <trkpt lat="45.70803" lon="4.66806">
        <ele>398.7</ele>
      </trkpt>
      <trkpt lat="45.70835" lon="4.66771">
        <ele>402.7</ele>
      </trkpt>
      <trkpt lat="45.70875" lon="4.66749">
        <ele>404.155</ele>
        <time>2021-07-09T15:39:11Z</time>
      </trkpt>
      <trkpt lat="45.70875" lon="4.66749">
        <ele>404.155</ele>
        <time>2021-07-09T15:39:11Z</time>
      </trkpt>
      <trkpt lat="45.70991" lon="4.66664">
        <ele>403.507</ele>
        <time>2021-07-09T15:39:30Z</time>
      </trkpt>
      <trkpt lat="45.71022" lon="4.66665">
        <ele>405.217</ele>
        <time>2021-07-09T15:39:36Z</time>
      </trkpt>
      <trkpt lat="45.71051" lon="4.66644">
        <ele>407.808</ele>
        <time>2021-07-09T15:39:40Z</time>
      </trkpt>
      <trkpt lat="45.71147" lon="4.66648">
        <ele>414.712</ele>
        <time>2021-07-09T15:39:51Z</time>
      </trkpt>
      <trkpt lat="45.71252" lon="4.66587">
        <ele>416.052</ele>
        <time>2021-07-09T15:40:09Z</time>
      </trkpt>
      <trkpt lat="45.7139" lon="4.66551">
        <ele>416.252</ele>
        <time>2021-07-09T15:41:06Z</time>
      </trkpt>
      <trkpt lat="45.71494" lon="4.66486">
        <ele>419.643</ele>
        <time>2021-07-09T15:41:31Z</time>
      </trkpt>
      <trkpt lat="45.7157" lon="4.66406">
        <ele>426.04</ele>
        <time>2021-07-09T15:41:53Z</time>
      </trkpt>
      <trkpt lat="45.71636" lon="4.66277">
        <ele>433.413</ele>
        <time>2021-07-09T15:42:07Z</time>
      </trkpt>
      <trkpt lat="45.71657" lon="4.66203">
        <ele>434.324</ele>
        <time>2021-07-09T15:42:23Z</time>
      </trkpt>
      <trkpt lat="45.7157" lon="4.66059">
        <ele>447.665</ele>
        <time>2021-07-09T15:43:01Z</time>
      </trkpt>
      <trkpt lat="45.71253" lon="4.65777">
        <ele>503.053</ele>
        <time>2021-07-09T15:44:30Z</time>
      </trkpt>
      <trkpt lat="45.71173" lon="4.65613">
        <ele>514.804</ele>
        <time>2021-07-09T15:45:06Z</time>
      </trkpt>
      <trkpt lat="45.71061" lon="4.65433">
        <ele>524.314</ele>
        <time>2021-07-09T15:45:49Z</time>
      </trkpt>
      <trkpt lat="45.71058" lon="4.65419">
        <ele>526.108</ele>
        <time>2021-07-09T15:45:54Z</time>
      </trkpt>
      <trkpt lat="45.71114" lon="4.65368">
        <ele>532.412</ele>
        <time>2021-07-09T15:46:07Z</time>
      </trkpt>
      <trkpt lat="45.7111" lon="4.65337">
        <ele>534.222</ele>
        <time>2021-07-09T15:46:10Z</time>
      </trkpt>
      <trkpt lat="45.71052" lon="4.65272">
        <ele>540.192</ele>
        <time>2021-07-09T15:46:22Z</time>
      </trkpt>
      <trkpt lat="45.71092" lon="4.65046">
        <ele>564.043</ele>
        <time>2021-07-09T15:47:21Z</time>
      </trkpt>
      <trkpt lat="45.71092" lon="4.64944">
        <ele>565.23</ele>
        <time>2021-07-09T15:48:15Z</time>
      </trkpt>
      <trkpt lat="45.71059" lon="4.64759">
        <ele>553.513</ele>
        <time>2021-07-09T15:49:20Z</time>
      </trkpt>
      <trkpt lat="45.71028" lon="4.6467">
        <ele>545.944</ele>
        <time>2021-07-09T15:49:41Z</time>
      </trkpt>
      <trkpt lat="45.71005" lon="4.64469">
        <ele>536.235</ele>
        <time>2021-07-09T15:50:22Z</time>
      </trkpt>
      <trkpt lat="45.71043" lon="4.64501">
        <ele>530.496</ele>
        <time>2021-07-09T15:50:49Z</time>
      </trkpt>
      <trkpt lat="45.71078" lon="4.64461">
        <ele>530.331</ele>
        <time>2021-07-09T15:51:12Z</time>
      </trkpt>
      <trkpt lat="45.71154" lon="4.64419">
        <ele>534.624</ele>
        <time>2021-07-09T15:51:21Z</time>
      </trkpt>
      <trkpt lat="45.71249" lon="4.64237">
        <ele>527.208</ele>
        <time>2021-07-09T15:52:31Z</time>
      </trkpt>
      <trkpt lat="45.71281" lon="4.64086">
        <ele>510.836</ele>
        <time>2021-07-09T15:53:36Z</time>
      </trkpt>
      <trkpt lat="45.71258" lon="4.63881">
        <ele>497.636</ele>
        <time>2021-07-09T15:54:27Z</time>
      </trkpt>
      <trkpt lat="45.71273" lon="4.63727">
        <ele>492.086</ele>
        <time>2021-07-09T15:54:52Z</time>
      </trkpt>
      <trkpt lat="45.71347" lon="4.63587">
        <ele>485.027</ele>
        <time>2021-07-09T15:55:25Z</time>
      </trkpt>
      <trkpt lat="45.71401" lon="4.63526">
        <ele>482.034</ele>
        <time>2021-07-09T15:55:38Z</time>
      </trkpt>
      <trkpt lat="45.71435" lon="4.63425">
        <ele>473.687</ele>
        <time>2021-07-09T15:56:07Z</time>
      </trkpt>
      <trkpt lat="45.71431" lon="4.6334">
        <ele>465.418</ele>
        <time>2021-07-09T15:56:29Z</time>
      </trkpt>
      <trkpt lat="45.7141" lon="4.63258">
        <ele>452.469</ele>
        <time>2021-07-09T15:57:03Z</time>
      </trkpt>
      <trkpt lat="45.7128" lon="4.63176">
        <ele>437.816</ele>
        <time>2021-07-09T15:58:01Z</time>
      </trkpt>
    </trkseg>
  </trk>
  <trk>
    <name><![CDATA[Toutes traces 4x4 Côté Brindas_9]]></name>
    <trkseg>
      <trkpt lat="45.61077" lon="4.53877">
        <ele>877.3</ele>
      </trkpt>
      <trkpt lat="45.61047" lon="4.53839">
        <ele>877.2</ele>
      </trkpt>
      <trkpt lat="45.61002" lon="4.5379">
        <ele>879.9</ele>
      </trkpt>
      <trkpt lat="45.60968" lon="4.53775">
        <ele>881.5</ele>
      </trkpt>
      <trkpt lat="45.60919" lon="4.53738">
        <ele>886.1</ele>
      </trkpt>
      <trkpt lat="45.6089" lon="4.53725">
        <ele>888.8</ele>
      </trkpt>
      <trkpt lat="45.6085" lon="4.53704">
        <ele>893.3</ele>
      </trkpt>
      <trkpt lat="45.60802" lon="4.53661">
        <ele>895.4</ele>
      </trkpt>
      <trkpt lat="45.60746" lon="4.5364">
        <ele>892.5</ele>
      </trkpt>
      <trkpt lat="45.60719" lon="4.53624">
        <ele>888.6</ele>
      </trkpt>
      <trkpt lat="45.60674" lon="4.53559">
        <ele>882</ele>
      </trkpt>
      <trkpt lat="45.6067" lon="4.53512">
        <ele>878.8</ele>
      </trkpt>
      <trkpt lat="45.60653" lon="4.53467">
        <ele>873.4</ele>
      </trkpt>
      <trkpt lat="45.60631" lon="4.53409">
        <ele>867</ele>
      </trkpt>
      <trkpt lat="45.60602" lon="4.53356">
        <ele>864.5</ele>
      </trkpt>
      <trkpt lat="45.60579" lon="4.5333">
        <ele>864</ele>
      </trkpt>
      <trkpt lat="45.60557" lon="4.53221">
        <ele>849.7</ele>
      </trkpt>
      <trkpt lat="45.60581" lon="4.53121">
        <ele>840.3</ele>
      </trkpt>
      <trkpt lat="45.60579" lon="4.53047">
        <ele>834.6</ele>
      </trkpt>
    </trkseg>
  </trk>
</gpx>